[[{"header":{"parameterUnit":"m.s-1","parameterCategory":1,"la1":30.6,"la2":29.2853,"lo1":-89.7004,"lo2":-87.6739,"dy":0.0162,"dx":0.0183,"nx":112,"ny":82,"refTime":"2026-05-08T00:00:00:Z","depth":0,"parameterNumber":2,"parameterNumberName":"U-component_of_WINDS"},"data":[0.0,0.0,0.0,0.0,0.0,0.0,0.0,0.0,0.0,0.0,0.0,0.0,0.0,0.0,0.0,0.0,0.0,0.0,0.0,0.0,0.0,0.0,0.0,0.0,0.0,0.0,0.0,0.0,0.0,0.0,0.0,0.0,0.0,0.0,0.0,0.0,0.0,0.0,0.0,0.0,0.0,0.0,0.0,0.0,0.0,0.0,0.0,0.0,0.0,0.0,0.0,0.0,0.0,0.0,0.0,0.0,0.0,0.0,0.0,0.0,0.0,0.0,0.0,0.0,0.0,0.0,0.0,0.0,0.0,0.0,0.0,0.0,0.0,0.0,0.0,0.0,0.0,0.0,0.0,0.0,0.0,0.0,0.0,0.0,0.0,0.0,0.0,0.0,0.0,0.0,-0.0722,0.0244,0.1566,0.218,0.1676,0.132,0.0885,0.0399,0.0,0.0,0.0,0.0,0.0,0.0,0.0,0.0,0.0,0.0,0.0,0.0,0.0,0.0,0.0,0.0,0.0,0.0,0.0,0.0,0.0,0.0,0.0,0.0,0.0,0.0,0.0,0.0,0.0,0.0,0.0,0.0,0.0,0.0,0.0,0.0,0.0,0.0,0.0,0.0,0.0,0.0,0.0,0.0,0.0,0.0,0.0,0.0,0.0,0.0,0.0,0.0,0.0,0.0,0.0,0.0,0.0,0.0,0.0,0.0,0.0,0.0,0.0,0.0,0.0,0.0,0.0,0.0,0.0,0.0,0.0,0.0,0.0,0.0,0.0,0.0,0.0,0.0,0.0,0.0,0.0,0.0,0.0,0.0,0.0,0.0,0.0,0.0,0.0,0.0,0.0,0.0,0.0,0.0,0.0,0.0,0.0,0.0,0.0,0.0,0.0,0.0,0.0,0.0,0.0561,0.2549,0.2987,0.3145,0.3155,0.1909,0.1113,0.1138,0.0,0.0,0.0,0.0,0.0,0.0,0.0,0.0,0.0,0.0,0.0,0.0,0.0,0.0,0.0,0.0,0.0,0.0,0.0,0.0,0.0,0.0,0.0,0.0,0.0,0.0,0.0,0.0,0.0,0.0,0.0,0.0,0.0,0.0,0.0,0.0,0.0,0.0,0.0,0.0,0.0,0.0,0.0,0.0,0.0,0.0,0.0,0.0,0.0,0.0,0.0,0.0,0.0,0.0,0.0,0.0,0.0,0.0,0.0,0.0,0.0,0.0,0.0,0.0,0.0,0.0,0.0,0.0,0.0,0.0,0.0,0.0,0.0,0.0,0.0,0.0,0.0,0.0,0.0,0.0,0.0,0.0,0.0,0.0,0.0,0.0,0.0,0.0,0.0,0.0,0.0,0.0,0.0,0.0,0.0,0.0,0.0,0.0,0.0,0.0,0.0,0.0,0.0,0.2543,0.3475,0.4109,0.4515,0.4231,0.2895,0.2118,0.1385,0.0647,-0.08,0.0,0.0,0.0,0.0,0.0,0.0,0.0,0.0,0.0,0.0,0.0,0.0,0.0,0.0,0.0,0.0,0.0,0.0,0.0,0.0,0.0,0.0,0.0,0.0,0.0,0.0,0.0,0.0,0.0,0.0,0.0,0.0,0.0,0.0,0.0,0.0,0.0,0.0,0.0,0.0,0.0,0.0,0.0,0.0,0.0,0.0,0.0,0.0,0.0,0.0,0.0,0.0,0.0,0.0,0.0,0.0,0.0,0.0,0.0,0.0,0.0,0.0,0.0,0.0,0.0,0.0,0.0,0.0,0.0,0.0,0.0,0.0,0.0,0.0,0.0,0.0,0.0,0.0,0.0,0.0,0.0,0.0,0.0,0.0,0.0,0.0,0.0,0.0,0.0,0.0,0.0,0.0,0.0,0.0,0.0,0.0,0.0,0.0,0.0,0.0,0.0,0.0,0.5692,0.6331,0.5511,0.5922,0.5376,0.3234,0.2536,0.1746,0.0671,-0.0307,0.0,0.0,0.0,0.0,0.0,0.0,0.0,0.0,0.0,0.0,0.0,0.0,0.0,0.0,0.0,0.0,0.0,0.0,0.0,0.0,0.0,0.0,0.0,0.0,0.0,0.0,0.0,0.0,0.0,0.0,0.0,0.0,0.0,0.0,0.0,0.0,0.0,0.0,0.0,0.0,0.0,0.0,0.0,0.0,0.0,0.0,0.0,0.0,0.0,0.0,0.0,0.0,0.0,0.0,0.0,0.0,0.0,0.0,0.0,0.0,0.0,0.0,0.0,0.0,0.0,0.0,0.0,0.0,0.0,0.0,0.0,0.0,0.0,0.0,0.0,0.0,0.0,0.0,0.0,0.0,0.0,0.0,0.0,0.0,0.0,0.0,0.0,0.0,0.0,0.0,0.0,0.0,0.0,0.0,0.0,0.0,0.0,0.0,0.0,0.0,0.0,0.0,0.7449,0.819,0.7065,0.6981,0.6635,0.5641,0.3493,0.2246,0.2328,0.0818,0.0,0.0,0.0,0.0,0.0,0.0,0.0,0.0,0.0,0.0,0.0,0.0,0.0,0.0,0.0,0.0,0.0,0.0,0.0,0.0,0.0,0.0,0.0,0.0,0.0,0.0,0.0,0.0,0.0,0.0,0.0,0.0,0.0,0.0,0.0,0.0,0.0,0.0,0.0,0.0,0.0,0.0,0.0,0.0,0.0,0.0,0.0,0.0,0.0,0.0,0.0,0.0,0.0,0.0,0.0,0.0,0.0,0.0,0.0,0.0,0.0,0.0,0.0,0.0,0.0,0.0,0.0,0.0,0.0,0.0,0.0,0.0,0.0,0.0,0.0,0.0,0.0,0.0,0.0,0.0,0.0,0.0,0.0,0.0,0.0,0.0,0.0,0.0,0.0,0.0,0.0,0.0,0.0,0.0,0.0,0.0,0.0,0.0,0.0,0.0,0.0,0.0,0.8304,0.8419,0.7448,0.6851,0.5739,0.3714,0.3253,0.2456,0.103,0.0,0.0,0.0,0.0,0.0,0.0,0.0,0.0,0.0,0.0,0.0,0.0,0.0,0.0,0.0,0.0,0.0,0.0,0.0,0.0,0.0,0.0,0.0,0.0,0.0,0.0,0.0,0.0,0.0,0.0,0.0,0.0,0.0,0.0,0.0,0.0,0.0,0.0,0.0,0.0,0.0,0.0,0.0,0.0,0.0,0.0,0.0,0.0,0.0,0.0,0.0,0.0,0.0,0.0,0.0,0.0,0.0,0.0,0.0,0.0,0.0,0.0,0.0,0.0,0.0,0.0,0.0,0.0,0.0,0.0,0.0,0.0,0.0,0.0,0.0,0.0,0.0,0.0,0.0,0.0,0.0,0.0,0.0,0.0,0.0,0.0,0.0,0.0,0.0,0.0,0.0,0.0,0.0,0.0,0.0,0.0,0.0,0.0,0.0,0.0,0.0,0.0,0.8658,0.8827,0.8486,0.728,0.6619,0.5272,0.2849,0.3227,0.2656,0.0494,0.0,0.0,0.0,0.0,0.0,0.0,0.0,0.0,0.0,0.0,0.0,0.0,0.0,0.0,0.0,0.0,0.0,0.0,0.0,0.0,0.0,0.0,0.0,0.0,0.0,0.0,0.0,0.0,0.0,0.0,0.0,0.0,0.0,0.0,0.0,0.0,0.0,0.0,0.0,0.0,0.0,0.0,0.0,0.0,0.0,0.0,0.0,0.0,0.0,0.0,0.0,0.0,0.0,0.0,0.0,0.0,0.0,0.0,0.0,0.0,0.0,0.0,0.0,0.0,0.0,0.0,0.0,0.0,0.0,0.0,0.0,0.0,0.0,0.0,0.0,0.0,0.0,0.0,0.0,0.0,0.0,0.0,0.0,0.0,0.0,0.0,0.0,0.0,0.0,0.0,0.0,0.0,0.0,0.0,0.0,0.0,0.0,0.0,0.0,0.0,0.0,0.0,0.876,0.9066,0.8526,0.6593,0.6383,0.5616,0.3741,0.359,0.2902,0.0,0.0,0.0,0.0,0.0,0.0,0.0,0.0,0.0,0.0,0.0,0.0,0.0,0.0,0.0,0.0,0.0,0.0,0.0,0.0,0.0,0.0,0.0,0.0,0.0,0.0,0.0,0.0,0.0,0.0,0.0,0.0,0.0,0.0,0.0,0.0,0.0,0.0,0.0,0.0,0.0,0.0,0.0,0.0,0.0,0.0,0.0,0.0,0.0,0.0,0.0,0.0,0.0,0.0,0.0,0.0,0.0,0.0,0.0,0.0,0.0,0.0,0.0,0.0,0.0,0.0,0.0,0.0,0.0,0.0,0.0,0.0,0.0,0.0,0.0,0.0,0.0,0.0,0.0,0.0,0.0,0.0,0.0,0.0,0.0,0.0,0.0,0.0,0.0,0.0,0.0,0.0,0.0,0.0,0.0,0.0,0.0,0.0,0.0,0.0,0.0,0.0,0.0,0.7897,0.7629,0.6966,0.5624,0.4918,0.4096,0.2919,0.3299,0.317,0.2145,0.0,0.0,0.0,0.0,0.0,0.0,0.0,0.0,0.0,0.0,0.0,0.0,0.0,0.0,0.0,0.0,0.0,0.0,0.0,0.0,0.0,0.0,0.0,0.0,0.0,0.0,0.0,0.0,0.0,0.0,0.0,0.0,0.0,0.0,0.0,0.0,0.0,0.0,0.0,0.0,0.0,0.0,0.0,0.0,0.0,0.0,0.0,0.0,0.0,0.0,0.0,0.0,0.0,0.0,0.0,0.0,0.0,0.0,0.0,0.0,0.0,0.0,0.0,0.0,0.0,0.0,0.0,0.0,0.0,0.0,0.0,0.0,0.0,0.0,0.0,0.0,0.0,0.0,0.0,0.0,0.0,0.0,0.0,0.0,0.0,0.0,0.0,0.0,0.0,0.0,0.0,0.0,0.0,0.0,0.0,0.0,0.0,0.0,0.0,0.0,0.0,0.0,0.6229,0.6116,0.5618,0.4294,0.3679,0.2999,0.2102,0.2724,0.2698,0.1559,0.0,0.0,0.0,0.0,0.0,0.0,0.0,0.0,0.0,0.0,0.0,0.0,0.0,0.0,0.0,0.0,0.0,0.0,0.0,0.0,0.0,0.0,0.0,0.0,0.0,0.0,0.0,0.0,0.0,0.0,0.0,0.0,0.0,0.0,0.0,0.0,0.0,0.0,0.0,0.0,0.0,0.0,0.0,0.0,0.0,0.0,0.0,0.0,0.0,0.0,0.0,0.0,0.0,0.0,0.0,0.0,0.0,0.0,0.0,0.0,0.0,0.0,0.0,0.0,0.0,0.0,0.0,0.0,0.0,0.0,0.0,0.0,0.0,0.0,0.0,0.0,0.0,0.0,0.0,0.0,0.0,0.0,0.0,0.0,0.0,0.0,0.0,0.0,0.0,0.0,0.0,0.0,0.0,0.0,0.0,0.0,0.0,0.0,0.0,0.0,0.0,0.0,0.4142,0.4557,0.443,0.2743,0.2577,0.2222,0.1361,0.1948,0.1768,0.0326,0.0,0.0,0.0,0.0,0.0,0.0,0.0,0.0,0.0,0.0,0.0,0.0,0.0,0.0,0.0,0.0,0.0,0.0,0.0,0.0,0.0,0.0,0.0,0.0,0.0,0.0,0.0,0.0,0.0,0.0,0.0,0.0,0.0,0.0,0.0,0.0,0.0,0.0,0.0,0.0,0.0,0.0,0.0,0.0,0.0,0.0,0.0,0.0,0.0,0.0,0.0,0.0,0.0,0.0,0.0,0.0,0.0,0.0,0.0,0.0,0.5073,0.3909,0.0,0.0,0.0,0.0,0.0,0.0,0.0,0.0,0.0,0.0,0.0,0.0,0.0,0.0,0.0,0.0,0.0,0.0,0.0,0.0,0.0,0.0,0.0,0.0,0.0,0.0,0.0,0.0,0.0,0.0,0.0,0.0,0.0,0.0,0.0,0.0,0.0,0.0,0.0,0.0,0.3029,0.3141,0.2841,0.1708,0.1608,0.1504,0.133,0.1361,0.1574,0.1952,0.1419,0.0,0.0,0.0,0.0,0.0,0.0,0.0,0.0,0.0,0.0,0.0,0.0,0.0,0.0,0.0,0.0,0.0,0.0,0.0,0.0,0.0,0.0,0.0,0.0,0.0,0.0,0.0,0.0,0.0,0.0,0.0,0.0,0.0,0.0,0.0,0.0,0.0,0.0,0.0,0.0,0.0,0.0,0.0,0.0,0.0,0.0,0.0,0.0,0.0,0.0,0.0,0.0,0.0,0.0,0.0,0.0,0.0,0.0,0.0,0.377,0.3054,0.0,0.0,0.0,0.0,0.0,0.0,0.0,0.0,0.0,0.0,0.0,0.0,0.0,0.0,0.0,0.0,0.0,0.0,0.0,0.0,0.0,0.0,0.0,0.0,0.0,0.0,0.0,0.0,0.0,0.0,0.0,0.0,0.0,0.0,0.0,0.0,0.0,0.0,0.0,0.0,0.1507,0.1776,0.1676,0.0773,0.0672,0.0672,0.0672,0.0623,0.0768,0.126,0.0826,0.0,0.0,0.0,0.0,0.0,0.0,0.0,0.0,0.0,0.0,0.0,0.0,0.0,0.0,0.0,0.0,0.0,0.0,0.0,0.0,0.0,0.0,0.0,0.0,0.0,0.0,0.0,0.0,0.0,0.0,0.0,0.0,0.0,0.0,0.0,0.0,0.0,0.0,0.0,0.0,0.0,0.0,0.0,0.0,0.0,0.0,0.0,0.0,0.0,0.0,0.0,0.0,0.0,0.6867,0.6581,0.5153,0.49,0.3676,0.1702,0.2595,0.2309,0.1359,0.1578,0.0,0.0,0.0,0.0,0.0,0.0,0.0,0.0,0.0,0.0,0.0,0.0,0.0,0.0,0.0,0.0,0.0,0.0,0.0,0.0,0.0,0.0,0.6344,0.6176,0.6089,0.5562,0.3799,0.0,0.0,0.0,0.0,0.0,0.0,0.0,0.0,0.0,0.0,0.0,0.0204,0.0778,0.1012,0.0101,0.0,0.0,0.0,0.0,0.0,0.0,0.0,0.0,0.0,0.0,0.0,0.0,0.0,0.0,0.0,0.0,0.0,0.0,0.0,0.0,0.0,0.0,0.0,0.0,0.0,0.0,0.0,0.0,0.0,0.0,0.0,0.0,0.0,0.0,0.0,0.0,0.0,0.0,0.0,0.0,-0.36,-0.3403,0.0,0.0,0.0,0.0,0.0,0.0,0.0,0.0,0.0,0.0,0.0,0.0,0.0,0.5628,0.5988,0.7302,0.7307,0.5979,0.6329,0.5688,0.4165,0.2976,0.2263,0.1982,0.2197,0.0,0.0321,0.1466,0.0,0.0,0.0,0.0,0.0,0.0,0.0,0.0,0.0,0.0,0.0,0.0,0.0,0.0,0.0,0.0,0.0,0.0,0.0,0.0,0.0,0.0,0.6637,0.6617,0.5841,0.5018,0.4738,0.4474,0.4313,0.4313,0.4395,0.4094,0.0,0.0,0.0,0.0,0.0,0.0,0.014,0.0905,0.1172,0.0101,0.0,0.0,0.0,0.0,0.0,0.0,0.0,0.0,0.0,0.0,0.0,0.0,0.0,0.0,0.0,0.0,0.0,0.0,0.0,0.0,0.0,0.0,0.0,0.0,0.0,0.0,0.0,0.0,0.0,0.0,0.0,0.0,0.0,0.0,0.0,0.0,0.0,0.0,0.0,-0.2942,-0.2212,-0.1549,-0.2132,-0.2612,0.0,0.0,0.0,0.0,0.0,0.0,0.0,0.0,0.0,0.4582,0.5694,0.6303,0.6318,0.6892,0.6393,0.4876,0.4964,0.4242,0.2866,0.2267,0.2058,0.2126,0.2161,0.2779,0.3724,0.4181,0.5016,0.6193,0.0,0.0,0.0,0.0,1.2547,1.3067,1.0533,0.9653,0.9316,0.7351,0.0,0.0,0.0,0.0,0.0,0.0,0.0,0.6705,0.6722,0.6776,0.6827,0.6827,0.5884,0.5186,0.5794,0.5275,0.4711,0.4645,0.502,0.5038,0.4075,0.3844,0.0,0.0,0.0,0.2238,0.1716,0.2026,0.1935,0.0842,0.0739,0.0538,0.0034,0.0,0.0,0.0,0.0,0.0,0.0,0.0,-0.0161,0.0,0.0,0.0,0.0,0.0,0.0,0.0,0.0,0.0,0.0,0.0,0.0,0.0,0.0,0.0,0.0,0.0,0.0,0.0,0.0,0.0,0.0,0.0,0.0,0.0,0.0,0.0,0.0,-0.1293,-0.0884,0.0387,-0.0246,-0.0641,0.0,0.0,0.0,0.0,0.0,0.0,0.2438,0.3704,0.4717,0.5404,0.5728,0.5882,0.5823,0.5823,0.5062,0.3541,0.3526,0.2816,0.1465,0.1512,0.1724,0.2261,0.3009,0.4817,0.7176,0.6927,0.7928,0.9783,1.1673,1.3781,1.5727,1.5495,1.5696,1.5592,1.2313,1.103,1.0362,0.7874,0.7075,0.7027,0.6953,0.0,0.0,0.0,0.0,0.6946,0.7024,0.7041,0.7031,0.695,0.6062,0.5381,0.6196,0.5639,0.4983,0.5127,0.5704,0.5825,0.4871,0.4614,0.0,0.3254,0.3351,0.3386,0.2999,0.3205,0.2854,0.1511,0.137,0.0994,0.0069,0.0,0.0,0.0,0.0,0.0,0.0,0.0,0.0136,0.04,0.0,0.0,0.0,0.0,0.0,0.0,0.0,0.0,0.0,0.0,0.0,0.0,0.0,0.0,0.0,0.0,0.0,0.0,0.0,0.0,0.0,0.0,0.0,0.0,0.0,0.0,0.0,0.0,0.0,0.1757,0.1939,0.0,0.0,0.0,0.0,0.4205,0.4331,0.3738,0.2274,0.3494,0.3636,0.2449,0.3647,0.4421,0.4608,0.4608,0.3793,0.2278,0.23,0.1543,0.0114,0.0113,0.0893,0.2341,0.5151,0.7295,0.8767,0.8572,1.0648,1.4098,1.5111,1.6868,1.8809,1.836,1.7494,1.6213,1.3658,1.2111,1.0881,0.835,0.7468,0.7373,0.7512,0.7455,0.0,0.0,0.7553,0.7522,0.7387,0.7395,0.7312,0.7122,0.6195,0.5393,0.5476,0.5257,0.5368,0.6243,0.6461,0.6083,0.489,0.0,0.4317,0.3256,0.3967,0.4246,0.3233,0.3979,0.3828,0.1814,0.1593,0.1159,0.0073,0.0,0.0,0.0,0.0,0.0,0.0,0.0,0.0471,0.1482,0.1518,0.0,0.0,0.0,0.0,0.0,0.0,0.0,0.0,0.0,0.0,0.0,0.0,0.0,0.0,0.0,0.0,0.0,0.0,0.0,0.0,0.0,0.0,0.0,0.0,0.0,0.0,0.0,0.0,0.2089,0.3071,0.0,0.4327,0.5255,0.5801,0.5922,0.6778,0.6676,0.5174,0.5658,0.5224,0.3718,0.4127,0.3965,0.3051,0.2992,0.229,0.0765,0.076,0.0525,0.0,0.0,0.1321,0.3799,0.5753,0.8549,1.1819,1.2631,1.3685,1.4919,1.6764,1.8015,1.8673,1.851,1.8182,1.7341,1.3819,1.234,1.1536,0.8653,0.7638,0.7529,0.7584,0.756,0.7529,0.7584,0.76,0.7587,0.7533,0.7519,0.7478,0.7326,0.6379,0.5721,0.6358,0.5857,0.5602,0.6551,0.6607,0.6404,0.604,0.5931,0.5734,0.5342,0.5632,0.5422,0.4159,0.433,0.3765,0.164,0.1417,0.1018,0.0073,0.0,0.0,0.0,0.0,0.0,0.0,0.0,0.0187,0.056,0.1118,0.1545,0.0,0.0,0.0,0.0,0.0,0.0,0.0,0.0,0.0,0.0,0.0,0.0,0.0,0.0,0.0,0.0,0.0,0.0,0.0,0.0,0.0,0.0,0.0,0.0,0.0,0.2405,0.3223,0.3649,0.4722,0.5548,0.6051,0.6948,0.7281,0.6805,0.767,0.7315,0.5284,0.5286,0.4619,0.3041,0.2981,0.2506,0.1493,0.1434,0.0956,0.0,0.0595,0.083,0.089,0.1415,0.3322,0.6267,0.7726,1.0599,1.4418,1.585,1.6297,1.6172,1.798,1.8721,1.8657,1.803,1.7549,1.667,1.2981,1.1429,1.0729,0.8696,0.7974,0.7889,0.7841,0.7824,0.7814,0.7763,0.7746,0.7736,0.7685,0.7672,0.7634,0.7485,0.6845,0.6434,0.7072,0.6588,0.6234,0.6853,0.6797,0.6644,0.6692,0.6617,0.6549,0.6549,0.622,0.564,0.4766,0.4289,0.3343,0.1588,0.1398,0.1024,0.0077,0.0,0.0,0.0,0.0,0.0,0.0,0.0,0.0154,0.0543,0.1751,0.2207,0.1913,0.0,0.0,0.0,0.0,0.0,0.0,0.0,0.0,0.0,0.0,0.0,0.0,0.0,0.0,0.0,0.0,0.0,0.0,0.0,0.0,0.0,0.0,0.0,0.4328,0.4653,0.5277,0.6559,0.7005,0.7685,0.9001,0.9235,0.8616,0.698,0.6805,0.5495,0.2348,0.223,0.1518,0.0062,0.0062,0.0062,0.0062,0.0124,0.0185,0.0185,0.1822,0.259,0.2708,0.426,0.6669,0.9666,1.1192,1.3532,1.641,1.7965,1.8317,1.7996,1.8677,1.8969,1.886,1.6998,1.5551,1.41,1.1376,0.957,0.8482,0.8482,0.8482,0.8455,0.8371,0.833,0.8245,0.8042,0.7995,0.7961,0.7858,0.7818,0.7784,0.7641,0.7607,0.7563,0.7456,0.7426,0.7333,0.7132,0.6994,0.6852,0.6742,0.6712,0.6709,0.6664,0.5639,0.0,0.4824,0.3772,0.2647,0.1662,0.1544,0.1149,0.0084,0.0,0.0,0.0,0.0,0.0,0.0,0.0,0.0477,0.1544,0.3446,0.3967,0.3059,0.0,0.0,0.0,0.0,0.0,0.0,0.0,0.0,0.0,0.0,0.0,0.0,0.0,0.0,0.0,0.0,0.0,0.0,0.0,0.0,0.0,0.577,0.5606,0.4884,0.5764,0.658,0.6956,0.8023,0.8424,0.7624,0.7594,0.698,0.5448,0.5277,0.4479,0.2523,0.24,0.1647,0.0064,0.1273,0.1971,0.1971,0.324,0.3936,0.3936,0.4251,0.5015,0.6166,0.6494,0.8305,1.1367,1.3951,1.5496,1.6522,1.9078,1.8707,1.6624,1.6698,1.6643,1.6243,1.4731,1.3177,1.1796,1.101,0.9775,0.8482,0.8482,0.8482,0.8476,0.8435,0.8425,0.8394,0.8248,0.8208,0.817,0.7968,0.7928,0.7891,0.7787,0.7753,0.7712,0.7567,0.7536,0.7492,0.7336,0.7275,0.72,0.7001,0.6893,0.6564,0.5656,0.5244,0.4433,0.2744,0.2228,0.1609,0.0541,0.0459,0.0334,0.0042,0.0,0.0,0.0,0.0,0.0,0.0,0.0,0.0124,0.0417,0.1806,0.2364,0.0,0.0,0.0,0.0,0.0,0.0,0.0,0.0,0.0,0.0,0.0,0.0,0.0,0.0,0.0,0.0,0.0,0.0,0.0,0.0,0.0,0.0,0.7161,0.7137,0.7006,0.7621,0.8169,0.8169,0.899,0.8903,0.7288,0.709,0.62,0.3967,0.3808,0.3094,0.1544,0.1481,0.1031,0.0,0.1738,0.2701,0.2701,0.4497,0.5772,0.6525,0.7037,0.8163,0.963,1.0225,1.2124,1.5045,1.6138,1.7356,1.8533,1.8989,1.8023,1.6277,0.0,0.0,0.0,0.0,1.1413,1.0035,1.0035,0.9438,0.8672,0.8672,0.8672,0.8662,0.8598,0.8577,0.8547,0.8401,0.836,0.8326,0.8174,0.8136,0.8096,0.7943,0.7906,0.7868,0.7719,0.7689,0.7645,0.7495,0.7465,0.0,0.7261,0.7071,0.6753,0.6046,0.5089,0.3961,0.2596,0.1561,0.0675,0.0085,0.0,0.0,0.0,0.0,0.0,0.0,0.0,0.0,0.0,0.0,0.0,0.0,0.0,0.0,0.0,0.0,0.0,0.0,0.435,0.4559,0.0,0.0,0.0,0.0,0.0,0.0,0.0,0.0,0.0,0.0,0.0,0.0,0.0,0.0,0.0,0.0,0.7717,0.8205,0.967,0.9764,0.968,0.9659,0.9771,0.9175,0.7582,0.7428,0.6173,0.3036,0.2816,0.2194,0.0713,0.0583,0.0,0.0,0.0,0.3294,0.3294,0.5097,0.6883,0.8638,1.0036,1.1588,1.3267,1.4704,1.6797,1.9228,1.804,1.89,2.0887,1.8287,1.6762,1.6011,1.5682,1.4423,1.2604,1.1143,0.9658,0.8399,0.8383,0.0,0.0,0.8602,0.8657,0.8634,0.8723,0.8737,0.8703,0.855,0.8509,0.8476,0.8333,0.8333,0.8238,0.8099,0.8002,0.7951,0.7865,0.7838,0.7794,0.7651,0.7624,0.7577,0.7424,0.7268,0.7071,0.6922,0.5141,0.3738,0.3608,0.1627,0.0214,0.0218,0.0087,0.0,0.0,0.0,0.0,0.0,0.0,0.0,0.0,0.0,0.0,0.0,0.1057,0.2192,0.3322,0.4371,0.5541,0.6688,0.6152,0.5976,0.0,0.0,0.0,0.0,0.0,0.0,0.0,0.0,0.0,0.0,0.0,0.0,0.0,0.0,0.0,0.9283,0.9533,0.984,1.0188,1.0168,1.0103,0.9916,0.9926,0.9361,0.7883,0.7719,0.6937,0.5009,0.483,0.4731,0.4389,0.4325,0.4325,0.4325,0.6045,0.6971,0.6971,0.8766,1.054,1.2279,1.2463,0.0,1.7066,1.7257,1.8191,1.9738,2.0644,1.9843,1.795,1.8551,1.6523,1.3013,1.2534,1.0639,0.8126,0.7831,0.6709,0.534,0.533,0.5363,0.553,0.6758,0.7146,0.7365,0.8514,0.8841,0.0,0.871,0.8665,0.8632,0.8479,0.8357,0.8313,0.8235,0.813,0.7982,0.7951,0.7944,0.7901,0.7797,0.777,0.7726,0.758,0.7428,0.6966,0.5908,0.5341,0.4705,0.3726,0.2347,0.1462,0.1468,0.058,0.0,0.0,0.0,0.0,0.0,0.0,0.0,0.0,0.0,0.0,0.0,0.1151,0.2278,0.3313,0.4471,0.5622,0.6698,0.658,0.6542,0.0,0.0,0.0,0.0,0.0,0.0,0.0,0.0,0.0,0.0,0.0,1.0833,0.9551,0.0,0.9788,1.0012,1.0178,1.028,1.028,1.028,1.0253,1.0175,1.0164,0.9554,0.7954,0.7819,0.7161,0.551,0.5417,0.5389,0.5429,0.5431,0.5431,0.5431,0.7096,0.803,0.803,0.9779,1.1567,1.332,1.4128,1.5755,1.8125,1.8939,1.9957,2.1121,2.0142,1.9148,1.8105,1.5553,1.261,0.9711,0.8602,0.7687,0.6923,0.5998,0.5209,0.4506,0.4492,0.4523,0.463,0.5375,0.5586,0.5864,0.7371,0.7817,0.7916,0.8623,0.8825,0.8791,0.8635,0.8486,0.836,0.834,0.815,0.7988,0.7988,0.7988,0.7968,0.7891,0.7877,0.7879,0.7729,0.7641,0.7353,0.6609,0.5987,0.5385,0.4785,0.3061,0.1917,0.1891,0.0779,0.0,0.0,0.0541,0.0897,0.0897,0.1478,0.179,0.179,0.179,0.179,0.179,0.2413,0.3244,0.4353,0.4966,0.5811,0.6919,0.6919,0.6841,0.0,0.0,0.0,0.0,0.0,0.0,0.0,1.0302,1.1482,1.1278,1.1444,1.122,0.9992,0.989,1.0032,1.028,1.0661,1.087,1.087,1.087,1.087,1.087,1.0529,0.9813,0.8478,0.8372,0.7837,0.6522,0.6458,0.6297,0.5897,0.5897,0.5897,0.5897,0.7296,0.8166,0.8499,0.9978,1.1567,1.3325,1.4749,1.6208,1.7691,1.9161,2.0246,2.0953,1.7443,1.6592,1.7256,1.1282,0.8071,0.675,0.51,0.5183,0.6017,0.4621,0.3887,0.3644,0.3643,0.3614,0.3655,0.3947,0.4035,0.4359,0.5808,0.6478,0.6924,0.8156,0.866,0.8854,0.8784,0.8642,0.8489,0.8347,0.8194,0.8025,0.7995,0.7988,0.7988,0.7988,0.7988,0.7951,0.7875,0.7855,0.7797,0.7628,0.6785,0.6164,0.6164,0.3932,0.2336,0.2327,0.0939,0.0093,0.0324,0.1223,0.1879,0.2147,0.3081,0.3614,0.3614,0.3614,0.3614,0.3614,0.3614,0.4194,0.5403,0.5403,0.5983,0.7095,0.7095,0.697,0.3739,0.4785,0.5896,0.6143,0.8216,1.0399,0.0,1.2137,1.2806,1.1925,1.1816,1.1479,1.0048,1.0148,1.0429,1.0463,1.1869,1.2939,1.2939,1.2939,1.2939,1.2939,1.1514,1.0456,1.0389,1.035,1.0293,1.0091,1.0107,0.9377,0.7764,0.7698,0.7698,0.7698,0.7897,0.8767,1.0382,1.0585,1.1567,1.3325,1.3517,1.4479,1.6136,1.633,1.6397,1.6082,1.2403,1.0875,1.0605,0.6979,0.5343,0.5039,0.3383,0.289,0.3002,0.2774,0.1801,0.048,0.0531,0.0523,0.0746,0.2059,0.2432,0.2738,0.4301,0.5641,0.6758,0.6924,0.7875,0.8878,0.8861,0.8801,0.8648,0.8492,0.835,0.8208,0.8019,0.7988,0.7988,0.7988,0.7988,0.7985,0.7968,0.7965,0.787,0.7641,0.7503,0.7409,0.7409,0.5162,0.3599,0.3607,0.1424,0.0424,0.1526,0.1722,0.2236,0.3347,0.3525,0.3614,0.3614,0.3614,0.3614,0.3614,0.3614,0.4194,0.5403,0.5403,0.5983,0.7095,0.7095,0.7078,0.6472,0.7125,0.7838,0.892,1.0168,1.1688,1.3703,1.4065,1.3823,1.3383,1.2726,1.1832,1.0489,1.0365,1.0936,1.2227,1.3108,1.3618,1.3618,1.3618,1.3116,1.1905,1.1132,1.0748,1.0721,1.0721,1.0721,1.0721,1.0721,1.0382,0.9643,0.9573,0.9573,0.9573,0.9573,0.9911,1.0721,1.0721,1.1045,1.1828,1.2804,1.3713,1.4358,1.4377,1.3074,1.0902,0.9309,0.7999,0.6779,0.4434,0.349,0.3363,0.1669,0.1048,0.1047,0.1041,0.0611,0.0,0.0,0.0,0.0118,0.0693,0.0914,0.119,0.269,0.4246,0.5586,0.6478,0.7762,0.8885,0.8885,0.8825,0.8696,0.8628,0.8438,0.8252,0.8187,0.8102,0.7988,0.7988,0.7988,0.7736,0.6983,0.6833,0.6545,0.5652,0.6821,0.756,0.6775,0.5054,0.3332,0.1741,0.1355,0.135,0.1864,0.3278,0.4348,0.4855,0.555,0.589,0.5817,0.5814,0.5737,0.5622,0.562,0.5888,0.6381,0.6381,0.665,0.7095,0.7095,0.7095,0.8226,0.8853,0.958,1.0819,1.2,1.3313,1.5172,1.4945,1.4204,1.3891,1.2769,1.1545,1.0585,1.0534,1.1146,1.2767,1.3444,1.3793,1.3742,1.3737,1.3136,1.1585,1.108,1.0793,1.0792,1.0819,1.0843,1.0843,1.0843,1.0622,1.0041,1.0038,1.0019,0.9978,0.9978,1.018,1.0721,1.0721,1.0452,0.9978,1.1215,1.16,1.1128,1.1086,0.9549,0.6976,0.6519,0.551,0.4106,0.2481,0.1839,0.171,0.05,0.0311,0.0682,0.068,0.037,0.0,0.0,0.0,0.0,0.0,0.0,0.0287,0.1752,0.3253,0.4804,0.6311,0.7762,0.8885,0.8885,0.8801,0.8764,0.872,0.8547,0.837,0.834,0.7873,0.7528,0.7444,0.7132,0.6578,0.5625,0.5425,0.5122,0.4166,0.5672,0.6528,0.5575,0.427,0.2711,0.0741,0.1424,0.2298,0.298,0.4747,0.5926,0.6261,0.712,0.755,0.7438,0.7439,0.7339,0.7223,0.7139,0.7119,0.7204,0.7119,0.7119,0.7204,0.7204,0.7183,0.8523,0.9804,1.1243,1.1302,1.3749,1.5846,1.4714,1.4245,1.3786,1.253,1.1228,1.034,1.0283,1.0643,1.0938,1.1012,1.2546,1.3739,1.3566,1.3541,1.3469,1.3214,1.1703,1.0782,1.086,1.1067,1.1148,1.1148,1.1148,1.0391,0.8478,0.8402,0.8283,0.8102,0.8097,0.8903,1.0654,1.0721,0.9845,0.8097,0.8163,0.7296,0.5629,0.5628,0.5452,0.5117,0.3545,0.2736,0.2443,0.0773,0.0065,0.0064,0.0,0.1009,0.245,0.2415,0.1417,0.0,0.0,0.0,0.0,0.0,0.0,0.0287,0.1776,0.3282,0.4804,0.6311,0.7762,0.8885,0.8885,0.8878,0.8841,0.8747,0.8703,0.8618,0.8333,0.7277,0.6307,0.61,0.502,0.4116,0.4066,0.4066,0.4066,0.4016,0.4066,0.4116,0.4066,0.2913,0.2011,0.1961,0.1978,0.298,0.5467,0.5754,0.6308,0.7456,0.76,0.7597,0.7594,0.7451,0.7441,0.7584,0.7247,0.7214,0.7409,0.7214,0.7217,0.7409,0.7409,0.7444,0.8798,1.0069,1.1732,1.3003,1.4209,1.5248,1.5959,1.4419,1.2764,1.2422,1.1159,1.0158,1.0259,1.048,1.1104,1.257,1.3425,1.3968,1.3959,1.3963,1.3379,1.1896,1.1381,1.1145,1.1094,1.105,1.106,1.1155,1.1231,1.0891,1.0063,1.0054,0.9921,0.9782,0.9779,1.0047,1.0721,0.9507,0.8634,0.7964,0.6831,0.536,0.3623,0.3623,0.2945,0.1667,0.1135,0.0865,0.0795,0.0263,0.0,0.0129,0.1205,0.2004,0.2604,0.3697,0.3752,0.3076,0.2033,0.1658,0.1648,0.1631,0.2389,0.3299,0.3746,0.49,0.617,0.6609,0.7762,0.8885,0.8885,0.8885,0.8871,0.8817,0.8013,0.7214,0.7133,0.5879,0.4773,0.4692,0.4332,0.3696,0.2809,0.2657,0.2363,0.146,0.2113,0.2665,0.2665,0.1511,0.1008,0.1913,0.2798,0.4029,0.5773,0.6726,0.7443,0.7843,0.7843,0.7845,0.7743,0.7689,0.7645,0.76,0.7499,0.7472,0.7522,0.7472,0.7472,0.7522,0.7522,0.755,0.9603,1.0683,1.2064,1.3943,1.4381,1.4554,1.5129,1.3701,1.207,1.1585,1.0242,0.9384,1.0052,0.9945,1.0356,1.2343,1.2902,1.3112,1.3151,1.3145,1.2669,1.1186,1.1192,1.1294,1.125,1.1111,1.1107,1.1311,1.1324,1.1263,1.1114,1.1107,1.1012,1.0809,1.0802,1.0438,0.9709,0.8568,0.7362,0.6093,0.429,0.2887,0.1747,0.1747,0.1075,0.0,0.0,0.0,0.0,0.0,0.0,0.0131,0.1217,0.1957,0.2623,0.3643,0.4057,0.3873,0.2831,0.2893,0.3255,0.2677,0.3561,0.4964,0.5447,0.62,0.707,0.7466,0.828,0.889,0.8279,0.8097,0.7986,0.7426,0.6533,0.5759,0.5667,0.4478,0.3369,0.3295,0.2893,0.2306,0.1433,0.1305,0.0977,0.0155,0.072,0.1279,0.1262,0.0555,0.0706,0.2514,0.3465,0.4718,0.6581,0.7487,0.7988,0.7988,0.7988,0.7944,0.7896,0.7841,0.7794,0.7756,0.7655,0.7624,0.7675,0.7624,0.7628,0.7675,0.7675,0.7706,1.0859,1.1522,1.2197,1.3882,1.4281,1.3927,1.2406,1.2032,1.1491,0.9872,0.8441,0.79,0.947,0.8969,0.8764,1.0316,1.1029,1.1345,1.1275,1.1311,1.1345,1.1261,1.1251,1.124,1.1379,1.1267,1.1307,1.1599,1.1613,1.1545,1.1399,1.1385,1.1246,1.089,1.0802,0.9844,0.8033,0.7831,0.596,0.2551,0.0807,0.0,0.0,0.0,0.0,0.0,0.0,0.0,0.0,0.0,0.0,0.0,0.0065,0.1095,0.2496,0.2613,0.2647,0.2647,0.2647,0.3629,0.4671,0.3199,0.3836,0.5408,0.6782,0.7184,0.7367,0.8689,0.9047,0.8615,0.7017,0.6596,0.626,0.4806,0.4414,0.4339,0.4158,0.3057,0.2066,0.1925,0.0854,0.0,0.0,0.0,0.0,0.0,0.0,0.0,0.0,0.0,0.101,0.362,0.3967,0.5068,0.7686,0.7939,0.7988,0.7988,0.7988,0.7988,0.7988,0.7899,0.7892,0.7985,0.7763,0.7689,0.7821,0.7689,0.7692,0.7824,0.7824,0.7899,0.9932,1.1028,1.2205,1.2665,1.2738,1.2324,1.0782,0.9472,0.8149,0.6505,0.5853,0.5683,0.6115,0.7233,0.8265,0.8823,1.0332,1.1416,1.1494,1.1538,1.1504,1.1352,1.1433,1.1474,1.1399,1.146,1.1535,1.1613,1.1514,1.1433,1.1392,1.1284,1.1138,1.0887,0.9478,0.8531,0.803,0.5359,0.2953,0.0673,0.0202,0.0,0.0,0.0,0.0,0.0,0.0,0.0,0.0,0.0,0.0,0.0132,0.1362,0.2109,0.2653,0.384,0.4303,0.4303,0.4303,0.4548,0.5039,0.5894,0.722,0.8585,0.8853,0.8079,0.7133,0.7428,0.6635,0.5627,0.5195,0.5059,0.4987,0.4594,0.3632,0.2791,0.2722,0.1557,0.0556,0.0498,0.0221,0.0,0.0,0.0,0.0,0.0,0.0,0.0,0.0,0.0,0.0669,0.2311,0.3394,0.4668,0.6379,0.7437,0.7988,0.7988,0.7988,0.7988,0.7988,0.7951,0.7948,0.7988,0.7917,0.7894,0.7931,0.7894,0.7897,0.7931,0.7931,0.7951,1.0458,1.0844,1.1228,1.2016,1.1623,1.0868,1.0013,0.8572,0.7104,0.6211,0.4833,0.4049,0.4752,0.5992,0.7175,0.8007,0.9961,1.1345,1.1497,1.1575,1.1589,1.1501,1.1565,1.122,1.0342,1.0206,1.0215,1.0215,1.0996,1.1491,1.1491,1.1345,1.0846,0.9874,0.8712,0.7342,0.5693,0.2885,0.1009,0.0,0.0,0.0,0.0,0.0,0.0,0.0,0.0,0.0,0.0,0.0,0.0,0.0066,0.1039,0.141,0.1524,0.2421,0.3199,0.3936,0.4671,0.4916,0.5161,0.6872,0.8465,0.9684,0.8871,0.7999,0.7065,0.6184,0.5271,0.4426,0.366,0.351,0.3313,0.2663,0.1856,0.1231,0.1231,0.056,0.0,0.0,0.0,0.0,0.0,0.0,0.0,0.0,0.0,0.0,0.0,0.0,0.0523,0.1865,0.2663,0.3649,0.5024,0.5822,0.6476,0.7083,0.7135,0.7385,0.7988,0.7988,0.7988,0.7988,0.7988,0.7988,0.7988,0.7988,0.7988,0.7988,0.7988,0.7988,1.1319,1.0688,0.9961,1.1519,1.0737,0.9603,0.9462,0.8196,0.7004,0.6782,0.4298,0.2622,0.3973,0.4669,0.5538,0.7077,0.9311,1.0938,1.1036,1.1389,1.1476,1.1253,1.1253,1.0449,0.8487,0.824,0.8177,0.8177,0.9835,1.0908,1.1197,1.1056,0.9992,0.7776,0.7615,0.59,0.2351,0.0807,0.0,0.0,0.0,0.0,0.0,0.0,0.0,0.0,0.0,-0.0135,-0.0336,-0.0067,-0.0135,-0.0335,-0.0065,0.0,0.0,0.0,0.0925,0.2401,0.3996,0.4611,0.4916,0.6811,0.8221,0.8897,0.7484,0.693,0.6424,0.4834,0.4277,0.3722,0.2308,0.1921,0.161,0.0287,0.0,0.0,0.0,0.0,0.0,0.0,0.0,0.0,0.0,0.0,0.0,0.0,0.0,0.0,0.0,0.0,0.0425,0.1619,0.1868,0.2466,0.3633,0.3922,0.4518,0.5677,0.5727,0.6329,0.7686,0.7739,0.7839,0.7988,0.7988,0.7889,0.7739,0.7739,0.7637,0.7484,0.7484,0.7484,1.0105,0.9963,0.9849,1.0115,0.998,0.9392,0.7908,0.6386,0.492,0.3428,0.1656,0.0536,0.0782,0.2225,0.3452,0.372,0.6772,0.914,0.9149,1.0581,1.1034,0.943,0.9211,0.8415,0.646,0.6312,0.6264,0.6264,0.6637,0.7447,0.8925,0.8878,0.7251,0.3785,0.3708,0.2624,0.0471,0.0135,0.0,0.0,0.0,0.0,0.0,0.0,0.0,0.0,0.0,-0.0874,-0.2149,-0.0605,-0.0874,-0.2076,-0.0587,0.0,0.0,0.0,0.0185,0.0679,0.234,0.2893,0.3382,0.6442,0.6628,0.5712,0.5406,0.4426,0.3258,0.2944,0.1902,0.0734,0.0482,0.0356,0.0292,0.0058,0.0,0.0,0.0,0.0,0.0,0.0,0.0,0.0,0.0,0.0,0.0,0.0,0.0,0.0,0.0,0.0,0.0109,0.0325,0.1318,0.2118,0.2316,0.3345,0.4116,0.4318,0.4368,0.497,0.6279,0.6331,0.6883,0.7988,0.7988,0.7434,0.6331,0.6331,0.5774,0.4718,0.4718,0.4718,0.8268,0.8526,0.8772,0.9576,0.9768,0.9267,0.7636,0.5964,0.431,0.2675,0.1111,0.0,0.0,0.1517,0.2826,0.2909,0.5245,0.7455,0.8557,0.8601,0.8647,0.8688,0.7833,0.6458,0.4504,0.4307,0.4263,0.4164,0.418,0.5059,0.6976,0.5155,0.3254,0.134,-0.0536,-0.1944,-0.2819,-0.2819,-0.2819,-0.2819,-0.2819,-0.2819,-0.2819,-0.2819,-0.2819,-0.2752,-0.1814,-0.1881,-0.2551,-0.074,-0.0538,-0.1206,-0.0326,0.0,0.0,0.0,0.0555,0.1417,0.2217,0.2524,0.2646,0.331,0.417,0.4732,0.3935,0.2519,0.1044,0.0123,-0.0677,-0.1292,-0.1283,-0.0663,0.0,0.0,0.0,0.0,0.0,0.0,0.0,0.0,0.0,0.0,0.0,0.0,0.0,0.0,0.0,0.0,0.0,0.0,0.0,0.0,0.0593,0.0952,0.0935,0.1541,0.2237,0.2917,0.2964,0.3566,0.492,0.497,0.527,0.5922,0.5922,0.5622,0.497,0.497,0.4618,0.4016,0.4016,0.4016,0.7055,0.7667,0.8218,0.9511,0.9713,0.9179,0.7708,0.5957,0.4296,0.2745,0.1154,0.0,0.0,0.1184,0.2141,0.2257,0.3792,0.5569,0.7248,0.6492,0.6215,0.735,0.6085,0.4427,0.2464,0.1932,0.1624,0.1533,0.1168,0.1984,0.4422,0.1025,-0.1081,-0.1137,-0.3884,-0.5431,-0.5431,-0.5431,-0.5431,-0.5431,-0.5431,-0.5431,-0.5429,-0.5347,-0.5347,-0.5295,-0.3878,-0.3207,-0.314,-0.1338,-0.0602,-0.0532,-0.013,0.0,-0.0064,-0.0374,0.0308,0.1354,0.1046,0.0922,0.0676,-0.0613,0.092,0.301,0.1414,0.0,-0.1349,-0.2644,-0.3016,-0.3016,-0.3016,-0.2009,-0.1019,-0.1,-0.0973,-0.0952,-0.0952,-0.0952,-0.084,-0.056,-0.0448,-0.0392,-0.0056,0.0,0.0,0.0,0.0,0.0,0.0,0.0,0.0,0.0,0.0,0.0,0.0,0.0,0.0464,0.1522,0.1564,0.2163,0.3516,0.3565,0.3715,0.4016,0.4016,0.3865,0.3565,0.3565,0.3416,0.3165,0.3128,0.3133,0.736,0.8465,0.9636,0.9758,0.9713,0.9153,0.7485,0.5858,0.4224,0.2585,0.1067,0.0,0.0,0.0115,0.0236,0.025,0.1915,0.3206,0.3412,0.4833,0.5194,0.3639,0.3247,0.2389,0.043,-0.1202,-0.216,-0.22,-0.3724,-0.3154,0.0336,-0.2885,-0.4899,-0.4892,-0.5228,-0.5431,-0.5431,-0.5431,-0.5431,-0.5431,-0.5431,-0.5431,-0.536,-0.5225,-0.5231,-0.536,-0.5025,-0.4998,-0.4998,-0.3225,-0.2483,-0.2257,-0.0636,0.0,-0.0189,-0.1736,-0.2155,-0.2277,-0.3688,-0.424,-0.424,-0.4423,-0.3257,-0.2092,-0.3748,-0.43,-0.4485,-0.461,-0.4671,-0.4671,-0.4671,-0.4557,-0.4411,-0.4276,-0.4189,-0.408,-0.408,-0.408,-0.3689,-0.2292,-0.2012,-0.1566,-0.0224,0.0,0.0,0.0,0.0,0.0,0.0,0.0,0.0,0.0,0.0,0.0,0.0,0.0,0.0052,0.0155,0.0204,0.0807,0.2113,0.2163,0.2764,0.3966,0.4016,0.3416,0.2163,0.2163,0.1561,0.0353,0.036,0.0362,0.5617,0.7022,0.8173,0.8296,0.8142,0.7332,0.4861,0.3767,0.276,0.1177,0.0392,0.0,0.0,0.0,0.0,0.0,0.0675,0.1571,0.2755,0.2534,0.2448,0.2879,0.0914,-0.0775,-0.157,-0.3289,-0.4325,-0.4333,-0.5981,-0.6356,-0.4877,-0.6154,-0.6965,-0.6965,-0.8035,-0.8573,-0.8573,-0.8573,-0.8573,-0.8573,-0.8573,-0.8573,-0.8571,-0.8522,-0.8527,-0.8499,-0.7259,-0.6756,-0.6686,-0.481,-0.4002,-0.3976,-0.3225,-0.2956,-0.3013,-0.3711,-0.3936,-0.4057,-0.4671,-0.4916,-0.5039,-0.6077,-0.5955,-0.5403,-0.5039,-0.559,-0.6383,-0.6383,-0.6383,-0.6383,-0.6383,-0.5606,-0.4777,-0.4717,-0.4612,-0.4526,-0.4526,-0.4526,-0.4303,-0.3688,-0.285,-0.2012,-0.1399,-0.056,0.0,0.0,0.0,0.0,0.0,0.0,0.0,0.0,0.0,0.0,0.0,0.0,0.0,0.0,0.0,0.0258,0.0782,0.0774,0.103,0.1562,0.1597,0.1332,0.082,0.0811,0.0504,0.0,0.0,0.0,0.3897,0.5286,0.6494,0.6615,0.648,0.5604,0.3093,0.2319,0.1789,0.028,-0.0336,-0.0672,-0.0672,-0.1018,-0.1318,-0.1339,-0.0951,-0.0366,0.0505,-0.0129,-0.0395,0.0478,-0.1775,-0.3362,-0.3428,-0.5092,-0.6365,-0.6905,-0.8102,-0.8767,-0.8767,-0.8767,-0.8767,-0.8767,-1.0047,-1.0721,-1.0721,-1.0721,-1.0721,-1.0721,-1.0673,-1.0653,-1.0653,-1.0609,-1.0612,-1.058,-0.9222,-0.831,-0.7687,-0.6316,-0.5427,-0.4875,-0.4885,-0.4929,-0.4984,-0.5486,-0.5649,-0.5712,-0.6202,-0.6324,-0.6569,-0.7731,-0.8097,-0.7914,-0.6691,-0.7179,-0.8097,-0.8097,-0.8097,-0.8097,-0.8097,-0.7077,-0.6094,-0.6094,-0.5948,-0.5808,-0.5808,-0.5808,-0.553,-0.4693,-0.3632,-0.2571,-0.1677,-0.0672,0.0,0.0,0.0,0.0,0.0,0.0,0.0,0.0,0.0,0.0,0.0,0.0,0.0,0.0,0.0,0.0,0.0,0.0,0.0,0.0,0.0,0.0,0.0,0.0,0.0,0.0,0.0,0.0,0.2523,0.371,0.4925,0.4925,0.4807,0.4347,0.2864,0.2319,0.1789,0.028,-0.1175,-0.218,-0.218,-0.3409,-0.444,-0.4452,-0.3177,-0.272,-0.4416,-0.3387,-0.3087,-0.466,-0.4852,-0.4961,-0.5029,-0.6831,-0.8704,-1.0518,-1.0651,-1.0654,-1.0654,-1.0654,-1.0654,-1.0654,-1.0721,-1.0721,-1.0721,-1.0721,-1.0721,-1.0717,-1.0568,-1.0493,-1.049,-1.0348,-1.0361,-1.0493,-1.0493,-0.9432,-0.7768,-0.7768,-0.6627,-0.492,-0.4918,-0.4918,-0.5102,-0.675,-0.736,-0.7604,-0.9204,-0.9761,-0.9758,-0.9758,-0.9758,-0.9758,-0.9758,-0.9758,-0.9758,-0.9758,-0.9758,-0.9758,-0.9758,-0.9542,-0.9381,-0.9381,-0.9097,-0.8826,-0.8826,-0.8826,-0.7986,-0.5085,-0.447,-0.3522,-0.056,0.0,0.0,0.0,0.0,0.0,0.0,0.0,0.0,0.0,0.0,0.0,0.0,0.0,0.0,0.0,0.0,0.0,0.0,0.0,0.0,0.0,0.0,0.0,0.0,0.0,0.0,0.0,0.0,0.0,-0.0275,0.0828,0.1772,0.0721,0.0276,-0.022,-0.1633,-0.2148,-0.2449,-0.2807,-0.3326,-0.3799,-0.3799,-0.4191,-0.4511,-0.4634,-0.4225,-0.4115,-0.4775,-0.4518,-0.4492,-0.4973,-0.6227,-0.7509,-0.8781,-0.951,-1.0047,-1.0651,-1.0721,-1.0721,-1.0721,-1.0721,-1.0721,-1.0721,-1.0721,-1.0721,-1.0721,-1.0721,-1.1306,-1.2479,-1.2419,-1.304,-1.4197,-1.4138,-1.4143,-1.4193,-1.4116,-1.3756,-1.3164,-1.3106,-1.2589,-1.1809,-1.1809,-1.1016,-0.9963,-1.0453,-0.998,-0.9143,-0.9636,-0.9822,-0.9822,-0.9822,-0.9822,-0.9822,-0.9822,-0.9822,-0.9822,-0.9822,-0.9822,-0.9798,-0.97,-0.953,-0.9354,-0.9306,-0.9079,-0.8605,-0.7595,-0.7371,-0.6813,-0.4862,-0.3632,-0.2626,-0.1677,-0.0672,0.0,0.0,0.0,0.0,0.0,0.0,0.0,0.0,0.0,0.0,0.0,0.0,0.0,0.0,0.0,0.0,0.0,0.0,0.0,0.0,0.0,0.0,0.0,0.0,0.0,0.0,0.0,0.0,-0.4257,-0.3285,-0.2765,-0.3732,-0.3741,-0.374,-0.4556,-0.4548,-0.4359,-0.4203,-0.4803,-0.5306,-0.5306,-0.5808,-0.6184,-0.6253,-0.5871,-0.5783,-0.6501,-0.6298,-0.6269,-0.7006,-0.8162,-0.9389,-1.0511,-1.0687,-1.0721,-1.0721,-1.0721,-1.0721,-1.0721,-1.1306,-1.1699,-1.1699,-1.1699,-1.2022,-1.2672,-1.2672,-1.316,-1.4119,-1.4106,-1.4541,-1.5476,-1.5476,-1.5521,-1.5661,-1.5668,-1.5643,0.0,-1.5627,-1.5437,-1.5176,-1.5176,-1.437,-1.3282,-1.3282,-1.2574,-1.1619,-1.1619,-1.1197,-1.0721,-1.0721,-1.0301,-0.9822,-0.9822,-0.9822,-0.9822,-0.9822,-0.9822,-0.9788,-0.9646,-0.9496,-0.9344,-0.9248,-0.9045,-0.8491,-0.7035,-0.6702,-0.6086,-0.4023,-0.285,-0.2013,-0.1454,-0.0616,0.0,0.0,0.0,0.0,0.0,0.0,0.0,0.0,0.0,0.0,0.0,0.0,0.0,0.0,0.0,0.0,0.0,0.0,0.0,0.0,0.0,0.0,0.0,0.0,0.0,0.0,0.0,0.0,0.0,-0.833,-0.8178,-0.8178,-0.7321,-0.6456,-0.6448,-0.5609,0.0,-0.4777,-0.6003,-0.7033,-0.7033,-0.8039,-0.8888,-0.8898,-0.7866,-0.7619,-0.9217,-0.8612,-0.8591,-1.0256,-1.0734,-1.0886,-1.0876,-1.102,-1.1045,-1.1045,-1.1045,-1.1045,-1.1045,-1.261,-1.3517,-1.3648,-1.3648,-1.4362,-1.5913,-1.5913,-1.5807,-1.5648,-1.556,-1.5402,-1.5181,-1.5181,-1.537,-1.566,-1.5814,-1.5975,-1.6107,-1.6107,-1.5982,-1.5846,-1.5846,-1.5571,-1.517,-1.517,-1.4911,-1.4604,-1.4604,-1.3646,-1.2333,-1.2213,-1.1137,-0.9822,-0.9822,-0.9822,-0.9822,-0.9822,-0.9822,-0.9785,-0.9632,-0.949,-0.934,-0.9234,-0.8979,-0.8322,-0.6869,-0.6478,-0.5526,-0.2626,-0.2068,-0.1622,-0.0224,0.0,0.0,0.0,0.0,0.0,0.0,0.0,0.0,0.0,0.0,0.0,0.0,0.0,0.0,0.0,0.0,0.0,0.0,0.0,0.0,0.0,0.0,0.0,0.0,0.0,0.0,0.0,0.0,0.0,-1.4052,0.0,-1.0973,-1.0973,-1.0838,-1.0709,0.0,-1.0656,-1.0742,-1.065,-1.0317,-1.0061,-1.0061,-0.942,-0.8974,-0.9086,-0.8966,-0.9007,-0.9481,-1.0778,-1.178,-1.2079,-1.3631,-1.4549,-1.4331,-1.4567,-1.4684,-1.4684,-1.4684,-1.4684,-1.4684,-1.5074,-1.5913,-1.7211,-1.7275,-1.6824,-1.5913,-1.5913,-1.645,-1.7491,-1.7434,-1.7963,-1.8945,-1.8945,-1.9096,-1.9429,-1.9436,-1.9581,-1.9834,-1.9834,-1.9676,-1.9491,-1.9491,-1.838,-1.6863,-1.6863,-1.5867,-1.4604,-1.4604,-1.4361,-1.3825,-1.2573,-1.1137,-0.9822,-0.9822,-0.9822,-0.9822,-0.9822,-0.9822,-0.9761,-0.9503,-0.9408,-0.9317,-0.9052,-0.8066,-0.6813,-0.5361,-0.4077,-0.2738,-0.0896,-0.0504,-0.0392,-0.0056,0.0,0.0,0.0,0.0,0.0,0.0,0.0,0.0,0.0,0.0,0.0,0.0,0.0,0.0,0.0,0.0,0.0,0.0,0.0,0.0,0.0,0.0,0.0,0.0,0.0,0.0,0.0,0.0,0.0,-1.5752,-1.49,-1.392,-1.392,-1.3516,-1.3127,-1.3052,-1.2772,-1.249,-1.242,-1.2126,-1.1886,-1.1886,-1.0778,-0.9945,-1.0028,-1.0307,-1.0868,-1.1846,-1.3,-1.4118,-1.4957,-1.6139,-1.6796,-1.6838,-1.6951,-1.6722,-1.5978,-1.5913,-1.5913,-1.5913,-1.663,-1.7532,-1.8442,-1.9285,-1.9221,-1.8314,-1.8134,-1.8459,-1.9081,-1.8956,-1.9188,-1.9833,-1.9833,-2.0067,-2.0474,-2.0474,-2.0715,-2.1109,-2.1109,-2.1015,-2.0862,-2.0728,-1.9891,-1.868,-1.8555,-1.7797,-1.6803,-1.6803,-1.5854,-1.4307,-1.2693,-1.1137,-0.9822,-0.9822,-0.9822,-0.9822,-0.9822,-0.9822,-0.9751,-0.9459,-0.9381,-0.9306,-0.8952,-0.8266,-0.7146,-0.4973,-0.3855,-0.2627,-0.0448,0.0,0.0,0.0,0.0,0.0,0.0,0.0,0.0,0.0,0.0,0.0,0.0,0.0,0.0,0.0,0.0,0.0,0.0,0.0,0.0,0.0,0.0,0.0,0.0,0.0,0.0,0.0,0.0,0.0,0.0,0.0,0.0,-1.5685,-1.6046,-1.6319,-1.6226,-1.5352,-1.4545,-1.4545,-1.3633,-1.2817,-1.2817,-1.2982,-1.3141,-1.3141,-1.2208,-1.1433,-1.1433,-1.2026,-1.31,-1.4881,-1.5532,-1.6513,-1.8257,-1.8748,-1.9075,-1.9374,-1.9431,-1.8804,-1.7183,-1.7065,-1.6942,-1.6689,-1.8116,-1.8878,-1.8836,-2.0264,-2.1022,-2.0975,-2.0775,-2.0501,-2.0167,-1.992,-1.9646,-1.9424,-1.9412,-1.9726,-2.0173,-2.0281,-2.0608,-2.1109,-2.1109,-2.1109,-2.1082,-2.0788,-2.0494,-2.0194,-1.9907,-1.9619,-1.9424,-1.9424,-1.7455,-1.4718,-1.3108,-1.1499,-1.0119,-0.9879,-0.9822,-0.9822,-0.9822,-0.9822,-0.9751,-0.9459,-0.9381,-0.9306,-0.8952,-0.8716,-0.7875,-0.5363,-0.4639,-0.3689,-0.0896,-0.0336,-0.028,-0.0056,0.0,0.0,0.0,0.0,0.0,0.0,0.0,0.0,0.0,0.0,0.0,0.0,0.0,0.0,0.0,0.0,0.0,0.0,0.0,0.0,0.0,0.0,0.0,0.0,0.0,0.0,0.0,0.0,0.0,-1.5384,-1.6039,-1.652,-1.6019,-1.5701,-1.5551,-1.5551,-1.5596,-1.5667,-1.5667,-1.5139,-1.4665,-1.4665,-1.3758,-1.294,-1.294,-1.4411,-1.5767,-1.6419,-1.8953,-2.08,-2.0852,-2.2541,-2.3728,-2.3893,-2.4102,-2.3741,-2.252,-2.2416,-2.1804,-2.0386,-2.0589,-2.0611,-2.0362,-2.0611,-2.0621,-2.0313,-2.0575,-2.0401,-1.9867,-1.982,-1.9646,-1.943,-1.9626,-1.9913,-2.0247,-2.0501,-2.0795,-2.1109,-2.1109,-2.1109,-2.1082,-2.0788,-2.0494,-2.0194,-1.9907,-1.9619,-1.9424,-1.9424,-1.8169,-1.6374,-1.4777,-1.3168,-1.1559,-1.0179,-0.9822,-0.9822,-0.9822,-0.9822,-0.9751,-0.9459,-0.9381,-0.9306,-0.8952,-0.7931,-0.6924,-0.6478,-0.5363,-0.3968,-0.218,-0.1845,-0.1454,-0.0224,0.0,0.0,0.0,0.0,0.0,0.0,0.0,0.0,0.0,0.0,0.0,0.0,0.0,0.0,0.0,0.0,0.0,0.0,0.0,0.0,0.0,0.0,0.0,0.0,0.0,0.0,0.0,0.0,0.0,-1.5993,-1.6016,-1.5972,-1.5811,-1.6186,-1.6547,-1.6547,-1.6526,-1.6506,-1.6506,-1.6328,-1.62,-1.62,-1.5364,-1.5046,-1.6221,-1.7111,-1.8657,-2.1287,-2.3023,-2.4342,-2.5255,-2.6254,-2.6685,-2.616,-2.6226,-2.5696,-2.4332,-2.416,-2.3859,-2.3081,-2.3021,-2.3014,-2.2864,-2.2857,-2.2348,-2.1204,-2.1346,-2.0872,-1.98,-1.9639,-1.9499,-1.9437,-1.9666,-1.996,-2.0247,-2.0548,-2.0755,-2.0875,-2.0875,-2.0782,-2.0608,-2.0314,-2.012,-1.996,-1.9673,-1.9486,-1.9424,-1.9424,-1.8344,-1.6909,-1.6138,-1.4237,-1.2032,-1.1318,-1.0479,-0.9822,-0.9822,-0.9822,-0.9771,-0.9561,-0.9503,-0.9429,-0.9127,-0.8544,-0.7788,-0.6882,-0.6144,-0.525,-0.3744,-0.3465,-0.3242,-0.2573,-0.1735,-0.1175,-0.1175,-0.0504,0.0,0.0,0.0,0.0,0.0,0.0,0.0,0.0,0.0,0.0,0.0,0.0,0.0,0.0,0.0,0.0,0.0,0.0,0.0,0.0,0.0,0.0,0.0,0.0,0.0,-1.6496,-1.6176,-1.5863,-1.5819,-1.6339,-1.6931,-1.7065,-1.682,-1.662,-1.6693,-1.6991,-1.7199,-1.7199,-1.7067,-1.747,-1.9105,-2.032,-2.2253,-2.5856,-2.6889,-2.7771,-2.8965,-2.9059,-2.867,-2.763,-2.7506,-2.6909,-2.5368,-2.5252,-2.5078,-2.4728,-2.4728,-2.4687,-2.4605,-2.4605,-2.3905,-2.2414,-2.2406,-2.1503,-1.9693,-1.9472,-1.9424,-1.9437,-1.9666,-1.992,-2.0147,-2.0441,-2.0575,-2.0575,-2.0575,-2.0441,-2.014,-1.9913,-1.976,-1.9673,-1.9511,-1.9424,-1.9424,-1.9424,-1.8583,-1.7507,-1.7144,-1.53,-1.3228,-1.2873,-1.1916,-1.0838,-1.0479,-1.0361,-1.0269,-0.9705,-0.9608,-0.954,-0.9326,-0.9262,-0.888,-0.755,-0.7299,-0.6844,-0.531,-0.5027,-0.4916,-0.4582,-0.3242,-0.218,-0.218,-0.0952,0.0,0.0,0.0,0.0,0.0,0.0,0.0,0.0,0.0,0.0,0.0,0.0,0.0,0.0,0.0,0.0,0.0,0.0,0.0,0.0,0.0,0.0,0.0,0.0,0.0168,-1.6425,-1.6729,-1.708,-1.6048,-1.5831,-1.6066,-1.6613,-1.6513,-1.638,-1.6653,-1.6991,-1.7199,-1.7199,-1.8757,-2.0119,-2.0522,-2.4183,-2.7193,-2.7839,-3.0192,-3.1407,-3.0349,-3.0193,-2.9813,-2.8852,-2.88,-2.8273,-2.7038,-2.695,-2.631,-2.4786,-2.4728,-2.4581,-2.4367,-2.4359,-2.4121,-2.3695,-2.3695,-2.2248,-1.9457,-1.9437,-1.9424,-1.9437,-1.9666,-1.9813,-1.9846,-2.014,-2.0267,-2.0267,-2.0267,-2.0193,-2.014,-1.9913,-1.9633,-1.9457,-1.943,-1.9424,-1.9424,-1.9424,-1.9307,-1.9004,-1.7507,-1.6844,-1.6374,-1.4896,-1.4361,-1.3944,-1.2453,-1.2037,-1.1635,-1.0,-0.9608,-0.9568,-0.9405,-0.9364,-0.9323,-0.9054,-0.9024,-0.8527,-0.6887,-0.6533,-0.6086,-0.4751,-0.3242,-0.218,-0.218,-0.0952,0.0,0.0,0.0,0.0,0.0,0.0,0.0,0.0,0.0,0.0,0.0,0.0,0.0,0.0,0.0,0.0,0.0,0.0,0.0,0.0,0.0,0.0,0.0,0.0,0.0728,-1.8177,-1.7549,-1.7081,-1.6629,-1.6332,-1.6259,-1.6847,-1.6945,-1.6951,-1.7194,-1.7341,-1.7782,-1.8793,-1.9863,-2.1515,-2.4413,-2.6597,-2.8876,-3.1614,-3.291,-3.3415,-3.2905,-3.209,-3.1094,-2.9896,-2.9043,-2.8313,-2.7858,-2.7867,-2.7583,-2.6958,-2.6958,-2.6885,-2.6793,-2.6793,-2.6318,-2.5261,-2.5215,-2.4211,-2.2153,-2.2153,-2.2153,-2.2168,-2.2448,-2.2601,-2.2566,-2.1919,-2.1532,-2.122,-2.0305,-1.986,-1.9686,-1.9573,-1.9466,-1.9424,-1.9424,-1.9424,-1.9424,-1.9424,-1.9424,-1.9307,-1.8706,-1.7806,-1.6909,-1.6256,-1.537,-1.4242,-1.2633,-1.2213,-1.184,-1.0173,-0.9741,-0.9703,-0.9557,-0.9523,-0.9483,-0.9327,-0.9354,-0.9161,-0.853,-0.8335,-0.8105,-0.7536,-0.534,-0.3632,-0.3632,-0.1567,0.0,0.0,0.0,0.0,0.0,0.0,0.0,0.0,0.0,0.0,0.0,0.0,0.0,0.0,0.0,0.0,0.0,0.0,0.0,0.0,0.0896,0.1343,0.1399,0.2349,0.3075,-1.9528,-1.8668,-1.8121,-1.7916,-1.765,-1.7663,-1.8297,-1.7793,-1.7286,-1.7522,-1.7943,-1.8719,-2.0338,-2.1417,-2.3199,-2.6714,-2.8486,-3.0604,-3.3909,-3.4775,-3.4872,-3.4434,-3.3563,-3.2241,-3.0473,-2.946,-2.8751,-2.8344,-2.8291,-2.8291,-2.8291,-2.8291,-2.8291,-2.8291,-2.8291,-2.7843,-2.6825,-2.6771,-2.6273,-2.5215,-2.5215,-2.4718,-2.383,-2.403,-2.4145,-2.4105,-2.3273,-2.2771,-2.2425,-2.0965,-2.0,-1.9424,-1.9424,-1.9424,-1.9424,-1.9424,-1.9424,-1.9424,-1.9424,-1.9424,-1.9424,-1.9424,-1.8648,-1.7747,-1.7747,-1.6615,-1.5015,-1.3407,-1.2573,-1.1856,-1.024,-0.9822,-0.9795,-0.97,-0.9676,-0.9635,-0.9486,-0.9415,-0.9367,-0.9317,-0.9188,-0.897,-0.8514,-0.6245,-0.4359,-0.3855,-0.1623,0.0,0.0,0.0,0.0,0.0,0.0,0.0,0.0,0.0448,0.0672,0.0672,0.1176,0.1176,0.0728,0.0672,0.0896,0.14,0.14,0.14,0.14,0.246,0.2905,0.2961,0.4023,0.4751,-2.0167,-2.0153,-2.0544,-1.9895,-1.9899,-2.0309,-2.1031,-1.9127,-1.7331,-1.7574,-1.8708,-2.0033,-2.1448,-2.3546,-2.5459,-2.6807,-3.0008,-3.2783,-3.4227,-3.5559,-3.5906,-3.4581,-3.4434,-3.3315,-3.0618,-3.0317,-2.9765,-2.8441,-2.8344,-2.8344,-2.8344,-2.8344,-2.8291,-2.8291,-2.8291,-2.8291,-2.8291,-2.8291,-2.8291,-2.8291,-2.8291,-2.6726,-2.3822,-2.3822,-2.3822,-2.3822,-2.3822,-2.3822,-2.371,-2.2202,-2.0759,-1.9424,-1.9424,-1.9424,-1.9424,-1.9424,-1.9424,-1.9424,-1.9424,-1.9424,-1.9424,-1.9424,-1.9424,-1.9424,-1.9424,-1.8286,-1.6668,-1.5074,-1.3467,-1.1856,-1.024,-0.9822,-0.9822,-0.9822,-0.9819,-0.9781,-0.9639,-0.949,-0.9337,-0.9241,-0.9039,-0.8436,-0.6982,-0.5475,-0.3967,-0.2459,-0.0952,0.0,0.0,0.0,0.0,0.0,0.0,0.0,0.0,0.1399,0.2235,0.2235,0.3632,0.3799,0.2291,0.2235,0.2961,0.447,0.4526,0.4526,0.4526,0.4528,0.4528,0.4528,0.4528,0.5308,-2.1994,-2.1413,-2.137,-2.0579,-2.0414,-2.0799,-2.2246,-2.1013,-1.9665,-1.995,-2.0561,-2.1499,-2.2868,-2.4937,-2.713,-2.9439,-3.1671,-3.3777,-3.5558,-3.5784,-3.579,-3.5821,-3.4981,-3.408,-3.3266,-3.2292,-3.1531,-3.1122,-3.1122,-3.1122,-3.1122,-3.0214,-2.9713,-2.9713,-2.8804,-2.8291,-2.8291,-2.8291,-2.8291,-2.8291,-2.8291,-2.7843,-2.6952,-2.6952,-2.6952,-2.6888,-2.5882,-2.5434,-2.5206,-2.2645,-2.1926,-2.2266,-2.0206,-2.0033,-2.0809,-1.9758,-1.9424,-1.9424,-1.9424,-1.9424,-1.9424,-1.9424,-1.9424,-1.9424,-1.9424,-1.8286,-1.6668,-1.5074,-1.3467,-1.1856,-1.024,-0.9822,-0.9822,-0.9822,-0.9744,-0.9659,-0.9618,-0.949,-0.9367,-0.932,-0.9191,-0.8633,-0.7097,-0.5514,-0.3967,-0.2459,-0.0952,0.0,0.0,0.0,0.0,0.0,0.0952,0.1566,0.1566,0.2962,0.3799,0.3799,0.4247,0.4303,0.3855,0.3799,0.4023,0.447,0.4526,0.4526,0.4526,0.553,0.6031,0.6089,0.7091,0.782,-2.4357,-2.3729,-2.3706,-2.3567,-2.3522,-2.3847,-2.5092,-2.3881,-2.2693,-2.3526,-2.3828,-2.4352,-2.5721,-2.7201,-2.896,-3.1356,-3.2582,-3.3837,-3.5756,-3.5567,-3.5295,-3.5667,-3.5026,-3.4305,-3.3803,-3.2948,-3.2241,-3.1699,-3.1649,-3.1739,-3.1978,-3.1247,-3.0632,-3.0307,-2.9513,-2.8847,-2.8291,-2.8291,-2.8291,-2.8291,-2.8291,-2.8291,-2.8291,-2.8291,-2.8291,-2.8237,-2.734,-2.6273,-2.5041,-2.3199,-2.2315,-2.1877,-2.0097,-1.9924,-2.0644,-1.97,-1.9424,-1.9424,-1.9424,-1.9424,-1.9424,-1.9424,-1.9424,-1.9424,-1.9424,-1.8286,-1.6668,-1.5074,-1.3467,-1.1856,-1.024,-0.9778,-0.9737,-0.9737,-0.9673,-0.9595,-0.9534,-0.9398,-0.9347,-0.9347,-0.871,-0.7705,-0.6231,-0.4609,-0.3074,-0.1566,-0.056,0.0,0.0,0.0,0.0,0.0,0.0784,0.1343,0.1343,0.2739,0.3576,0.3576,0.4691,0.5083,0.4528,0.5085,0.5641,0.6255,0.6255,0.6255,0.6255,0.7149,0.7595,0.7595,0.8491,0.8602,-2.7054,-2.671,-2.7019,-2.7881,-2.8307,-2.8633,-2.9067,-2.7597,-2.6489,-2.7656,-2.7715,-2.7961,-2.9201,-2.9845,-3.0797,-3.2522,-3.2826,-3.3435,-3.5194,-3.4956,-3.4663,-3.4668,-3.468,-3.4235,-3.299,-3.2885,-3.2359,-3.1151,-3.1055,-3.1258,-3.1758,-3.1683,-3.1313,-3.0595,-3.0358,-2.9724,-2.8644,-2.8412,-2.8305,-2.8495,-2.8266,-2.8193,-2.8232,-2.8271,-2.8291,-2.8291,-2.8252,-2.6689,-2.4211,-2.4044,-2.2435,-1.9982,-1.9707,-1.9591,-1.9591,-1.9424,-1.9424,-1.9424,-1.9424,-1.9424,-1.9424,-1.9424,-1.9424,-1.9424,-1.9424,-1.8286,-1.6668,-1.5048,-1.3439,-1.1827,-1.0201,-0.9686,-0.9585,-0.9571,-0.9568,-0.953,-0.9391,-0.9299,-0.919,-0.919,-0.7841,-0.6255,-0.4751,-0.3242,-0.1677,-0.0224,0.0,0.0,0.0,0.0,0.0,0.0,0.0112,0.0224,0.0224,0.1566,0.2403,0.2403,0.497,0.5919,0.4582,0.5919,0.726,0.8491,0.8491,0.8491,0.8491,0.8491,0.8491,0.8491,0.8491,0.7762,-2.9416,-2.9057,-2.9389,-2.9712,-3.1414,-3.2822,-3.208,-3.232,-3.1908,-2.915,-2.8796,-2.9041,-2.935,-3.0652,-3.1781,-3.2174,-3.304,-3.3936,-3.4781,-3.4424,-3.4236,-3.4675,-3.468,-3.4577,-3.4293,-3.4293,-3.4144,-3.3857,-3.3857,-3.3906,-3.4017,-3.3005,-3.2568,-3.2779,-3.0773,-3.0247,-3.1418,-2.902,-2.8518,-2.9859,-2.8107,-2.7471,-2.7812,-2.8144,-2.8291,-2.8271,-2.7949,-2.7651,-2.7222,-2.61,-2.5215,-2.4433,-2.2032,-2.1145,-2.0981,-1.9815,-1.9424,-1.9424,-1.9424,-1.9424,-1.9424,-1.9424,-1.9424,-1.9424,-1.9424,-1.8286,-1.6628,-1.4913,-1.3283,-1.1669,-0.9911,-0.9452,-0.9401,-0.9337,-0.9309,-0.9299,-0.9265,-0.9089,-0.8984,-0.8984,-0.7727,-0.6255,-0.4751,-0.3242,-0.1677,-0.0224,0.0,0.0,0.0,0.0,0.0,0.0,0.1064,0.1733,0.1733,0.313,0.4023,0.4023,0.4637,0.4804,0.4528,0.5919,0.6311,0.5475,0.5475,0.5475,0.5475,0.5475,0.5475,0.5475,0.5475,0.5252,-3.1515,-3.1633,-3.2288,-3.2345,-3.387,-3.5133,-3.4204,-3.4359,-3.4103,-3.2031,-3.136,-3.1146,-3.1146,-3.193,-3.2665,-3.2922,-3.3263,-3.3696,-3.4248,-3.3859,-3.3608,-3.3897,-3.3935,-3.3935,-3.3935,-3.3935,-3.3935,-3.3935,-3.3935,-3.3813,-3.3465,-3.2815,-3.209,-3.1379,-2.9988,-2.9415,-2.9758,-2.8154,-2.7803,-2.8716,-2.7566,-2.7139,-2.7363,-2.7578,-2.7685,-2.7676,-2.7451,-2.7087,-2.6576,-2.5806,-2.504,-2.417,-2.1938,-2.1059,-2.09,-1.9491,-1.8945,-1.8945,-1.8945,-1.8945,-1.8945,-1.8945,-1.8945,-1.8945,-1.8945,-1.8356,-1.7387,-1.5692,-1.462,-1.3385,-1.0997,-1.0345,-1.0091,-0.9394,-0.921,-0.919,-0.9066,-0.8991,-0.8885,-0.8885,-0.7706,-0.6478,-0.5697,-0.3687,-0.1677,-0.0224,0.0,0.0,0.0,0.0,0.0,0.0,0.0672,0.1119,0.1119,0.1902,0.2349,0.2349,0.3018,0.3074,0.2349,0.3742,0.4524,0.4526,0.4526,0.4526,0.4526,0.4526,0.4526,0.4526,0.4526,0.408,-3.3332,-3.4031,-3.5119,-3.5383,-3.6131,-3.6606,-3.5906,-3.5401,-3.4968,-3.4761,-3.3839,-3.3124,-3.3124,-3.3124,-3.3275,-3.3684,-3.337,-3.3232,-3.3696,-3.337,-3.3124,-3.3124,-3.3124,-3.3124,-3.3124,-3.3124,-3.3025,-3.2797,-3.2797,-3.2448,-3.1683,-3.1616,-3.0903,-2.9249,-2.8965,-2.8483,-2.7693,-2.7188,-2.7035,-2.7348,-2.7035,-2.6865,-2.6797,-2.6797,-2.6875,-2.7012,-2.6943,-2.625,-2.5185,-2.5185,-2.4289,-2.2802,-2.1679,-2.1086,-2.0661,-1.9339,-1.8864,-1.8809,-1.8601,-1.849,-1.849,-1.849,-1.849,-1.849,-1.849,-1.849,-1.8138,-1.6542,-1.6078,-1.5384,-1.2522,-1.172,-1.1325,-1.0167,-0.9725,-0.9416,-0.8964,-0.8885,-0.8885,-0.8885,-0.7706,-0.6647,-0.6366,-0.4244,-0.218,-0.0952,-0.0784,-0.0784,-0.0784,-0.056,-0.0392,-0.0392,-0.0392,-0.028,0.0,-0.0504,-0.0672,-0.0392,0.0503,0.0503,-0.0728,0.0391,0.1619,0.2902,0.3182,0.3238,0.2958,0.2958,0.2958,0.2958,0.2958,0.2288,-3.4603,-3.5618,-3.7198,-3.859,-3.8606,-3.8199,-3.7733,-3.7055,-3.6168,-3.4954,-3.3839,-3.3124,-3.3124,-3.3124,-3.3106,-3.3224,-3.3174,-3.3149,-3.3224,-3.3174,-3.3124,-3.3124,-3.3124,-3.3124,-3.3124,-3.3124,-3.2655,-3.1545,-3.1456,-3.0935,-2.9829,-2.9783,-2.9871,-3.0036,-2.8914,-2.902,-3.0429,-2.7798,-2.7232,-2.8695,-2.7222,-2.6269,-2.5859,-2.5859,-2.6318,-2.6992,-2.6631,-2.6569,-2.6695,-2.6695,-2.5834,-2.449,-2.428,-2.343,-2.2055,-2.0723,-2.0233,-2.0077,-1.8919,-1.849,-1.849,-1.849,-1.849,-1.849,-1.849,-1.849,-1.8147,-1.6423,-1.5912,-1.5476,-1.3565,-1.3059,-1.2985,-1.2822,-1.1796,-1.0484,-0.9161,-0.8885,-0.8885,-0.8885,-0.7706,-0.6311,-0.5027,-0.447,-0.4136,-0.3913,-0.3913,-0.3913,-0.3913,-0.2739,-0.1901,-0.1901,-0.1901,-0.1399,-0.0112,-0.2405,-0.3353,-0.2012,-0.2961,-0.3687,-0.3913,-0.3687,-0.3518,-0.3294,-0.201,-0.1954,-0.3294,-0.3294,-0.3294,-0.3294,-0.3294,-0.3405,-3.677,-3.7214,-3.7706,-3.9308,-3.9519,-3.916,-3.859,-3.7952,-3.731,-3.6669,-3.562,-3.4485,-3.3313,-3.3598,-3.3797,-3.3197,-3.3124,-3.3124,-3.3124,-3.3641,-3.3995,-3.3995,-3.3698,-3.3633,-3.3956,-3.2546,-3.1494,-3.1243,-3.0586,-2.9681,-2.8448,-2.8412,-2.8181,-2.7681,-2.7087,-2.7189,-2.8042,-2.6673,-2.6399,-2.7138,-2.6389,-2.5918,-2.5693,-2.5693,-2.5888,-2.6239,-2.6103,-2.6133,-2.6249,-2.6249,-2.5881,-2.5252,-2.4468,-2.379,-2.3023,-2.1663,-2.0678,-1.9902,-1.9341,-1.8614,-1.7983,-1.7983,-1.7983,-1.7983,-1.7983,-1.7983,-1.7842,-1.7047,-1.6842,-1.6489,-1.4905,-1.4502,-1.4288,-1.348,-1.2783,-1.2132,-1.1483,-1.0076,-0.8885,-0.8885,-0.838,-0.7482,-0.5975,-0.5753,-0.5475,-0.4639,-0.4526,-0.4526,-0.4526,-0.3911,-0.3463,-0.3463,-0.3463,-0.3242,-0.2573,-0.3745,-0.4191,-0.3521,-0.4136,-0.4526,-0.4526,-0.4526,-0.4916,-0.5697,-0.4246,-0.3799,-0.4526,-0.4526,-0.4526,-0.4526,-0.4526,-0.4526,-3.7894,-3.7912,-3.7655,-3.953,-3.9783,-3.9484,-3.9159,-3.8763,-3.8459,-3.8355,-3.7799,-3.669,-3.4584,-3.4706,-3.4815,-3.4024,-3.3911,-3.3911,-3.3911,-3.4581,-3.5088,-3.5088,-3.4687,-3.4446,-3.4495,-3.2298,-3.0786,-3.0543,-2.9444,-2.8272,-2.7163,-2.7125,-2.6668,-2.5732,-2.5693,-2.5693,-2.5693,-2.5693,-2.5693,-2.5693,-2.5693,-2.5693,-2.5684,-2.6062,-2.6014,-2.5693,-2.5693,-2.5693,-2.5693,-2.5693,-2.5693,-2.5586,-2.4609,-2.4196,-2.4048,-2.2717,-2.155,-2.059,-2.0231,-1.9213,-1.8146,-1.8551,-1.8146,-1.7687,-1.7989,-1.7891,-1.7582,-1.7582,-1.7582,-1.7364,-1.6227,-1.5956,-1.5689,-1.4663,-1.4126,-1.375,-1.3372,-1.1592,-0.9915,-0.9537,-0.975,-0.9523,-0.8082,-0.7805,-0.7467,-0.6354,-0.5859,-0.5641,-0.5641,-0.5308,-0.5085,-0.5085,-0.5085,-0.4916,-0.4528,-0.5196,-0.5475,-0.5085,-0.5419,-0.5641,-0.5641,-0.5641,-0.6142,-0.726,-0.62,-0.5641,-0.5641,-0.5641,-0.5641,-0.5641,-0.5641,-0.5641,-3.6894,-3.7112,-3.7274,-3.9893,-3.96,-3.8866,-3.9677,-3.9836,-3.9691,-3.9298,-3.9887,-3.9823,-3.7653,-3.6648,-3.6079,-3.6053,-3.6053,-3.6053,-3.6053,-3.6093,-3.6119,-3.6119,-3.6091,-3.5515,-3.4006,-3.2767,-3.1156,-2.8924,-2.7685,-2.6661,-2.5849,-2.5781,-2.5781,-2.5693,-2.5693,-2.5693,-2.5693,-2.5693,-2.5693,-2.5693,-2.5693,-2.5693,-2.5732,-2.6935,-2.6849,-2.5693,-2.5693,-2.5693,-2.5693,-2.5693,-2.5693,-2.5684,-2.5635,-2.5586,-2.543,-2.4097,-2.3534,-2.3276,-2.2055,-2.0692,-1.9731,-2.1041,-1.9723,-1.7838,-1.9117,-1.861,-1.7582,-1.7582,-1.7582,-1.7582,-1.7529,-1.7477,-1.7477,-1.7364,-1.6333,-1.4936,-1.3588,-1.3156,-1.2674,-1.1269,-1.2132,-1.262,-1.1156,-1.0887,-1.0832,-1.0773,-0.9585,-0.866,-0.866,-0.7426,-0.6589,-0.6589,-0.6589,-0.6031,-0.4637,-0.7038,-0.81,-0.67,-0.7875,-0.866,-0.866,-0.866,-0.8716,-0.8771,-0.8716,-0.866,-0.866,-0.866,-0.866,-0.866,-0.866,-0.866,-3.6416,-3.6938,-3.7378,-3.9352,-3.9729,-3.9668,-3.9739,-4.0203,-4.0564,-4.0428,-4.0609,-4.0746,-4.0427,-3.8301,-3.6362,-3.5723,-3.562,-3.562,-3.562,-3.6536,-3.7228,-3.7228,-3.6912,-3.6332,-3.5433,-3.3344,-3.1266,-2.924,-2.8014,-2.6855,-2.5771,-2.5693,-2.5693,-2.5693,-2.5693,-2.5693,-2.5693,-2.6524,-2.6897,-2.6945,-2.7709,-2.8075,-2.8075,-2.8541,-2.8495,-2.8075,-2.8075,-2.7163,-2.5693,-2.5693,-2.5693,-2.5693,-2.5693,-2.5693,-2.5635,-2.5177,-2.4461,-2.3633,-2.3126,-2.2106,-2.1041,-2.155,-2.1041,-2.0333,-2.0786,-1.9981,-1.8864,-1.8864,-1.8244,-1.7582,-1.7582,-1.7582,-1.7582,-1.7582,-1.7199,-1.6658,-1.6174,-1.4615,-1.3156,-1.262,-1.2945,-1.3107,-1.262,-1.2512,-1.2512,-1.2512,-1.2077,-1.1701,-1.1701,-1.1252,-1.0916,-1.0916,-1.0916,-1.0744,-1.0186,-1.1139,-1.1474,-1.0971,-1.142,-1.1701,-1.1701,-1.1701,-1.1701,-1.1701,-1.1701,-1.0781,-0.8885,-0.8885,-0.8885,-0.8885,-0.8885,-0.8885,-3.5838,-3.6433,-3.6955,-3.858,-3.9065,-3.9279,-3.9874,-4.0429,-4.098,-4.1531,-4.1409,-4.1385,-4.1887,-3.9696,-3.7594,-3.6895,-3.6582,-3.6392,-3.6338,-3.7313,-3.8098,-3.8316,-3.8018,-3.743,-3.6567,-3.4126,-3.1779,-2.9824,-2.8234,-2.6876,-2.5771,-2.5693,-2.5693,-2.5693,-2.5693,-2.5927,-2.6342,-2.7173,-2.7814,-2.8226,-2.9004,-2.9407,-2.9407,-2.9818,-2.9761,-2.9407,-2.9818,-2.8855,-2.6935,-2.6524,-2.6342,-2.6294,-2.5878,-2.5693,-2.5693,-2.5693,-2.5118,-2.4353,-2.4353,-2.3484,-2.2458,-2.2918,-2.2408,-2.1803,-2.2206,-2.1049,-1.9576,-1.9576,-1.8603,-1.7582,-1.7582,-1.7582,-1.7582,-1.7582,-1.7582,-1.7582,-1.7582,-1.6121,-1.4615,-1.4126,-1.4395,-1.4615,-1.4073,-1.4019,-1.4019,-1.4019,-1.3588,-1.3318,-1.3318,-1.3318,-1.3318,-1.3318,-1.3318,-1.3318,-1.3318,-1.3318,-1.3318,-1.3318,-1.3318,-1.3318,-1.3318,-1.3318,-1.3318,-1.3318,-1.3318,-1.2349,-1.0406,-1.0406,-1.0406,-1.0406,-1.0406,-1.0406,0.0,0.0,0.0,-3.7734,-3.7595,-3.7649,-4.0026,-4.0485,-4.0884,-4.2524,-4.2324,-4.1888,-4.1955,-4.0877,-3.9924,-3.9776,-3.9142,-3.8626,-3.8497,-3.8497,-3.8767,-3.9406,-3.9481,-3.8837,-3.72,-3.5179,-3.2939,-3.045,-2.8243,-2.6651,-2.581,-2.5742,-2.5693,-2.5693,-2.5742,-2.6342,-2.7589,-2.7683,-2.8272,-2.9453,-2.9498,-2.9498,-2.9544,-3.0721,-3.0631,-2.959,-3.0765,-3.0586,-2.9407,-2.8179,-2.7636,-2.7542,-2.6245,-2.5781,-2.5732,-2.5684,-2.5693,-2.5693,-2.5693,-2.4864,-2.3949,-2.5274,-2.3939,-2.2055,-2.3384,-2.1862,-1.9731,-1.9731,-1.876,-1.7687,-1.7687,-1.7635,-1.7582,-1.7582,-1.7582,-1.7582,-1.7582,-1.7582,-1.7206,-1.5743,-1.6605,-1.7147,-1.5689,-1.547,-1.547,-1.547,-1.4288,-1.3426,-1.3426,-1.3426,-1.3426,-1.3426,-1.3426,-1.3426,-1.3426,-1.3426,-1.3426,-1.3426,-1.348,-1.348,-1.348,-1.3529,-1.3529,-1.3529,-1.3529,-1.3529,-1.3529,-1.3372,-1.3318,-1.3318,-1.3318,-1.3318,-3.4432,0.0,0.0,0.0,0.0,0.0,-3.943,-3.9276,-3.9376,-4.158,-4.1402,-4.1417,-4.3103,-4.2351,-4.1454,-4.1382,-4.0792,-4.0325,-4.0291,-4.0715,-4.106,-4.1264,-4.128,-4.0551,-3.8686,-3.7967,-3.6074,-3.2359,-3.0687,-2.9058,-2.7163,-2.6197,-2.5693,-2.5693,-2.6572,-2.7268,-2.7589,-2.9315,-3.0361,-3.0721,-3.1645,-3.2064,-3.2108,-3.2426,-3.2382,-3.2108,-3.2426,-3.2382,-3.1921,-2.9772,-2.8912,-2.8773,-2.7542,-2.7078,-2.6945,-2.6062,-2.5693,-2.5693,-2.5693,-2.5479,-2.5226,-2.5586,-2.5177,-2.4658,-2.502,-2.3949,-2.2576,-2.2576,-2.16,-2.0333,-1.9317,-1.8349,-1.7582,-1.7582,-1.7582,-1.7582,-1.7582,-1.7582,-1.747,-1.7094,-1.7312,-1.7477,-1.7041,-1.6988,-1.6988,-1.6988,-1.6664,-1.6393,-1.6393,-1.6393,-1.6393,-1.6393,-1.6393,-1.6393,-1.6393,-1.6393,-1.6393,-1.6393,-1.7312,-1.7875,-1.7875,-1.8837,-1.9391,-1.9391,-1.9391,-1.9391,-1.9391,-1.5317,-1.3318,-1.3318,-1.3318,-1.3857,-3.4734,-3.5057,-3.5498,-3.6782,0.0,0.0,-3.8869,-3.8654,-3.8743,-4.1403,-4.1388,-4.1403,-4.3134,-4.289,-4.2422,-4.2368,-4.2598,-4.2323,-4.1174,-4.1341,-4.1709,-4.1965,-4.1674,-4.0999,-3.9878,-3.9026,-3.7334,-3.4345,-3.2644,-3.0475,-2.7482,-2.6147,-2.5459,-2.5459,-2.6843,-2.7814,-2.8366,-3.0271,-3.1456,-3.2008,-3.2754,-3.3124,-3.3124,-3.3124,-3.3124,-3.3124,-3.3124,-3.2943,-3.2619,-3.1165,-3.026,-2.9702,-2.8732,-2.82,-2.7911,-2.6873,-2.6476,-2.6438,-2.5868,-2.5693,-2.5693,-2.5693,-2.5693,-2.5693,-2.5693,-2.4766,-2.3692,-2.3692,-2.2717,-2.1397,-1.9981,-1.9472,-1.9005,-1.7891,-1.8048,-1.8297,-1.774,-1.7488,-1.7494,-1.7555,-1.7582,-1.7582,-1.7582,-1.7582,-1.7582,-1.7582,-1.7582,-1.7582,-1.7582,-1.7582,-1.7786,-1.8349,-1.8454,-1.8655,-1.9265,-1.9317,-1.9317,-1.9317,-2.0025,-2.0487,-2.0487,-2.1245,-2.1702,-2.1702,-2.1702,-2.1627,-2.142,-1.8107,-1.6445,-1.6285,-1.6445,-1.6925,-3.5453,-3.4974,-3.465,-3.6464,-3.5792,0.0,-3.8199,-3.8159,-3.8353,-4.1222,-4.1318,-4.118,-4.2121,-4.2463,-4.2562,-4.2473,-4.3841,-4.4111,-4.1802,-4.1527,-4.1805,-4.2328,-4.1724,-4.1149,-4.0878,-3.9281,-3.7713,-3.6303,-3.4084,-3.1148,-2.7288,-2.5969,-2.5228,-2.5047,-2.6707,-2.8157,-2.9239,-3.0615,-3.1867,-3.298,-3.3202,-3.3245,-3.3182,-3.3182,-3.3144,-3.3051,-3.2965,-3.2604,-3.2127,-3.2127,-3.1459,-3.0446,-2.9701,-2.9105,-2.8645,-2.7868,-2.7609,-2.7432,-2.6192,-2.5731,-2.5741,-2.5644,-2.5615,-2.5625,-2.5674,-2.4864,-2.3939,-2.3939,-2.2968,-2.1643,-2.0338,-2.068,-2.0766,-1.8303,-1.8504,-1.8963,-1.7743,-1.7333,-1.7226,-1.7435,-1.7482,-1.7482,-1.7482,-1.7482,-1.7548,-1.7732,-1.7791,-1.785,-1.8042,-1.7937,-1.8297,-1.9472,-1.9472,-1.9878,-2.1143,-2.1245,-2.1296,-2.1448,-2.16,-2.1727,-2.1845,-2.1996,-2.2072,-2.1979,-2.1979,-2.1744,-2.1325,-2.1073,-2.0737,-2.0393,-2.0753,-2.0942,-3.4654,-3.4377,-3.4454,-3.5537,-3.5251,0.0,-3.6789,-3.6206,-3.5987,-3.8274,-3.8155,-3.8062,-3.9545,-4.025,-4.0427,-3.9782,-4.1692,-4.3522,-4.4286,-4.4933,-4.5225,-4.4854,-4.4664,-4.3817,-4.1933,-4.1413,-4.0121,-3.7629,-3.4548,-3.1447,-2.8344,-2.7133,-2.5946,-2.4597,-2.6674,-2.7955,-2.8164,-3.0735,-3.2154,-3.239,-3.372,-3.411,-3.3584,-3.3639,-3.3378,-3.2827,-3.2057,-3.165,-3.1549,-3.1549,-3.1426,-3.1083,-3.0012,-2.9507,-2.9254,-2.812,-2.7679,-2.7501,-2.6421,-2.6032,-2.5911,-2.5409,-2.5195,-2.5264,-2.5577,-2.5528,-2.5333,-2.5333,-2.4353,-2.3155,-2.2493,-2.1023,-1.9466,-1.8561,-1.776,-1.717,-1.6924,-1.6827,-1.6807,-1.6867,-1.6881,-1.6881,-1.6881,-1.6881,-1.7353,-1.8702,-1.8891,-1.9379,-2.0754,-1.993,-1.9324,-1.9576,-1.8603,-1.8094,-1.8401,-1.8401,-1.8857,-1.993,-2.1092,-2.2021,-2.2717,-2.3844,-2.424,-2.389,-2.389,-2.3682,-2.3229,-2.1397,-2.0499,-2.0377,-2.0499,-2.0532,-3.5177,-3.4535,-3.4234,-3.5249,-3.4962,0.0,0.0,-3.5783,-3.5838,-3.7722,-3.7673,-3.7668,-3.8882,-3.9371,-3.9605,-3.9601,-4.1508,-4.3267,-4.409,-4.5132,-4.5847,-4.5937,-4.5286,-4.422,-4.2621,-4.1789,-4.0355,-3.7965,-3.5114,-3.2222,-2.9266,-2.7216,-2.5515,-2.4157,-2.6579,-2.7885,-2.7885,-3.0477,-3.2035,-3.2487,-3.3326,-3.3834,-3.3987,-3.4039,-3.3877,-3.3478,-3.2528,-3.1949,-3.1652,-3.1185,-3.0834,-3.0605,-3.0536,-3.0326,-2.9966,-2.8997,-2.8651,-2.848,-2.7316,-2.6885,-2.6829,-2.6536,-2.6382,-2.6343,-2.6011,-2.5493,-2.5031,-2.5031,-2.4584,-2.3839,-2.2949,-2.2263,-2.1383,-1.9796,-1.9521,-1.9375,-1.869,-1.8416,-1.8297,-1.8297,-1.8171,-1.7978,-1.7676,-1.7584,-1.8173,-1.9825,-2.008,-2.0498,-2.1551,-2.1092,-2.0896,-2.1558,-2.1041,-2.0896,-2.1558,-2.1049,-2.1202,-2.2576,-2.2676,-2.3098,-2.4,-2.4726,-2.4863,-2.4424,-2.4209,-2.4004,-2.3789,-2.2419,-2.1768,-2.1768,-2.1965,-2.211,-3.5639,-3.4592,-3.3818,-3.4896,-3.4561,-3.4239,0.0,0.0,0.0,-3.7422,-3.7457,-3.7473,-3.8119,-3.838,-3.8609,-3.9066,-4.1014,-4.2485,-4.2485,-4.383,-4.5058,-4.5664,-4.5124,-4.4163,-4.2812,-4.1597,-4.0254,-3.8723,-3.6432,-3.369,-3.0445,-2.77,-2.5434,-2.3707,-2.6237,-2.7648,-2.7648,-3.0199,-3.1909,-3.2659,-3.3154,-3.3756,-3.4427,-3.4413,-3.4344,-3.421,-3.3167,-3.2532,-3.2055,-3.11,-3.0481,-3.0125,-3.0813,-3.0834,-3.0376,-2.9857,-2.963,-2.9451,-2.8225,-2.7798,-2.7766,-2.7608,-2.7654,-2.7524,-2.6663,-2.5788,-2.4981,-2.4772,-2.4726,-2.4431,-2.3038,-2.3298,-2.3363,-2.1092,-2.1225,-2.1564,-2.0458,-1.9991,-1.9832,-1.9832,-1.9808,-1.9561,-1.8839,-1.8697,-1.9241,-2.0939,-2.1193,-2.1425,-2.2143,-2.2054,-2.2355,-2.3476,-2.3439,-2.3741,-2.4815,-2.3939,-2.3899,-2.5226,-2.423,-2.3999,-2.4914,-2.5009,-2.4973,-2.4786,-2.4267,-2.4009,-2.4009,-2.3389,-2.3091,-2.3101,-2.3496,-2.3662,-3.4663,-3.3574,-3.2944,-3.3787,-3.3556,-3.3354,-3.4197,0.0,-3.4962,-3.537,0.0,-3.5084,-3.5179,0.0,0.0,-3.5037,-3.772,-3.9917,-3.9917,-4.1948,-4.3416,-4.3396,-4.518,-4.5247,-4.2216,-4.17,-4.1583,-4.1514,-3.9493,-3.6525,-3.2503,-3.0334,-2.7355,-2.332,-2.5444,-2.664,-2.664,-3.0175,-3.199,-3.2105,-3.4441,-3.5296,-3.4825,-3.4902,-3.4587,-3.3988,-3.3014,-3.258,-3.2453,-3.1532,-3.1097,-3.0983,-3.0279,-2.993,-2.9892,-2.9825,-2.9772,-2.9591,-2.8447,-2.8061,-2.797,-2.7344,-2.7386,-2.7688,-2.7568,-2.7426,-2.7129,-2.6193,-2.5889,-2.5581,-2.4036,-2.2977,-2.2089,-2.1383,-2.0479,-1.9804,-1.962,-1.9579,-1.9554,-1.9554,-2.0307,-2.0578,-1.9541,-1.9382,-1.9975,-2.1618,-2.1874,-2.2436,-2.3879,-2.3384,-2.2908,-2.3062,-2.2419,-2.2005,-2.2156,-2.2005,-2.2517,-2.384,-2.3407,-2.3516,-2.4456,-2.469,-2.5296,-2.6223,-2.5232,-2.47,-2.47,-2.3614,-2.3091,-2.3091,-2.3149,-2.3169,-3.447,-3.3753,-3.3385,-3.3715,-3.3753,-3.379,-3.4125,-3.4574,-3.4963,-3.5079,0.0,0.0,0.0,0.0,0.0,0.0,-3.7224,-3.8622,-3.8622,-4.0358,-4.2117,-4.3431,-4.4155,-4.3969,-4.2473,-4.1876,-4.2024,-4.3032,-4.0651,-3.7668,-3.4299,-3.2086,-2.9112,-2.5189,-2.6625,-2.77,-2.8239,-3.042,-3.2082,-3.3159,-3.4256,-3.496,-3.5266,-3.5284,-3.5137,-3.4806,-3.3856,-3.3415,-3.3345,-3.2393,-3.1997,-3.1924,-3.0983,-3.0279,-2.9792,-2.9792,-2.9792,-2.974,-2.9236,-2.9106,-2.9025,-2.8755,-2.8327,-2.7944,-2.7944,-2.7486,-2.6908,-2.6462,-2.6334,-2.6162,-2.553,-2.452,-2.3588,-2.3391,-2.294,-2.2581,-2.2581,-2.3085,-2.3551,-2.3551,-2.3917,-2.4077,-2.3627,-2.2949,-2.279,-2.3821,-2.4537,-2.5412,-2.6658,-2.6478,-2.6083,-2.5724,-2.5363,-2.4837,-2.4088,-2.3335,-2.3434,-2.4766,-2.483,-2.4858,-2.498,-2.5487,-2.6016,-2.6483,-2.6016,-2.5797,-2.5797,-2.4628,-2.4082,-2.4082,-2.343,-2.3091,-3.4222,-3.3634,-3.3238,-3.3697,-3.3845,-3.3962,-3.4266,-3.4486,-3.4731,-3.5125,-3.4956,0.0,0.0,0.0,-3.5381,-3.5885,0.0,-3.7738,-3.7969,-3.9046,-4.0509,-4.2342,-4.2712,-4.2977,-4.3424,-4.2621,-4.2624,-4.4,-4.1571,-3.8838,-3.606,-3.3684,-3.0809,-2.729,-2.7785,-2.8552,-2.949,-3.0891,-3.2393,-3.3993,-3.4279,-3.4791,-3.5504,-3.5504,-3.5504,-3.5472,-3.4725,-3.4394,-3.4327,-3.3394,-3.2996,-3.2855,-3.1669,-3.0758,-3.0139,-2.9895,-2.9792,-2.9792,-2.9792,-2.9792,-2.9792,-2.9792,-2.9236,-2.8557,-2.8557,-2.8039,-2.7342,-2.7046,-2.6924,-2.6883,-2.6595,-2.5891,-2.5252,-2.5252,-2.5252,-2.5252,-2.5252,-2.5933,-2.6524,-2.6524,-2.6719,-2.6842,-2.6554,-2.5721,-2.5263,-2.5626,-2.6527,-2.7415,-2.8142,-2.8466,-2.8464,-2.8,-2.774,-2.722,-2.6294,-2.5001,-2.4701,-2.5754,-2.5997,-2.6108,-2.613,-2.6651,-2.7098,-2.7383,-2.7087,-2.6924,-2.6924,-2.5493,-2.4787,-2.4787,-2.3637,-2.3091,-3.3674,-3.2664,-3.1856,-3.3403,-3.342,-3.3329,-3.4434,-3.4051,-3.3838,-3.5203,-3.4619,-3.4094,-3.4952,-3.5304,-3.541,-3.5176,-3.6029,0.0,0.0,-3.8046,-3.83,-3.8899,-4.0953,-4.313,-4.5205,-4.4217,-4.375,-4.452,-4.2739,-4.0478,-3.7862,-3.5317,-3.238,-2.9013,-2.8406,-2.8552,-2.949,-3.1516,-3.3031,-3.4027,-3.4986,-3.5472,-3.5504,-3.5504,-3.5504,-3.5504,-3.5472,-3.5457,-3.5359,-3.4361,-3.3959,-3.3774,-3.1924,-3.118,-3.1044,-3.0139,-2.9792,-2.9792,-2.9792,-2.9792,-2.9792,-2.9792,-2.9792,-2.9753,-2.9753,-2.9702,-2.9456,-2.8347,-2.8056,-2.7804,-2.676,-2.6483,-2.6442,-2.6442,-2.6442,-2.6442,-2.6442,-2.6483,-2.6524,-2.6524,-2.7319,-2.7735,-2.6678,-2.6472,-2.6431,-2.6453,-2.6951,-2.7307,-2.7341,-2.8184,-2.8791,-2.8757,-2.805,-2.7589,-2.7542,-2.638,-2.5734,-2.6083,-2.609,-2.6683,-2.7955,-2.8056,-2.8557,-2.9663,-2.8597,-2.8056,-2.8044,-2.5859,-2.4787,-2.4787,-2.3637,-2.3091,-3.2156,-3.1806,-3.1672,-3.2742,-3.2995,-3.3189,-3.3938,-3.3735,-3.3696,-3.4745,-3.4338,-3.412,-3.5174,-3.5439,-3.546,-3.5376,-3.5669,-3.6,0.0,-3.6788,-3.7533,-3.8613,-3.9754,-4.1162,-4.3001,-4.281,-4.3343,-4.5188,-4.3644,-4.1795,-3.9948,-3.7933,-3.5409,-3.229,-3.1458,-3.1516,-3.2475,-3.3178,-3.4027,-3.4986,-3.5359,-3.5504,-3.5504,-3.5504,-3.5504,-3.5504,-3.5504,-3.5504,-3.5472,-3.5133,-3.4986,-3.4872,-3.3567,-3.2664,-3.1924,-3.0394,-2.9792,-2.9895,-3.052,-3.0733,-3.0833,-3.1439,-3.1659,-3.1659,-3.1659,-3.1659,-3.1573,-3.1188,-3.1101,-3.0976,-3.0615,-3.0011,-2.949,-2.949,-2.949,-2.949,-2.949,-3.0049,-3.0352,-2.9706,-3.0391,-3.0766,-2.9795,-2.9616,-2.9151,-2.7763,-2.8652,-2.9622,-2.9961,-3.1236,-3.1667,-3.0505,-3.0755,-3.0297,-2.8404,-2.7891,-2.753,-2.7327,-2.833,-2.8688,-2.8103,-2.9159,-2.9777,-2.9792,-2.9404,-2.9236,-2.9236,-2.7735,-2.6971,-2.693,-2.5073,-2.3844,-3.1323,-3.1195,-3.1164,-3.1971,-3.2366,-3.2739,-3.3377,-3.3239,-3.3327,-3.4576,-3.4286,-3.4144,-3.5299,-3.55,-3.55,-3.55,-3.55,-3.55,0.0,-3.6192,-3.7018,-3.7891,-3.9099,-4.0469,-4.2032,-4.2071,-4.2841,-4.4878,-4.3699,-4.2537,-4.1769,-3.9598,-3.7355,-3.5078,-3.3431,-3.3066,-3.3993,-3.3993,-3.4393,-3.5145,-3.5385,-3.5385,-3.5145,-3.5385,-3.5504,-3.5504,-3.5504,-3.5504,-3.5504,-3.5504,-3.5504,-3.5392,-3.4394,-3.3636,-3.289,-3.0983,-3.0317,-3.0419,-3.1365,-3.1706,-3.1815,-3.2393,-3.2593,-3.2593,-3.2593,-3.2593,-3.2593,-3.2593,-3.2593,-3.2593,-3.2593,-3.2073,-3.1585,-3.1585,-3.1585,-3.1585,-3.1585,-3.2109,-3.2429,-3.1815,-3.2177,-3.2429,-3.1815,-3.1706,-3.1251,-2.9897,-3.0711,-3.169,-3.237,-3.3741,-3.4203,-3.3098,-3.2709,-3.1369,-2.8521,-2.8266,-2.8274,-2.8208,-2.9223,-2.9481,-2.8736,-2.9752,-3.0156,-2.9804,-2.9792,-2.9792,-2.9792,-2.8648,-2.8096,-2.8044,-2.5683,-2.4187]},{"header":{"parameterUnit":"m.s-1","parameterCategory":1,"la1":30.6,"la2":29.2853,"lo1":-89.7004,"lo2":-87.6739,"dy":0.0162,"dx":0.0183,"nx":112,"ny":82,"refTime":"2026-05-08T00:00:00:Z","depth":0,"parameterNumber":3,"parameterNumberName":"V-component_of_WINDS"},"data":[0.0,0.0,0.0,0.0,0.0,0.0,0.0,0.0,0.0,0.0,0.0,0.0,0.0,0.0,0.0,0.0,0.0,0.0,0.0,0.0,0.0,0.0,0.0,0.0,0.0,0.0,0.0,0.0,0.0,0.0,0.0,0.0,0.0,0.0,0.0,0.0,0.0,0.0,0.0,0.0,0.0,0.0,0.0,0.0,0.0,0.0,0.0,0.0,0.0,0.0,0.0,0.0,0.0,0.0,0.0,0.0,0.0,0.0,0.0,0.0,0.0,0.0,0.0,0.0,0.0,0.0,0.0,0.0,0.0,0.0,0.0,0.0,0.0,0.0,0.0,0.0,0.0,0.0,0.0,0.0,0.0,0.0,0.0,0.0,0.0,0.0,0.0,0.0,0.0,0.0,2.876,2.7948,2.7064,2.6943,2.7899,2.8798,2.8951,2.8161,0.0,0.0,0.0,0.0,0.0,0.0,0.0,0.0,0.0,0.0,0.0,0.0,0.0,0.0,0.0,0.0,0.0,0.0,0.0,0.0,0.0,0.0,0.0,0.0,0.0,0.0,0.0,0.0,0.0,0.0,0.0,0.0,0.0,0.0,0.0,0.0,0.0,0.0,0.0,0.0,0.0,0.0,0.0,0.0,0.0,0.0,0.0,0.0,0.0,0.0,0.0,0.0,0.0,0.0,0.0,0.0,0.0,0.0,0.0,0.0,0.0,0.0,0.0,0.0,0.0,0.0,0.0,0.0,0.0,0.0,0.0,0.0,0.0,0.0,0.0,0.0,0.0,0.0,0.0,0.0,0.0,0.0,0.0,0.0,0.0,0.0,0.0,0.0,0.0,0.0,0.0,0.0,0.0,0.0,0.0,0.0,0.0,0.0,0.0,0.0,0.0,0.0,0.0,0.0,2.7084,2.6773,2.5962,2.6081,2.7692,2.8178,2.8337,2.818,0.0,0.0,0.0,0.0,0.0,0.0,0.0,0.0,0.0,0.0,0.0,0.0,0.0,0.0,0.0,0.0,0.0,0.0,0.0,0.0,0.0,0.0,0.0,0.0,0.0,0.0,0.0,0.0,0.0,0.0,0.0,0.0,0.0,0.0,0.0,0.0,0.0,0.0,0.0,0.0,0.0,0.0,0.0,0.0,0.0,0.0,0.0,0.0,0.0,0.0,0.0,0.0,0.0,0.0,0.0,0.0,0.0,0.0,0.0,0.0,0.0,0.0,0.0,0.0,0.0,0.0,0.0,0.0,0.0,0.0,0.0,0.0,0.0,0.0,0.0,0.0,0.0,0.0,0.0,0.0,0.0,0.0,0.0,0.0,0.0,0.0,0.0,0.0,0.0,0.0,0.0,0.0,0.0,0.0,0.0,0.0,0.0,0.0,0.0,0.0,0.0,0.0,0.0,2.7676,2.7083,2.7092,2.6275,2.6342,2.7838,2.8084,2.8189,2.8254,2.8192,0.0,0.0,0.0,0.0,0.0,0.0,0.0,0.0,0.0,0.0,0.0,0.0,0.0,0.0,0.0,0.0,0.0,0.0,0.0,0.0,0.0,0.0,0.0,0.0,0.0,0.0,0.0,0.0,0.0,0.0,0.0,0.0,0.0,0.0,0.0,0.0,0.0,0.0,0.0,0.0,0.0,0.0,0.0,0.0,0.0,0.0,0.0,0.0,0.0,0.0,0.0,0.0,0.0,0.0,0.0,0.0,0.0,0.0,0.0,0.0,0.0,0.0,0.0,0.0,0.0,0.0,0.0,0.0,0.0,0.0,0.0,0.0,0.0,0.0,0.0,0.0,0.0,0.0,0.0,0.0,0.0,0.0,0.0,0.0,0.0,0.0,0.0,0.0,0.0,0.0,0.0,0.0,0.0,0.0,0.0,0.0,0.0,0.0,0.0,0.0,0.0,0.0,2.7822,2.7423,2.7241,2.6575,2.6571,2.7584,2.7932,2.8051,2.7941,2.8123,0.0,0.0,0.0,0.0,0.0,0.0,0.0,0.0,0.0,0.0,0.0,0.0,0.0,0.0,0.0,0.0,0.0,0.0,0.0,0.0,0.0,0.0,0.0,0.0,0.0,0.0,0.0,0.0,0.0,0.0,0.0,0.0,0.0,0.0,0.0,0.0,0.0,0.0,0.0,0.0,0.0,0.0,0.0,0.0,0.0,0.0,0.0,0.0,0.0,0.0,0.0,0.0,0.0,0.0,0.0,0.0,0.0,0.0,0.0,0.0,0.0,0.0,0.0,0.0,0.0,0.0,0.0,0.0,0.0,0.0,0.0,0.0,0.0,0.0,0.0,0.0,0.0,0.0,0.0,0.0,0.0,0.0,0.0,0.0,0.0,0.0,0.0,0.0,0.0,0.0,0.0,0.0,0.0,0.0,0.0,0.0,0.0,0.0,0.0,0.0,0.0,0.0,2.7323,2.7538,2.6253,2.6054,2.6124,2.6396,2.7454,2.7761,2.695,2.7781,0.0,0.0,0.0,0.0,0.0,0.0,0.0,0.0,0.0,0.0,0.0,0.0,0.0,0.0,0.0,0.0,0.0,0.0,0.0,0.0,0.0,0.0,0.0,0.0,0.0,0.0,0.0,0.0,0.0,0.0,0.0,0.0,0.0,0.0,0.0,0.0,0.0,0.0,0.0,0.0,0.0,0.0,0.0,0.0,0.0,0.0,0.0,0.0,0.0,0.0,0.0,0.0,0.0,0.0,0.0,0.0,0.0,0.0,0.0,0.0,0.0,0.0,0.0,0.0,0.0,0.0,0.0,0.0,0.0,0.0,0.0,0.0,0.0,0.0,0.0,0.0,0.0,0.0,0.0,0.0,0.0,0.0,0.0,0.0,0.0,0.0,0.0,0.0,0.0,0.0,0.0,0.0,0.0,0.0,0.0,0.0,0.0,0.0,0.0,0.0,0.0,0.0,2.7484,2.7755,2.6857,2.6855,2.6855,2.6637,2.7484,2.7723,2.6972,0.0,0.0,0.0,0.0,0.0,0.0,0.0,0.0,0.0,0.0,0.0,0.0,0.0,0.0,0.0,0.0,0.0,0.0,0.0,0.0,0.0,0.0,0.0,0.0,0.0,0.0,0.0,0.0,0.0,0.0,0.0,0.0,0.0,0.0,0.0,0.0,0.0,0.0,0.0,0.0,0.0,0.0,0.0,0.0,0.0,0.0,0.0,0.0,0.0,0.0,0.0,0.0,0.0,0.0,0.0,0.0,0.0,0.0,0.0,0.0,0.0,0.0,0.0,0.0,0.0,0.0,0.0,0.0,0.0,0.0,0.0,0.0,0.0,0.0,0.0,0.0,0.0,0.0,0.0,0.0,0.0,0.0,0.0,0.0,0.0,0.0,0.0,0.0,0.0,0.0,0.0,0.0,0.0,0.0,0.0,0.0,0.0,0.0,0.0,0.0,0.0,0.0,2.7251,2.7997,2.8306,2.7773,2.7837,2.7606,2.6822,2.7526,2.7587,2.6616,0.0,0.0,0.0,0.0,0.0,0.0,0.0,0.0,0.0,0.0,0.0,0.0,0.0,0.0,0.0,0.0,0.0,0.0,0.0,0.0,0.0,0.0,0.0,0.0,0.0,0.0,0.0,0.0,0.0,0.0,0.0,0.0,0.0,0.0,0.0,0.0,0.0,0.0,0.0,0.0,0.0,0.0,0.0,0.0,0.0,0.0,0.0,0.0,0.0,0.0,0.0,0.0,0.0,0.0,0.0,0.0,0.0,0.0,0.0,0.0,0.0,0.0,0.0,0.0,0.0,0.0,0.0,0.0,0.0,0.0,0.0,0.0,0.0,0.0,0.0,0.0,0.0,0.0,0.0,0.0,0.0,0.0,0.0,0.0,0.0,0.0,0.0,0.0,0.0,0.0,0.0,0.0,0.0,0.0,0.0,0.0,0.0,0.0,0.0,0.0,0.0,0.0,2.7997,2.8864,2.9251,2.8846,2.8793,2.8236,2.683,2.7501,2.7327,0.0,0.0,0.0,0.0,0.0,0.0,0.0,0.0,0.0,0.0,0.0,0.0,0.0,0.0,0.0,0.0,0.0,0.0,0.0,0.0,0.0,0.0,0.0,0.0,0.0,0.0,0.0,0.0,0.0,0.0,0.0,0.0,0.0,0.0,0.0,0.0,0.0,0.0,0.0,0.0,0.0,0.0,0.0,0.0,0.0,0.0,0.0,0.0,0.0,0.0,0.0,0.0,0.0,0.0,0.0,0.0,0.0,0.0,0.0,0.0,0.0,0.0,0.0,0.0,0.0,0.0,0.0,0.0,0.0,0.0,0.0,0.0,0.0,0.0,0.0,0.0,0.0,0.0,0.0,0.0,0.0,0.0,0.0,0.0,0.0,0.0,0.0,0.0,0.0,0.0,0.0,0.0,0.0,0.0,0.0,0.0,0.0,0.0,0.0,0.0,0.0,0.0,0.0,2.8354,2.9236,2.9582,2.8931,2.9,2.8693,2.7777,2.7872,2.7553,2.6515,0.0,0.0,0.0,0.0,0.0,0.0,0.0,0.0,0.0,0.0,0.0,0.0,0.0,0.0,0.0,0.0,0.0,0.0,0.0,0.0,0.0,0.0,0.0,0.0,0.0,0.0,0.0,0.0,0.0,0.0,0.0,0.0,0.0,0.0,0.0,0.0,0.0,0.0,0.0,0.0,0.0,0.0,0.0,0.0,0.0,0.0,0.0,0.0,0.0,0.0,0.0,0.0,0.0,0.0,0.0,0.0,0.0,0.0,0.0,0.0,0.0,0.0,0.0,0.0,0.0,0.0,0.0,0.0,0.0,0.0,0.0,0.0,0.0,0.0,0.0,0.0,0.0,0.0,0.0,0.0,0.0,0.0,0.0,0.0,0.0,0.0,0.0,0.0,0.0,0.0,0.0,0.0,0.0,0.0,0.0,0.0,0.0,0.0,0.0,0.0,0.0,0.0,2.9147,2.9729,2.9946,2.9612,2.9695,2.9457,2.8712,2.8287,2.7701,2.6928,0.0,0.0,0.0,0.0,0.0,0.0,0.0,0.0,0.0,0.0,0.0,0.0,0.0,0.0,0.0,0.0,0.0,0.0,0.0,0.0,0.0,0.0,0.0,0.0,0.0,0.0,0.0,0.0,0.0,0.0,0.0,0.0,0.0,0.0,0.0,0.0,0.0,0.0,0.0,0.0,0.0,0.0,0.0,0.0,0.0,0.0,0.0,0.0,0.0,0.0,0.0,0.0,0.0,0.0,0.0,0.0,0.0,0.0,0.0,0.0,0.0,0.0,0.0,0.0,0.0,0.0,0.0,0.0,0.0,0.0,0.0,0.0,0.0,0.0,0.0,0.0,0.0,0.0,0.0,0.0,0.0,0.0,0.0,0.0,0.0,0.0,0.0,0.0,0.0,0.0,0.0,0.0,0.0,0.0,0.0,0.0,0.0,0.0,0.0,0.0,0.0,0.0,3.0186,3.0264,3.0323,3.058,3.0614,3.0348,2.9676,2.8762,2.7913,2.7146,0.0,0.0,0.0,0.0,0.0,0.0,0.0,0.0,0.0,0.0,0.0,0.0,0.0,0.0,0.0,0.0,0.0,0.0,0.0,0.0,0.0,0.0,0.0,0.0,0.0,0.0,0.0,0.0,0.0,0.0,0.0,0.0,0.0,0.0,0.0,0.0,0.0,0.0,0.0,0.0,0.0,0.0,0.0,0.0,0.0,0.0,0.0,0.0,0.0,0.0,0.0,0.0,0.0,0.0,0.0,0.0,0.0,0.0,0.0,0.0,3.7274,3.6431,0.0,0.0,0.0,0.0,0.0,0.0,0.0,0.0,0.0,0.0,0.0,0.0,0.0,0.0,0.0,0.0,0.0,0.0,0.0,0.0,0.0,0.0,0.0,0.0,0.0,0.0,0.0,0.0,0.0,0.0,0.0,0.0,0.0,0.0,0.0,0.0,0.0,0.0,0.0,0.0,3.0416,3.0522,3.0552,3.0675,3.068,3.0608,3.0459,2.9676,2.8824,2.792,2.7072,0.0,0.0,0.0,0.0,0.0,0.0,0.0,0.0,0.0,0.0,0.0,0.0,0.0,0.0,0.0,0.0,0.0,0.0,0.0,0.0,0.0,0.0,0.0,0.0,0.0,0.0,0.0,0.0,0.0,0.0,0.0,0.0,0.0,0.0,0.0,0.0,0.0,0.0,0.0,0.0,0.0,0.0,0.0,0.0,0.0,0.0,0.0,0.0,0.0,0.0,0.0,0.0,0.0,0.0,0.0,0.0,0.0,0.0,0.0,3.9155,3.8277,0.0,0.0,0.0,0.0,0.0,0.0,0.0,0.0,0.0,0.0,0.0,0.0,0.0,0.0,0.0,0.0,0.0,0.0,0.0,0.0,0.0,0.0,0.0,0.0,0.0,0.0,0.0,0.0,0.0,0.0,0.0,0.0,0.0,0.0,0.0,0.0,0.0,0.0,0.0,0.0,3.0686,3.0691,3.0696,3.0791,3.0793,3.0793,3.0793,3.0033,2.9345,2.8859,2.8035,0.0,0.0,0.0,0.0,0.0,0.0,0.0,0.0,0.0,0.0,0.0,0.0,0.0,0.0,0.0,0.0,0.0,0.0,0.0,0.0,0.0,0.0,0.0,0.0,0.0,0.0,0.0,0.0,0.0,0.0,0.0,0.0,0.0,0.0,0.0,0.0,0.0,0.0,0.0,0.0,0.0,0.0,0.0,0.0,0.0,0.0,0.0,0.0,0.0,0.0,0.0,0.0,0.0,4.3979,4.3706,4.3131,4.3003,4.3105,4.3326,4.1677,4.0657,4.0172,4.0164,0.0,0.0,0.0,0.0,0.0,0.0,0.0,0.0,0.0,0.0,0.0,0.0,0.0,0.0,0.0,0.0,0.0,0.0,0.0,0.0,0.0,0.0,3.575,3.5026,3.5438,3.5623,3.4341,0.0,0.0,0.0,0.0,0.0,0.0,0.0,0.0,0.0,0.0,0.0,3.1093,3.1006,3.0921,3.0898,3.0898,3.0898,3.0898,3.0234,2.9766,2.9609,2.8926,2.8144,0.0,0.0,0.0,0.0,0.0,0.0,0.0,0.0,0.0,0.0,0.0,0.0,0.0,0.0,0.0,0.0,0.0,0.0,0.0,0.0,0.0,0.0,0.0,0.0,0.0,0.0,0.0,0.0,0.0,0.0,0.0,0.0,4.0642,4.1501,0.0,0.0,0.0,0.0,0.0,0.0,0.0,0.0,0.0,0.0,0.0,0.0,0.0,4.4627,4.5486,4.6105,4.646,4.6591,4.7273,4.7611,4.7611,4.6976,4.7114,4.7791,4.6804,0.0,4.2049,4.1986,0.0,0.0,0.0,0.0,0.0,0.0,0.0,0.0,0.0,0.0,0.0,0.0,0.0,0.0,0.0,0.0,0.0,0.0,0.0,0.0,0.0,0.0,3.7642,3.7526,3.7675,3.7793,3.7573,3.5166,3.304,3.304,3.2832,3.2753,0.0,0.0,0.0,0.0,0.0,0.0,3.2011,3.1901,3.158,3.0976,3.0898,3.0898,3.0898,3.0781,3.041,2.9648,2.9492,2.9043,2.8164,2.8125,0.0,0.0,0.0,0.0,0.0,0.0,0.0,0.0,0.0,0.0,0.0,0.0,0.0,0.0,0.0,0.0,0.0,0.0,0.0,0.0,0.0,0.0,0.0,0.0,0.0,0.0,0.0,0.0,0.0,4.1419,4.3107,4.3019,4.3405,4.3476,0.0,0.0,0.0,0.0,0.0,0.0,0.0,0.0,0.0,4.6003,4.5957,4.6311,4.7196,4.753,4.7757,4.7897,4.8241,4.8487,4.8607,4.8287,4.8335,4.8684,4.8291,4.7125,4.5414,4.4433,4.3186,4.175,0.0,0.0,0.0,0.0,3.7364,3.7288,3.8143,3.8536,3.8619,3.8265,0.0,0.0,0.0,0.0,0.0,0.0,0.0,3.8027,3.8123,3.843,3.8719,3.8719,3.8794,3.8736,3.8196,3.6949,3.5785,3.5281,3.4362,3.3708,3.3798,3.3098,0.0,0.0,0.0,3.2521,3.2083,3.1987,3.164,3.0867,3.0792,3.0816,3.0898,3.0898,3.0742,3.0351,3.0332,3.0156,2.9785,2.9766,2.9511,0.0,0.0,0.0,0.0,0.0,0.0,0.0,0.0,0.0,0.0,0.0,0.0,0.0,0.0,0.0,0.0,0.0,0.0,0.0,0.0,0.0,0.0,0.0,0.0,0.0,0.0,0.0,0.0,4.3887,4.5011,4.4393,4.5038,4.5171,0.0,0.0,0.0,0.0,0.0,0.0,4.556,4.6415,4.7363,4.8371,4.8393,4.8787,4.966,4.966,4.9723,4.9855,4.964,4.9588,4.9724,4.9489,4.9364,4.9323,4.9205,4.8904,4.8377,4.6696,4.5248,4.3904,4.1738,4.0451,3.9672,3.8839,3.8485,3.859,3.9656,4.0113,4.025,4.0273,4.0123,3.9854,3.9431,0.0,0.0,0.0,0.0,3.9392,3.9835,3.9931,3.9873,3.9669,3.9676,3.9538,3.8845,3.8594,3.8172,3.7069,3.5759,3.4809,3.4659,3.3906,0.0,3.3789,3.3642,3.3266,3.2636,3.2538,3.2218,3.1448,3.1376,3.141,3.1523,3.1543,3.1543,3.1543,3.1543,3.1543,3.1543,3.1543,3.123,3.0564,0.0,0.0,0.0,0.0,0.0,0.0,0.0,0.0,0.0,0.0,0.0,0.0,0.0,0.0,0.0,0.0,0.0,0.0,0.0,0.0,0.0,0.0,0.0,0.0,0.0,0.0,0.0,0.0,0.0,4.6002,4.6757,0.0,0.0,0.0,0.0,4.5764,4.6576,4.749,4.8443,4.9192,5.0416,5.2169,5.2158,5.2509,5.3336,5.3336,5.3401,5.3526,5.2684,5.236,5.2461,5.164,5.1183,5.106,5.0598,5.0314,5.0038,4.8308,4.6351,4.4377,4.3422,4.2014,4.045,3.9711,3.9759,4.0256,4.0967,4.1552,4.2073,4.2707,4.2354,4.1816,4.2604,4.2277,0.0,0.0,4.2835,4.2662,4.1893,4.1673,4.147,4.065,4.0545,4.062,4.0569,3.9929,3.881,3.7056,3.6642,3.635,3.5643,0.0,3.4536,3.5437,3.4814,3.4269,3.436,3.4262,3.3925,3.3232,3.3165,3.3202,3.3262,3.3262,3.3262,3.3262,3.3262,3.3262,3.3262,3.3262,3.3219,3.3111,3.311,0.0,0.0,0.0,0.0,0.0,0.0,0.0,0.0,0.0,0.0,0.0,0.0,0.0,0.0,0.0,0.0,0.0,0.0,0.0,0.0,0.0,0.0,0.0,0.0,0.0,0.0,0.0,0.0,4.7845,4.8477,0.0,4.7655,4.7503,4.7676,4.8231,4.9006,4.9868,5.0831,5.1664,5.2455,5.3171,5.318,5.3349,5.3722,5.3725,5.3799,5.392,5.3608,5.3493,5.3535,5.3203,5.2659,5.1892,5.1496,5.075,4.9708,4.8842,4.7725,4.6432,4.4986,4.4035,4.3463,4.3214,4.3226,4.3465,4.3994,4.431,4.4405,4.4001,4.3316,4.2701,4.3008,4.2874,4.2701,4.3008,4.3104,4.3028,4.272,4.2643,4.2412,4.1546,4.1445,4.1364,4.0717,4.0398,3.9862,3.8628,3.7469,3.679,3.7089,3.6415,3.5952,3.6288,3.6067,3.5486,3.4496,3.4337,3.4031,3.3378,3.329,3.3324,3.3398,3.3398,3.3398,3.3398,3.3398,3.3652,3.4219,3.4238,3.4238,3.4195,3.4161,3.3695,0.0,0.0,0.0,0.0,0.0,0.0,0.0,0.0,0.0,0.0,0.0,0.0,0.0,0.0,0.0,0.0,0.0,0.0,0.0,0.0,0.0,0.0,0.0,0.0,0.0,4.8945,5.0013,4.9103,5.0188,5.0654,4.9731,4.983,5.0217,5.0835,5.1324,5.2047,5.3058,5.3666,5.4159,5.4603,5.4606,5.4649,5.4745,5.4747,5.4796,5.4863,5.4528,5.4369,5.4368,5.4024,5.3354,5.2459,5.2086,5.1239,5.0075,4.9702,4.9063,4.8158,4.6236,4.5477,4.5461,4.5335,4.5419,4.5645,4.6219,4.6487,4.6473,4.5803,4.522,4.4739,4.447,4.4374,4.4316,4.4028,4.3932,4.3874,4.3585,4.3508,4.3297,4.245,4.2321,4.2109,4.1155,4.1017,4.0796,3.9884,3.8546,3.768,3.795,3.7526,3.7142,3.7142,3.6921,3.6382,3.5305,3.4933,3.4722,3.4632,3.462,3.475,3.5117,3.4883,3.4844,3.5137,3.4609,3.4805,3.5976,3.5449,3.5273,3.5543,3.4858,3.4245,3.3696,0.0,0.0,0.0,0.0,0.0,0.0,0.0,0.0,0.0,0.0,0.0,0.0,0.0,0.0,0.0,0.0,0.0,0.0,0.0,0.0,0.0,0.0,0.0,4.8852,5.0038,5.0742,4.9824,5.1893,5.3,5.204,5.2713,5.3272,5.3472,5.3495,5.3979,5.5165,5.5228,5.5663,5.664,5.668,5.668,5.668,5.6679,5.6679,5.664,5.5654,5.5173,5.5129,5.4129,5.3354,5.2794,5.2372,5.1857,5.1266,5.0907,5.0325,4.9444,4.7264,4.6367,4.6243,4.592,4.6141,4.6666,4.7384,4.7841,4.8105,4.8105,4.8105,4.7952,4.7173,4.6942,4.6759,4.5902,4.5633,4.5441,4.4566,4.4335,4.4143,4.3335,4.3143,4.2893,4.2019,4.1846,4.1585,4.0708,3.9919,3.9111,3.8238,3.8065,3.8046,3.8034,3.7449,0.0,3.6952,3.6269,3.6153,3.7131,3.7234,3.76,3.8515,3.7832,3.7695,3.8555,3.7012,3.6836,3.8535,3.6973,3.6442,3.7234,3.5379,3.448,3.4533,0.0,0.0,0.0,0.0,0.0,0.0,0.0,0.0,0.0,0.0,0.0,0.0,0.0,0.0,0.0,0.0,0.0,0.0,0.0,0.0,0.0,5.114,5.1709,5.1311,5.2104,5.2637,5.2392,5.2891,5.3185,5.2989,5.3191,5.3925,5.5318,5.5433,5.613,5.7777,5.786,5.8043,5.8476,5.8345,5.8267,5.8267,5.8171,5.8109,5.8109,5.7205,5.6614,5.6304,5.5382,5.435,5.3193,5.2292,5.1692,5.123,5.0355,5.0369,5.0786,4.9547,4.8679,4.8196,4.8373,4.8333,4.8207,4.8412,4.8318,4.8105,4.8105,4.8105,4.8067,4.7836,4.7778,4.7605,4.6778,4.6547,4.6336,4.5479,4.5248,4.5037,4.4162,4.397,4.3739,4.2912,4.2739,4.2489,4.1604,4.1258,4.0835,3.9958,3.9342,3.8963,3.9006,3.8847,3.8535,3.8046,3.7786,3.7798,3.818,3.822,3.8319,3.8574,3.8379,3.834,3.8574,3.8144,3.8105,3.8574,3.8144,3.7988,3.8201,3.7593,3.6682,0.0,0.0,0.0,0.0,0.0,0.0,0.0,0.0,0.0,0.0,0.0,0.0,0.0,0.0,0.0,0.0,0.0,0.0,0.0,0.0,0.0,0.0,5.262,5.3313,5.3666,5.3799,5.3857,5.3857,5.4082,5.4294,5.4436,5.4777,5.5494,5.6736,5.7139,5.7827,5.8964,5.9024,5.9073,5.9199,5.8998,5.8903,5.8903,5.8773,5.8603,5.8406,5.7835,5.7174,5.641,5.5849,5.4688,5.3125,5.2783,5.2251,5.1618,5.1472,5.1611,5.182,0.0,0.0,0.0,0.0,4.9682,4.96,4.96,4.9419,4.9183,4.9183,4.9183,4.9125,4.8759,4.8644,4.8471,4.7644,4.7413,4.7221,4.6355,4.6144,4.5913,4.5047,4.4836,4.4624,4.3778,4.3605,4.3355,4.2508,4.2335,0.0,4.1181,4.0362,3.9822,3.9857,3.9655,3.9332,3.8956,3.866,3.8646,3.9101,3.9141,3.9297,3.9668,3.9355,0.0,0.0,0.0,3.8594,3.8594,3.8945,0.0,0.0,0.0,0.0,0.0,0.0,0.0,0.0,3.4197,3.3776,0.0,0.0,0.0,0.0,0.0,0.0,0.0,0.0,0.0,0.0,0.0,0.0,0.0,0.0,0.0,0.0,5.4476,5.5313,5.5908,5.5376,5.4895,5.478,5.5415,5.5952,5.617,5.69,5.7521,5.7928,5.8624,5.9139,5.9429,5.9431,0.0,0.0,0.0,5.9146,5.9146,5.8999,5.8699,5.823,5.8025,5.7277,5.6069,5.5851,5.4726,5.3007,5.3526,5.3187,5.2354,5.3298,5.3367,5.2781,5.1901,5.1353,5.1025,5.0524,5.057,5.0874,5.0777,0.0,0.0,5.0721,5.0712,5.0577,4.9788,4.9548,4.9356,4.849,4.8259,4.8067,4.7259,4.6962,4.6721,4.5932,4.5671,4.5383,4.4605,4.4451,4.4201,4.3393,4.3239,4.297,4.2104,4.1219,4.062,4.0546,4.0062,3.9727,3.9739,3.9224,3.9179,3.9941,4.0039,0.0,4.1133,4.0488,4.0371,4.1152,3.9746,3.8887,3.8887,3.9648,3.9687,3.8906,3.8755,3.861,3.845,3.8365,3.8214,3.793,3.4891,3.3891,0.0,0.0,0.0,0.0,0.0,0.0,0.0,0.0,0.0,0.0,0.0,0.0,0.0,0.0,0.0,5.5102,5.6585,5.7643,5.778,5.7665,5.73,5.6599,5.6656,5.7089,5.7923,5.8142,5.8614,5.9496,5.9707,6.0107,6.0857,6.0901,6.0901,6.0901,6.0696,6.0596,6.0596,6.0461,6.0158,5.9687,5.8951,0.0,5.7155,5.6444,5.5369,5.4047,5.3604,5.3426,5.3453,5.3123,5.3625,5.4463,5.2971,5.2587,5.2796,5.2011,5.1833,5.1894,5.1247,5.1027,5.101,5.0901,5.0848,5.0797,5.0538,5.0462,0.0,4.9394,4.9144,4.8952,4.8086,4.7394,4.6846,4.6701,4.6105,4.5556,4.5383,4.5344,4.5094,4.422,4.4066,4.3816,4.2989,4.2124,4.1351,4.0746,4.0568,4.0509,4.0552,4.0557,4.0599,4.0774,4.0875,4.1016,4.1191,4.1055,4.1016,4.1191,4.0879,4.0703,4.0703,4.0859,4.0879,4.0703,4.057,4.0111,3.9353,3.9238,3.8774,3.7988,3.7315,3.7103,0.0,0.0,0.0,0.0,0.0,0.0,0.0,0.0,0.0,0.0,0.0,5.0691,5.2815,0.0,5.5511,5.678,5.7723,5.83,5.83,5.83,5.8146,5.7703,5.7646,5.7869,5.8445,5.8897,5.9394,5.9962,6.0402,6.0836,6.1283,6.1303,6.1303,6.1303,6.1093,6.0997,6.0997,6.088,6.0565,6.0084,5.9418,5.8542,5.7484,5.6809,5.5775,5.4487,5.4232,5.4073,5.3916,5.4016,5.4618,5.5425,5.4699,5.4263,5.3952,5.3159,5.2889,5.2835,5.1994,5.1697,5.1629,5.1144,5.1004,5.0972,5.0835,5.0789,5.0694,5.0182,5.0048,4.9856,4.8971,4.8125,4.7413,4.7,4.622,4.5594,4.5594,4.5594,4.5479,4.5037,4.496,4.4682,4.3835,4.3335,4.2791,4.2022,4.1938,4.1961,4.1994,4.1802,4.1811,4.2243,4.2004,4.1797,4.1797,4.1364,4.1103,4.1103,4.1048,4.0996,4.0996,4.0996,4.0996,4.0996,4.0925,4.0652,4.0155,4.0084,3.9773,3.9238,3.9238,3.8796,0.0,0.0,0.0,0.0,0.0,0.0,0.0,4.8208,4.9245,5.0354,5.1357,5.2785,5.5256,5.6088,5.6896,5.83,5.8589,5.8649,5.8649,5.8649,5.8649,5.8649,5.8593,5.8638,5.8924,5.9571,6.0037,6.0155,6.081,6.12,6.124,6.124,6.124,6.124,6.107,6.0999,6.0953,6.0847,6.0565,6.0103,5.9709,5.8945,5.7864,5.7476,5.6584,5.5304,5.5323,5.4911,5.4317,5.5147,5.5668,5.5981,5.6175,5.5736,5.4945,5.4178,5.3903,5.3802,5.2922,5.2512,5.2275,5.1587,5.1267,5.1103,5.0979,5.0918,5.0879,5.0775,5.0731,5.0539,4.9817,4.9009,4.8144,4.7336,4.6471,4.5806,4.5633,4.5594,4.5594,4.5594,4.5594,4.5383,4.4662,4.4547,4.422,4.3258,4.3142,4.3175,4.3175,4.2788,4.2788,4.3492,4.3017,4.2578,4.2401,4.1525,4.0992,4.0959,4.086,4.0797,4.0797,4.0797,4.0797,4.0797,4.0797,4.0761,4.0697,4.0697,4.0636,4.0496,4.0496,3.9785,4.7509,4.7003,4.7172,4.7869,4.7815,4.8148,0.0,5.0073,4.9967,5.191,5.3576,5.4887,5.5564,5.755,5.9146,5.9338,5.9671,5.9908,5.9908,5.9908,5.9908,5.9908,5.9581,5.9677,6.0461,6.0627,6.0696,6.071,6.0806,6.0923,6.1031,6.104,6.104,6.104,6.1014,6.0935,6.0819,6.0804,6.0565,6.0103,6.004,5.9735,5.9187,5.9134,5.8629,5.7744,5.6826,5.5945,5.5201,5.5835,5.6133,5.6181,5.6324,5.6312,5.6111,5.5243,5.5009,5.4998,5.4118,5.3298,5.2612,5.2401,5.1818,5.1177,5.1089,5.0997,5.0901,5.0879,5.0799,5.0673,5.0577,4.9913,4.9048,4.8163,4.7355,4.6547,4.5768,4.5594,4.5594,4.5594,4.5594,4.5575,4.5479,4.546,4.4921,4.3335,4.3102,4.3118,4.3118,4.3208,4.3308,4.3405,4.3492,4.322,4.2375,4.1507,4.0955,4.082,4.0805,4.0797,4.0797,4.0797,4.0797,4.0797,4.0797,4.0761,4.0697,4.0697,4.0636,4.0496,4.0496,4.04,4.7944,4.7674,4.7799,4.8423,4.9155,4.9879,5.0478,5.1148,5.2043,5.3427,5.4851,5.6269,5.7647,5.8781,5.973,6.0436,6.069,6.0798,6.0798,6.0798,6.0729,6.054,6.0806,6.0954,6.08,6.08,6.08,6.08,6.08,6.0819,6.0882,6.0873,6.0873,6.0873,6.0873,6.0858,6.08,6.08,6.0702,6.0495,6.0236,5.9996,5.9804,5.9599,5.9278,5.8822,5.8364,5.7828,5.7276,5.7133,5.7061,5.703,5.6655,5.6514,5.6475,5.6104,5.6012,5.5937,5.5058,5.4512,5.4043,5.2964,5.2375,5.1959,5.1336,5.1093,5.1004,5.0918,5.0797,5.0712,5.0712,5.0048,4.9317,4.8933,4.7855,4.6797,4.6432,4.5951,4.5594,4.5594,4.5594,4.5618,4.57,4.5723,4.5488,4.4821,4.4638,4.4578,4.4665,4.4361,4.4191,4.4321,4.4335,4.4179,4.3788,4.2843,4.2257,4.2202,4.2156,4.1912,4.139,4.1371,4.1145,4.0648,4.0629,4.061,4.0575,4.0575,4.0552,4.0496,4.0496,4.0496,4.8189,4.8356,4.8715,4.9055,5.0227,5.1248,5.1014,5.2118,5.3478,5.4447,5.5864,5.7385,5.89,5.9742,6.0505,6.1381,6.1597,6.158,6.1351,6.1332,6.1144,6.0661,6.1272,6.1601,6.1204,6.1358,6.1493,6.1493,6.1493,6.1412,6.1233,6.1214,6.1098,6.0847,6.0847,6.0834,6.08,6.08,6.0827,6.0847,6.0512,6.038,6.0409,6.0179,5.9868,5.9495,5.9527,5.9256,5.8724,5.8287,5.8115,5.8041,5.7263,5.6933,5.6871,5.6636,5.6561,5.6504,5.5879,5.5508,5.5098,5.3828,5.3086,5.2558,5.1787,5.1342,5.1063,5.0939,5.0797,5.0712,5.0712,5.0231,4.9702,4.9452,4.8471,4.7471,4.7,4.6427,4.591,4.5706,4.5677,4.572,4.5808,4.5832,4.5847,4.5885,4.5783,4.5728,4.5814,4.5385,4.5133,4.5287,4.4997,4.4785,4.4725,4.3786,4.3189,4.3181,4.3127,4.2816,4.2181,4.1923,4.1623,4.1227,4.0746,4.0631,4.0854,4.0631,4.0631,4.0854,4.0854,4.0997,4.8336,4.9009,4.9941,4.9948,5.0647,5.1627,5.2833,5.3164,5.3547,5.4817,5.6771,5.8269,5.8319,6.0358,6.2031,6.2058,6.2364,6.2292,6.151,6.1395,6.1071,6.0227,6.0559,6.1146,6.1985,6.2762,6.3224,6.3224,6.3224,6.2937,6.2297,6.2248,6.187,6.1027,6.0988,6.0935,6.0812,6.08,6.0869,6.0988,6.0979,6.107,6.1265,6.1246,6.0791,5.9997,6.011,5.9683,5.8914,5.9077,5.914,5.9062,5.8203,5.7784,5.7565,5.6726,5.6486,5.6601,5.6562,5.6015,5.5293,5.5234,5.4082,5.2675,5.2509,5.181,5.1063,5.0939,5.0797,5.0712,5.0712,5.0673,5.0462,4.9606,4.9356,4.8875,4.7259,4.6939,4.6725,4.5944,4.5839,4.589,4.5894,4.5894,4.5894,4.5899,4.5894,4.589,4.5894,4.5982,4.6069,4.6071,4.5308,4.4725,4.4529,4.3705,4.3174,4.311,4.3104,4.3085,4.3066,4.2258,4.22,4.3008,4.1362,4.0912,4.175,4.0912,4.0931,4.175,4.175,4.222,4.9894,5.0331,5.1072,5.1912,5.2344,5.2742,5.3449,5.4047,5.4742,5.5742,5.6745,5.7607,5.8184,5.9435,6.0652,6.1442,6.216,6.2681,6.2963,6.2982,6.261,6.1556,6.2547,6.3205,6.2916,6.2666,6.2724,6.3262,6.3288,6.2971,6.2219,6.2161,6.1767,6.0899,6.088,6.0856,6.08,6.0883,6.0954,6.1006,6.1143,6.127,6.1436,6.1436,6.1316,6.1129,6.1181,6.1029,6.0717,6.0214,5.9687,5.9101,5.8132,5.7387,5.6796,5.6402,5.6301,5.6342,5.6448,5.6284,5.5933,5.5366,5.4713,5.3942,5.2738,5.2075,5.1644,5.1058,5.0797,5.0712,5.0712,5.0712,5.0635,5.0327,4.9888,4.9378,4.8818,4.8315,4.7927,4.764,4.7145,4.6964,4.7632,4.68,4.6053,4.6149,4.6084,4.6036,4.6036,4.6147,4.62,4.6113,4.5754,4.5486,4.5376,4.5008,4.4776,4.4767,4.4767,4.4489,4.3912,4.3605,4.3355,4.3104,4.2527,4.2374,4.2662,4.2374,4.2374,4.2662,4.2662,4.2816,5.0581,5.1082,5.1998,5.2961,5.3208,5.3384,5.4096,5.4697,5.53,5.6002,5.664,5.7224,5.7745,5.9031,6.0269,6.101,6.2371,6.3384,6.3576,6.3896,6.3693,6.2642,6.3474,6.4051,6.3801,6.3012,6.2993,6.4147,6.4224,6.3878,6.3031,6.2993,6.2454,6.13,6.1262,6.1147,6.0871,6.0963,6.1062,6.1182,6.1354,6.1495,6.1577,6.1577,6.1612,6.1699,6.1699,6.1699,6.166,6.1094,6.0566,5.9961,5.8718,5.7857,5.7205,5.6523,5.626,5.6273,5.6374,5.6371,5.6234,5.5736,5.5256,5.4677,5.3512,5.288,5.2376,5.1493,5.119,5.1068,5.0834,5.0764,5.0782,5.0827,5.0477,5.006,4.9737,4.9328,4.8947,4.8638,4.8155,4.8011,4.8651,4.7834,4.7138,4.7226,4.7162,4.6877,4.6252,4.6247,4.6225,4.6045,4.5944,4.5852,4.574,4.566,4.5594,4.5594,4.5594,4.5344,4.4778,4.447,4.4201,4.3989,4.3412,4.3239,4.3528,4.3239,4.3258,4.3528,4.3528,4.3701,5.0546,5.144,5.2829,5.3199,5.3296,5.3611,5.4825,5.5128,5.5243,5.5635,5.6482,5.7112,5.6972,5.9128,6.0916,6.0831,6.2947,6.4339,6.3538,6.4147,6.4339,6.3462,6.3404,6.3743,6.4532,6.3897,6.4128,6.5782,6.5859,6.5474,6.4647,6.457,6.3782,6.2159,6.2055,6.172,6.1016,6.1023,6.1195,6.1509,6.1635,6.1699,6.1699,6.1699,6.1699,6.1699,6.1699,6.1699,6.1699,6.1699,6.168,6.1465,5.9824,5.9033,5.8638,5.6991,5.6383,5.6383,5.6383,5.6309,5.6212,5.6335,5.5727,5.491,5.4738,5.4115,5.3262,5.2271,5.1972,5.1828,5.1142,5.0961,5.0984,5.1083,5.1099,5.087,5.0042,4.9985,4.982,4.9005,4.8938,4.9004,4.8906,4.8965,4.9004,4.8906,4.8945,4.8359,4.6641,4.6387,4.6278,4.599,4.5923,4.5814,4.5627,4.5603,4.5594,4.5594,4.5594,4.5594,4.5594,4.4797,4.4759,4.5575,4.4028,4.3605,4.4355,4.3605,4.3624,4.4374,4.4374,4.4797,5.3262,5.3903,5.449,5.4585,5.4628,5.4743,5.5147,5.5486,5.5775,5.601,5.6278,5.6433,5.6408,5.8382,6.0236,6.0848,6.3006,6.4743,6.5186,6.5436,6.5243,6.4378,6.4839,6.507,6.4647,6.4993,6.5416,6.5859,6.5301,6.4839,6.4609,6.3993,6.3166,6.2139,6.1579,6.1185,6.0997,6.125,6.1472,6.1656,6.1679,6.1699,6.1699,6.1699,6.1699,6.1699,6.1699,6.1699,6.1699,6.1699,6.1328,6.0605,5.9437,5.8575,5.7869,5.6686,5.6242,5.6242,5.6242,5.6222,5.6181,5.6078,5.5785,5.5374,5.4738,5.4463,5.4181,5.3274,5.3083,5.2983,5.2164,5.1942,5.1792,5.122,5.1141,5.1115,5.0884,5.0953,5.0973,5.0759,5.0742,5.0371,4.9121,4.9941,5.0332,4.9082,4.9453,4.9473,4.8379,4.7676,4.7202,4.7033,4.636,4.5857,4.5749,4.5668,4.5594,4.5594,4.5594,4.5594,4.5594,4.5383,4.5364,4.5594,4.519,4.5056,4.5267,4.5056,4.5075,4.5267,4.5267,4.5383,5.4116,5.4518,5.4879,5.5051,5.4976,5.4951,5.5371,5.5692,5.5839,5.5591,5.5944,5.6143,5.5716,5.7619,5.951,6.0311,6.2453,6.4339,6.5205,6.5647,6.5724,6.5224,6.559,6.5729,6.5299,6.536,6.5418,6.5418,6.5272,6.5166,6.5166,6.4339,6.3534,6.2783,6.1988,6.1457,6.122,6.1456,6.1632,6.1699,6.1699,6.1699,6.1699,6.1699,6.1699,6.1699,6.1699,6.1699,6.1699,6.1699,6.1406,6.084,5.9542,5.8752,5.8203,5.6862,5.6335,5.6288,5.6212,5.6191,5.6169,5.5966,5.5807,5.5628,5.5229,5.5165,5.5056,5.4278,5.4119,5.3979,5.3175,5.2676,5.2297,5.1904,5.1548,5.1294,5.1294,5.1344,5.1406,5.1406,5.1406,5.1094,5.0156,5.0781,5.1074,5.0137,5.041,5.0547,5.0058,4.8926,4.7966,4.7463,4.6897,4.636,4.5878,4.5764,4.5715,4.5685,4.5696,4.5657,4.5594,4.5594,4.5594,4.5594,4.5594,4.5594,4.5594,4.5594,4.5594,4.5594,4.5594,4.5594,5.4122,5.435,5.4746,5.5078,5.4917,5.481,5.5429,5.5669,5.5537,5.4738,5.538,5.5856,5.5091,5.6938,5.8861,5.9797,6.1842,6.3657,6.4651,6.5422,6.5923,6.5921,6.5921,6.5974,6.6137,6.5342,6.4838,6.4838,6.5318,6.5623,6.5594,6.4766,6.399,6.3333,6.2585,6.1985,6.1537,6.1635,6.1699,6.1699,6.1699,6.1699,6.1699,6.1699,6.1699,6.1699,6.1699,6.1699,6.1679,6.1699,6.1699,6.1503,5.9844,5.9199,5.8984,5.7246,5.6535,5.6414,5.6264,5.6237,5.6191,5.5974,5.5843,5.5779,5.5907,5.5939,5.5843,5.5258,5.5108,5.4952,5.4209,5.3344,5.269,5.2694,5.2031,5.1406,5.1406,5.1406,5.1406,5.1406,5.1406,5.1406,5.1406,5.1406,5.1406,5.1406,5.1406,5.1406,5.1406,5.0039,4.8748,4.7863,4.7541,4.7045,4.6166,4.5985,4.5872,4.5821,4.5815,4.5756,4.5627,4.5637,4.562,4.5594,4.5594,4.5612,4.5637,4.5637,4.5635,4.564,4.564,4.564,5.5196,5.544,5.55,5.5591,5.5536,5.5381,5.4961,5.4982,5.4858,5.411,5.4193,5.4587,5.5131,5.6636,5.8531,6.0824,6.2466,6.4019,6.5615,6.5874,6.5938,6.6049,6.606,6.6146,6.6327,6.5556,6.5051,6.5051,6.4503,6.412,6.401,6.3168,6.2432,6.1876,6.1725,6.1643,6.1678,6.1699,6.1699,6.1699,6.1699,6.1699,6.1699,6.1699,6.1699,6.1699,6.1699,6.1634,6.1544,6.1657,6.1634,6.1371,5.9802,5.9199,5.8984,5.7246,5.6582,5.6558,5.6416,5.6371,5.6305,5.5998,5.5996,5.6116,5.6146,5.6232,5.6292,5.6173,5.6218,5.6108,5.5252,5.4393,5.3554,5.2871,5.2031,5.1406,5.1406,5.1406,5.1406,5.1406,5.1406,5.1406,5.1406,5.1406,5.1406,5.1406,5.1406,5.1406,5.1406,5.0566,4.9902,4.9725,4.8322,4.7335,4.715,4.6383,4.589,4.5891,4.5886,4.5845,4.5763,4.5775,4.5715,4.5594,4.5594,4.5648,4.5775,4.5775,4.579,4.5852,4.5852,4.5852,5.5738,5.5798,5.5779,5.5726,5.5395,5.5006,5.4763,5.4459,5.4008,5.3273,5.3582,5.3984,5.3945,5.5604,5.7528,5.9206,6.0711,6.2408,6.4454,6.4783,6.5131,6.5993,6.6179,6.6307,6.6488,6.5718,6.5036,6.4612,6.3769,6.3392,6.3701,6.2875,6.2083,6.1411,6.1404,6.1434,6.1498,6.1498,6.1498,6.1498,6.1498,6.1498,6.1498,6.1498,6.1498,6.1501,6.1575,6.1553,6.1509,6.1636,6.1658,6.1433,5.9823,5.9199,5.8984,5.7246,5.656,5.6486,5.6421,5.6408,5.6364,5.6133,5.6115,5.6207,5.6269,5.6291,5.6318,5.6386,5.6441,5.6391,5.5981,5.5289,5.4453,5.3574,5.2363,5.1406,5.1406,5.1406,5.1406,5.1406,5.1406,5.1406,5.1406,5.1406,5.1406,5.1406,5.1406,5.1406,5.1406,5.1055,5.0664,5.0234,4.9391,4.8487,4.7588,4.7065,4.6567,4.604,4.5998,4.5955,4.585,4.5845,4.5811,4.5751,4.5751,4.5789,4.5845,4.5845,4.5862,4.5899,4.5899,4.5899,5.5944,5.5883,5.5824,5.5717,5.5088,5.4486,5.4418,5.3851,5.3108,5.2369,5.2878,5.3281,5.2793,5.4284,5.6053,5.7436,5.8843,6.0604,6.3002,6.3772,6.4545,6.5782,6.6225,6.6435,6.6399,6.5577,6.4706,6.3888,6.2997,6.2703,6.3244,6.2628,6.1944,6.1317,6.1303,6.1303,6.1303,6.1303,6.1303,6.1303,6.1303,6.1303,6.1283,6.1114,6.1114,6.1295,6.1205,6.1185,6.1189,6.1313,6.1266,6.0955,5.9492,5.8926,5.873,5.7147,5.6483,5.6409,5.6377,5.636,5.6343,5.6227,5.6223,5.6267,5.633,5.6289,5.6214,5.6325,5.6365,5.6365,5.6365,5.5784,5.4951,5.3897,5.2452,5.1339,5.1339,5.1339,5.1341,5.1344,5.1365,5.1366,5.1406,5.1406,5.1406,5.1406,5.1406,5.1406,5.1406,5.1406,5.1152,5.0527,5.0293,4.9648,4.8262,4.7812,4.7263,4.6479,4.6243,4.6082,4.5959,4.5936,4.5924,4.5899,4.5899,4.5912,4.5936,4.5936,4.5967,4.5985,4.6183,4.6261,5.5904,5.5807,5.5716,5.5695,5.5088,5.4332,5.368,5.2958,5.2212,5.1478,5.1493,5.1855,5.2578,5.289,5.4101,5.7343,5.8504,5.9914,6.2504,6.4095,6.5086,6.5348,6.6092,6.6344,6.5741,6.4793,6.385,6.2989,6.1997,6.1462,6.1522,6.1456,6.1387,6.1309,6.1301,6.1303,6.1303,6.1303,6.1303,6.1303,6.1303,6.1303,6.127,6.0478,6.0556,6.127,6.0475,6.0144,6.0144,6.0285,5.987,5.9078,5.8317,5.8027,5.789,5.6809,5.6404,5.638,5.6266,5.6227,5.6227,5.6193,5.6273,5.6367,5.6242,5.6203,5.6208,5.6217,5.6212,5.6212,5.6212,5.5575,5.4529,5.2855,5.1784,5.1126,5.1126,5.1126,5.1156,5.1218,5.121,5.1265,5.1386,5.1406,5.1406,5.1406,5.1406,5.1406,5.1406,5.1406,5.1367,5.1308,5.0644,5.0137,4.9961,4.8516,4.7558,4.7461,4.6718,4.6223,4.6084,4.6082,4.6011,4.5903,4.5899,4.5967,4.6082,4.6082,4.6145,4.6288,4.7088,4.744,5.5183,5.52,5.51,5.5101,5.4078,5.3011,5.2902,5.2228,5.1586,5.1354,5.1366,5.1504,5.1855,5.2344,5.332,5.5234,5.6226,5.7596,6.0093,6.11,6.2296,6.433,6.4427,6.4624,6.5391,6.4095,6.2839,6.1958,6.1409,6.1116,6.1114,6.1117,6.1128,6.1128,6.1036,6.1002,6.1002,6.1002,6.1002,6.1002,6.1002,6.1002,6.0983,6.0634,6.0673,6.0953,6.0208,5.9874,5.9842,5.9454,5.9083,5.8694,5.7918,5.76,5.7499,5.6617,5.6288,5.626,5.6212,5.6191,5.6181,5.6058,5.6071,5.6108,5.6181,5.6128,5.6024,5.6024,5.6024,5.6024,5.6024,5.5067,5.3929,5.3248,5.2062,5.1089,5.1089,5.1089,5.1108,5.1137,5.1171,5.121,5.127,5.1344,5.1406,5.1406,5.1406,5.1406,5.1406,5.1406,5.1406,5.1406,5.1113,5.0723,5.0234,4.9551,4.8945,4.8418,4.7558,4.7284,4.7767,4.7279,4.7215,4.7709,4.7199,4.6954,4.7004,4.6477,4.6247,4.6308,4.666,4.7109,5.4039,5.4274,5.4359,5.4365,5.3259,5.222,5.2448,5.1823,5.1238,5.1366,5.1366,5.1343,5.1343,5.1826,5.2503,5.3362,5.4484,5.5917,5.783,5.8906,6.0331,6.2615,6.2572,6.284,6.4068,6.2939,6.1861,6.1194,6.1027,6.0935,6.0935,6.0935,6.0935,6.0935,6.0856,6.08,6.08,6.08,6.08,6.08,6.0531,6.0416,6.0416,6.0165,6.0185,6.0389,5.9919,5.9599,5.9387,5.8861,5.8361,5.79,5.7272,5.7053,5.697,5.6335,5.6103,5.6116,5.6064,5.605,5.6022,5.5894,5.5842,5.5868,5.6008,5.5947,5.5842,5.5842,5.5842,5.5842,5.5842,5.468,5.3482,5.3482,5.2201,5.0979,5.0979,5.0979,5.101,5.1074,5.1141,5.1185,5.1242,5.1343,5.1406,5.1406,5.1406,5.1406,5.1406,5.1406,5.1406,5.1406,5.1406,5.1172,5.0605,5.0332,4.9941,4.9316,4.8476,4.8262,4.8867,4.8301,4.8262,4.8887,4.8301,4.7851,4.7598,4.6973,4.6543,4.6308,4.6836,4.7656,5.2517,5.3054,5.3602,5.3602,5.2946,5.232,5.2461,5.1823,5.1238,5.1366,5.1295,5.1204,5.1204,5.1156,5.1391,5.2193,5.3871,5.5363,5.6115,5.8515,6.0155,6.0054,6.0803,6.1323,6.1337,6.1143,6.0964,6.0816,6.0793,6.0812,6.0812,6.0812,6.0812,6.0812,6.08,6.08,6.08,6.08,6.08,6.0781,5.9935,5.9511,5.9492,5.8684,5.8761,5.9511,5.9511,5.9135,5.851,5.851,5.7608,5.623,5.6211,5.6211,5.6195,5.5981,5.5904,5.5872,5.5749,5.5714,5.5695,5.5695,5.5695,5.5695,5.5695,5.5695,5.5695,5.5695,5.5695,5.5695,5.5695,5.4463,5.3203,5.3203,5.1924,5.0702,5.0702,5.0702,5.0782,5.1056,5.1094,5.1168,5.1364,5.1406,5.1406,5.1406,5.1406,5.1406,5.1406,5.1406,5.1406,5.1406,5.1406,5.1406,5.1387,5.0664,5.0195,5.0195,4.9375,4.8887,4.8906,4.8887,4.8887,4.8906,4.8887,4.8457,4.7598,4.7598,4.7148,4.6348,4.8066,4.9766,5.0351,5.0618,5.075,5.0835,5.0663,5.0331,4.9876,5.0462,5.0976,5.041,5.075,5.1128,5.1128,5.1117,5.1561,5.2962,5.3682,5.4571,5.5988,5.74,5.8715,5.9852,6.1168,6.1713,6.1032,6.0902,6.0856,6.0793,6.08,6.08,6.08,6.08,6.08,6.08,6.08,6.08,6.08,6.08,6.0634,6.0324,6.0037,5.9746,5.9421,5.9174,5.9193,5.9402,5.8798,5.8422,5.8178,5.763,5.6785,5.5855,5.5855,5.5698,5.544,5.5389,5.5536,5.5759,5.5716,5.5703,5.5703,5.5703,5.5703,5.5703,5.5703,5.5703,5.5703,5.5703,5.5703,5.5568,5.5011,5.4049,5.3049,5.2442,5.1491,5.074,5.0822,5.0835,5.0894,5.1078,5.1141,5.1183,5.1242,5.1343,5.1406,5.1406,5.1406,5.1406,5.1406,5.1406,5.1406,5.1406,5.1406,5.1406,5.1406,5.1172,5.1016,5.1016,5.0254,5.0039,5.0586,5.0078,5.0058,5.0605,5.0078,4.9355,4.8496,4.7891,4.7461,4.7226,4.8379,4.9492,4.8054,4.8502,4.8691,4.8783,4.89,4.888,4.8419,4.9498,5.0456,4.9921,5.0455,5.1014,5.1014,5.0979,5.1289,5.2343,5.3075,5.389,5.4929,5.6368,5.7825,5.9196,6.0467,6.1,6.0381,6.0608,6.08,6.08,6.08,6.08,6.08,6.0634,6.054,6.054,6.054,6.0437,6.0264,6.0264,5.9979,5.938,5.9041,5.8594,5.801,5.801,5.818,5.8446,5.8221,5.8127,0.0,5.7565,5.6868,5.6149,5.6149,5.5816,5.5322,5.5322,5.5287,5.5256,5.5256,5.5343,5.5477,5.5477,5.5577,5.5703,5.5703,5.5703,5.5703,5.5703,5.5703,5.5511,5.4703,5.3857,5.2991,5.2115,5.1298,5.074,5.0863,5.0908,5.0946,5.1111,5.1171,5.123,5.1268,5.1344,5.1406,5.1406,5.1406,5.1406,5.1406,5.1406,5.1406,5.1406,5.1406,5.1406,5.1406,5.1406,5.1406,5.1406,5.0937,5.0879,5.1387,5.0918,5.0898,5.1387,5.0918,5.0234,4.9394,4.8516,4.8262,4.8594,4.9141,4.9844,0.0,4.6645,4.7286,4.7286,4.7565,4.7828,4.777,4.876,0.0,4.9614,5.0248,5.0844,5.0844,5.0754,5.0731,5.0789,5.2243,5.3365,5.3291,5.5547,5.7486,5.8165,5.8992,5.9461,5.9403,6.0191,6.0702,6.0702,6.0702,6.0702,6.0702,6.0297,6.004,6.001,6.001,5.9823,5.9389,5.9389,5.8993,5.8146,5.732,5.6493,5.5682,5.5682,5.6137,5.6949,5.7757,5.8097,5.8081,5.8081,5.7629,5.6897,5.6897,5.6386,5.5645,5.5645,5.5169,5.4503,5.4503,5.4731,5.5061,5.5088,5.5356,5.5703,5.5703,5.5703,5.5703,5.5703,5.5703,5.5491,5.4626,5.3818,5.2972,5.2038,5.125,5.0748,5.0886,5.0918,5.0971,5.1183,5.1208,5.1244,5.1386,5.1406,5.1406,5.1406,5.1406,5.1406,5.1406,5.1406,5.1406,5.1406,5.1406,5.1406,5.1406,5.1406,5.1406,5.1406,5.1406,5.1406,5.1406,5.1406,5.1406,5.1406,5.1348,5.0957,5.0195,4.9336,4.9355,5.0195,5.0195,5.0625,4.3899,0.0,4.5271,4.5271,4.5805,4.6157,0.0,4.7091,4.8452,4.7792,4.9064,5.0292,5.0292,5.0516,5.0894,5.1529,5.2521,5.3465,5.4117,5.6103,5.7577,5.7754,5.8752,5.9175,5.8565,5.9251,5.9725,5.9725,5.9725,5.9725,5.9725,5.9628,5.9389,5.9047,5.9028,5.9158,5.9389,5.9389,5.8817,5.7659,5.7472,5.6756,5.5611,5.5611,5.6055,5.6829,5.7053,5.7479,5.8012,5.8012,5.755,5.6808,5.6808,5.615,5.5155,5.5155,5.4881,5.4503,5.4503,5.4547,5.4686,5.5007,5.5356,5.5703,5.5703,5.5703,5.5703,5.5703,5.5703,5.5357,5.3895,5.3356,5.2837,5.1337,5.0928,5.0894,5.1008,5.1087,5.1177,5.132,5.1345,5.1366,5.1387,5.1406,5.1406,5.1406,5.1406,5.1406,5.1406,5.1406,5.1406,5.1406,5.1406,5.1406,5.1406,5.1406,5.1406,5.1406,5.1406,5.1406,5.1406,5.1406,5.1406,5.1406,5.0801,5.0391,5.0195,4.9336,4.9355,5.0195,5.0195,5.0625,4.3277,4.4052,4.4658,4.4658,4.5088,4.5406,4.496,4.6055,4.7022,4.6555,4.7964,4.927,4.927,4.9904,5.0574,5.0996,5.2115,5.3417,5.4848,5.6031,5.6888,5.7319,5.7951,5.8333,5.824,5.8634,5.9045,5.9372,5.9389,5.9389,5.9389,5.9213,5.8952,5.8715,5.8484,5.8505,5.8755,5.8402,5.7664,5.6617,5.6247,5.5528,5.4491,5.4491,5.5133,5.6253,5.6253,5.6914,5.7997,5.7997,5.774,5.7317,5.695,5.6172,5.5227,5.4857,5.4368,5.3907,5.3907,5.4173,5.4582,5.4979,5.5356,5.5703,5.5703,5.5703,5.5703,5.5703,5.5703,5.5299,5.3645,5.3203,5.2779,5.1097,5.0757,5.0848,5.1067,5.1124,5.1202,5.1365,5.1406,5.1406,5.1406,5.1406,5.1406,5.1406,5.1406,5.1406,5.1406,5.1406,5.1406,5.1406,5.1406,5.1406,5.1406,5.1406,5.1406,5.1406,5.1406,5.1406,5.1406,5.1406,5.1406,5.1406,5.0976,5.0742,5.0742,5.0273,5.0293,5.0742,5.0742,5.0976,4.3094,4.4085,4.4837,4.458,4.4744,4.4931,4.4931,4.5298,4.5637,4.5637,4.701,4.8202,4.8202,4.9191,5.0019,5.0019,5.1325,5.3035,5.5055,5.5302,5.5526,5.619,5.644,5.6804,5.7487,5.7653,5.8087,5.8953,5.9028,5.9084,5.9176,5.8796,5.8535,5.8405,5.8028,5.7758,5.7629,5.7079,5.6326,5.5409,5.473,5.3977,5.3185,5.3335,5.4197,5.5614,5.5721,5.662,5.7997,5.7997,5.7997,5.7923,5.7116,5.6308,5.5482,5.4693,5.3904,5.3185,5.3185,5.372,5.4452,5.4862,5.5282,5.561,5.5673,5.5703,5.5703,5.5703,5.5703,5.5299,5.3645,5.3203,5.2779,5.1097,5.0721,5.0799,5.1027,5.1098,5.1156,5.132,5.1366,5.1386,5.1406,5.1406,5.1406,5.1406,5.1406,5.1406,5.1406,5.1406,5.1406,5.1406,5.1406,5.1406,5.1406,5.1406,5.1406,5.1406,5.1406,5.1406,5.1406,5.1406,5.1406,5.1406,5.1406,5.1406,5.1406,5.1406,5.1406,5.1406,5.1406,5.1406,4.2268,4.4066,4.5388,4.4011,4.3731,4.3764,4.3764,4.4349,4.4863,4.4863,4.6422,4.778,4.778,4.8781,4.9589,4.9589,5.0463,5.1773,5.3494,5.3521,5.3145,5.2599,5.3428,5.4086,5.4142,5.4776,5.5762,5.717,5.7273,5.7551,5.8172,5.8142,5.7802,5.7103,5.7014,5.6657,5.6,5.6528,5.6051,5.4583,5.4454,5.3977,5.3203,5.3922,5.4711,5.5629,5.6326,5.7134,5.7997,5.7997,5.7997,5.7923,5.7116,5.6308,5.5482,5.4693,5.3904,5.3185,5.3185,5.3524,5.3977,5.4436,5.4848,5.5269,5.5599,5.5703,5.5703,5.5703,5.5703,5.5299,5.3645,5.3203,5.2779,5.1097,5.0791,5.0879,5.0918,5.1027,5.1135,5.1204,5.1236,5.1268,5.1386,5.1406,5.1406,5.1406,5.1406,5.1406,5.1406,5.1406,5.1406,5.1406,5.1406,5.1406,5.1406,5.1406,5.1406,5.1406,5.1406,5.1406,5.1406,5.1406,5.1406,5.1406,5.1406,5.1406,5.1406,5.1406,5.1406,5.1406,5.1406,5.1406,4.0994,4.2554,4.3883,4.3588,4.447,4.5461,4.5461,4.5406,4.5351,4.5351,4.6431,4.7385,4.7385,4.8729,4.9992,5.0485,5.0954,5.1261,5.1391,5.1258,5.1035,5.0655,5.1112,5.1813,5.2757,5.3182,5.3873,5.4973,5.507,5.5201,5.5552,5.5577,5.539,5.5029,5.5011,5.4797,5.435,5.4714,5.4729,5.4399,5.3959,5.3573,5.3222,5.4032,5.484,5.5629,5.6455,5.7024,5.7354,5.7354,5.7097,5.662,5.5812,5.528,5.484,5.4051,5.3537,5.3185,5.3185,5.3464,5.3833,5.4048,5.456,5.5128,5.5319,5.5524,5.5703,5.5703,5.5703,5.5415,5.4222,5.3895,5.3472,5.176,5.1404,5.1346,5.0983,5.0959,5.102,5.1133,5.1152,5.1167,5.1224,5.1279,5.1295,5.1295,5.1345,5.1406,5.1406,5.1406,5.1406,5.1406,5.1406,5.1406,5.1406,5.1406,5.1406,5.1406,5.1406,5.1406,5.1406,5.1406,5.1406,5.1406,5.1406,5.1406,5.1406,5.1406,5.1406,5.1406,5.1406,5.1406,3.9824,4.1196,4.257,4.3315,4.4892,4.636,4.6727,4.6214,4.5663,4.5865,4.6526,4.7094,4.7094,4.8532,5.0026,5.0929,5.0772,5.0276,4.9537,4.914,4.8961,4.9173,4.9209,4.991,5.1692,5.1869,5.2247,5.3185,5.3241,5.3323,5.3486,5.3486,5.3397,5.322,5.322,5.3067,5.2803,5.2785,5.3222,5.4106,5.35,5.3185,5.3222,5.4032,5.473,5.5354,5.6161,5.6528,5.6528,5.6528,5.6161,5.5522,5.4711,5.4289,5.4051,5.3424,5.3185,5.3185,5.3185,5.3402,5.3682,5.3758,5.4251,5.4833,5.4938,5.5173,5.5435,5.5524,5.5566,5.5404,5.4692,5.4491,5.4107,5.2558,5.2192,5.2021,5.1283,5.1122,5.1126,5.1053,5.1042,5.1053,5.1084,5.1167,5.1204,5.1204,5.1319,5.1406,5.1406,5.1406,5.1406,5.1406,5.1406,5.1406,5.1406,5.1406,5.1406,5.1406,5.1406,5.1406,5.1406,5.1406,5.1406,5.1406,5.1406,5.1406,5.1406,5.1406,5.1406,5.1406,5.1406,5.1386,3.9049,4.089,4.2812,4.3355,4.3643,4.414,4.5645,4.5369,4.5002,4.5755,4.6526,4.7094,4.7094,4.7925,4.8872,4.9699,4.8636,4.7942,4.8585,4.7391,4.6783,4.7638,4.7737,4.8412,5.0098,5.0263,5.0875,5.2356,5.2467,5.277,5.3459,5.3486,5.3167,5.2405,5.2387,5.2024,5.1252,5.1252,5.1939,5.3277,5.3222,5.3185,5.3222,5.4032,5.4436,5.4528,5.5335,5.5684,5.5684,5.5684,5.5669,5.5522,5.4711,5.394,5.3277,5.3203,5.3185,5.3185,5.3185,5.3227,5.3295,5.3682,5.3832,5.3977,5.4404,5.4547,5.4655,5.5034,5.5147,5.5033,5.4619,5.4491,5.426,5.3337,5.3106,5.2876,5.2011,5.1838,5.1644,5.1022,5.0911,5.0946,5.1088,5.1167,5.1204,5.1204,5.1319,5.1406,5.1406,5.1406,5.1406,5.1406,5.1406,5.1406,5.1406,5.1406,5.1406,5.1406,5.1406,5.1406,5.1406,5.1406,5.1406,5.1406,5.1406,5.1406,5.1406,5.1406,5.1406,5.1406,5.1406,5.1323,3.7268,3.9649,4.2012,4.2214,4.3249,4.4672,4.6287,4.6397,4.6415,4.7241,4.7645,4.7879,4.8016,4.8703,4.9043,4.8434,4.823,4.7703,4.6431,4.5714,4.5468,4.5814,4.6365,4.7202,4.843,4.906,4.9664,5.0256,5.0273,5.0408,5.07,5.07,5.0562,5.0257,5.0257,5.0287,5.039,5.0435,5.0903,5.1874,5.1874,5.1874,5.191,5.2725,5.3084,5.3163,5.4423,5.4662,5.4218,5.4671,5.4564,5.4087,5.3775,5.3482,5.3185,5.3185,5.3185,5.3185,5.3185,5.3185,5.3227,5.338,5.3604,5.3833,5.4013,5.4272,5.4579,5.4993,5.5088,5.511,5.5223,5.5241,5.503,5.4203,5.401,5.378,5.2895,5.2712,5.2626,5.2376,5.1893,5.1534,5.1581,5.1344,5.1141,5.1141,5.1285,5.1406,5.1406,5.1406,5.1406,5.1406,5.1406,5.1406,5.1406,5.1406,5.1406,5.1406,5.1406,5.1406,5.1406,5.1406,5.1406,5.1406,5.1406,5.1406,5.1406,5.132,5.1271,5.127,5.1235,5.1197,3.6534,3.881,4.1062,4.145,4.2876,4.4556,4.6154,4.681,4.7333,4.8141,4.8152,4.7982,4.7913,4.8531,4.8637,4.7338,4.7527,4.7126,4.5101,4.451,4.4434,4.4774,4.5358,4.626,4.7489,4.8193,4.8688,4.897,4.9001,4.9001,4.9001,4.9001,4.9001,4.9001,4.9001,4.9212,4.9664,4.9693,4.9936,5.0435,5.0435,5.068,5.1104,5.1679,5.1927,5.1988,5.3049,5.316,5.2671,5.3395,5.3493,5.3185,5.3185,5.3185,5.3185,5.3185,5.3185,5.3185,5.3185,5.3185,5.3185,5.3185,5.34,5.3624,5.3624,5.3924,5.4371,5.479,5.5007,5.5186,5.5588,5.5703,5.5549,5.5011,5.4876,5.4645,5.3799,5.3395,5.3126,5.2837,5.2106,5.153,5.1567,5.1321,5.1103,5.1124,5.1283,5.1406,5.1406,5.1406,5.1406,5.1406,5.1406,5.1406,5.1406,5.1365,5.1343,5.1343,5.1315,5.1315,5.1342,5.1343,5.134,5.1309,5.1309,5.1309,5.1309,5.121,5.1167,5.1164,5.1111,5.1088,3.7144,3.8611,4.0103,4.1362,4.2312,4.3306,4.4845,4.6176,4.7296,4.8122,4.7797,4.7194,4.6524,4.7098,4.7382,4.643,4.6209,4.5854,4.4909,4.3912,4.3654,4.4662,4.4774,4.5541,4.7373,4.7589,4.7982,4.8892,4.897,4.897,4.897,4.897,4.9001,4.9001,4.9001,4.9001,4.9001,4.9001,4.9001,4.9001,4.9001,4.9739,5.1086,5.1086,5.1086,5.1086,5.1086,5.1086,5.1138,5.1832,5.2531,5.3185,5.3185,5.3185,5.3185,5.3185,5.3185,5.3185,5.3185,5.3185,5.3185,5.3185,5.3185,5.3185,5.3185,5.3484,5.3887,5.4355,5.4775,5.5186,5.5588,5.5703,5.5703,5.5703,5.5684,5.5472,5.4664,5.3818,5.2953,5.2077,5.126,5.0749,5.089,5.1016,5.1116,5.1191,5.1319,5.1406,5.1406,5.1406,5.1406,5.1406,5.1406,5.1406,5.1406,5.127,5.1201,5.1201,5.1141,5.1128,5.1199,5.1201,5.1164,5.1094,5.1089,5.1089,5.1089,5.1108,5.1108,5.1108,5.1108,5.1033,3.4943,3.7276,3.9358,4.0172,4.2088,4.3852,4.4255,4.468,4.5226,4.6018,4.6454,4.6501,4.5865,4.6288,4.6288,4.4901,4.4607,4.4318,4.3812,4.3121,4.2938,4.3648,4.4373,4.502,4.5577,4.6224,4.6747,4.702,4.702,4.702,4.702,4.7655,4.8015,4.8015,4.8656,4.9001,4.9001,4.9001,4.9001,4.9001,4.9001,4.9212,4.9639,4.9639,4.9639,4.9652,5.0118,5.0324,5.0417,5.1618,5.197,5.1825,5.2809,5.2875,5.249,5.302,5.3185,5.3185,5.3185,5.3185,5.3185,5.3185,5.3185,5.3185,5.3185,5.3484,5.3887,5.4355,5.4775,5.5186,5.5588,5.5703,5.5703,5.5703,5.5261,5.478,5.4549,5.3818,5.3126,5.2856,5.2125,5.1587,5.1722,5.1385,5.1116,5.1191,5.1319,5.1406,5.1406,5.1406,5.1406,5.1406,5.1319,5.1265,5.1265,5.1184,5.1128,5.1128,5.1113,5.1108,5.1124,5.1128,5.1111,5.1094,5.1089,5.1089,5.1089,5.101,5.0953,5.0966,5.0856,5.0808,3.399,3.6453,3.8685,3.9613,4.1155,4.2474,4.2705,4.3416,4.418,4.4716,4.4932,4.485,4.4215,4.4606,4.4701,4.3656,4.3434,4.331,4.2992,4.2387,4.2156,4.2506,4.3061,4.3613,4.3954,4.4526,4.4992,4.5376,4.541,4.5539,4.5776,4.6326,4.6945,4.7572,4.8161,4.8608,4.9001,4.9001,4.9001,4.9001,4.9001,4.9001,4.9001,4.9001,4.9001,4.9032,4.9449,4.9936,5.05,5.135,5.1783,5.2012,5.2872,5.2937,5.2576,5.3042,5.3185,5.3185,5.3185,5.3185,5.3185,5.3185,5.3185,5.3185,5.3185,5.3484,5.3887,5.4355,5.4775,5.5186,5.5588,5.5453,5.5222,5.5222,5.4857,5.4414,5.4068,5.3299,5.2673,5.2673,5.205,5.1556,5.1676,5.1395,5.1177,5.1265,5.1344,5.1406,5.1406,5.1406,5.1406,5.1406,5.1322,5.1271,5.1271,5.1196,5.1145,5.1145,5.1054,5.1036,5.1108,5.1056,5.0997,5.0945,5.0945,5.0945,5.0945,5.0867,5.0822,5.0822,5.074,5.0721,3.3483,3.5607,3.7705,3.9178,3.9594,3.9865,4.0563,4.2092,4.3439,4.3726,4.3295,4.2647,4.2093,4.2525,4.2879,4.2672,4.2587,4.2508,4.2316,4.1752,4.1309,4.1407,4.1422,4.1715,4.2608,4.2664,4.304,4.3874,4.3942,4.4229,4.4833,4.4934,4.5667,4.7225,4.7424,4.7916,4.875,4.8841,4.8903,4.8861,4.8835,4.8832,4.89,4.8968,4.9001,4.9001,4.8934,4.967,5.0903,5.0981,5.1752,5.2915,5.306,5.3103,5.3103,5.3185,5.3185,5.3185,5.3185,5.3185,5.3185,5.3185,5.3185,5.3185,5.3185,5.3484,5.3887,5.4261,5.4661,5.5052,5.5377,5.4934,5.4357,5.428,5.426,5.4049,5.326,5.2404,5.1788,5.1788,5.1318,5.0945,5.1088,5.1167,5.1242,5.1386,5.1406,5.1406,5.1406,5.1406,5.1406,5.1406,5.1386,5.1386,5.1386,5.1265,5.1194,5.1194,5.1028,5.0966,5.1084,5.0966,5.0851,5.074,5.074,5.074,5.074,5.074,5.074,5.074,5.074,5.0797,2.9803,3.213,3.4335,3.6205,3.7355,3.8261,3.9264,3.9295,3.958,4.1247,4.1898,4.2156,4.2013,4.1996,4.1984,4.193,4.1351,4.1076,4.1542,4.1025,4.0801,4.1324,4.1422,4.1483,4.1693,4.1693,4.179,4.1997,4.1997,4.2058,4.2195,4.2917,4.3713,4.4602,4.6056,4.6799,4.6799,4.7706,4.8054,4.7901,4.748,4.7581,4.8173,4.8748,4.9001,4.8968,4.8409,4.8625,4.9492,5.0004,5.0435,5.0796,5.1904,5.2335,5.2422,5.2999,5.3185,5.3185,5.3185,5.3185,5.3185,5.3185,5.3185,5.3185,5.3185,5.3484,5.3757,5.3548,5.3774,5.4028,5.3802,5.3606,5.3318,5.2615,5.2462,5.2404,5.2212,5.1548,5.0952,5.0952,5.0941,5.0945,5.1088,5.1167,5.1242,5.1386,5.1406,5.1406,5.1406,5.1406,5.1406,5.1406,5.1317,5.124,5.124,5.1174,5.1111,5.1111,5.1079,5.1063,5.1108,5.0966,5.0939,5.1016,5.1016,5.1016,5.1016,5.1016,5.1016,5.1016,5.1016,5.1039,2.6037,2.8295,3.064,3.3276,3.4845,3.5987,3.7083,3.7578,3.8125,3.9204,4.0139,4.0774,4.0774,4.0685,4.07,4.102,4.0441,4.0157,4.0816,4.0352,4.0053,4.0397,4.0442,4.0442,4.0442,4.0442,4.0442,4.0442,4.0442,4.0746,4.1511,4.2001,4.2973,4.4503,4.5522,4.6172,4.6486,4.7088,4.7319,4.7206,4.6915,4.7005,4.7394,4.7767,4.7953,4.7936,4.7547,4.7755,4.8442,4.8791,4.9144,4.9556,5.0605,5.0999,5.1085,5.1785,5.205,5.205,5.205,5.205,5.205,5.205,5.205,5.205,5.205,5.2198,5.2344,5.2347,5.2494,5.2702,5.2872,5.2606,5.2217,5.195,5.1904,5.1788,5.1414,5.0991,5.0712,5.0712,5.0805,5.0918,5.0991,5.1117,5.1242,5.1386,5.1406,5.1406,5.1406,5.1406,5.1406,5.1406,5.1343,5.1296,5.1296,5.1254,5.1235,5.1235,5.118,5.1177,5.1235,5.1113,5.1069,5.1089,5.1089,5.1089,5.1089,5.1089,5.1089,5.1089,5.1089,5.1126,2.2324,2.4668,2.7253,3.0087,3.1966,3.3396,3.4599,3.6025,3.7253,3.7686,3.8671,3.9388,3.9388,3.9388,3.9568,4.0142,3.9768,3.9604,4.0157,3.9768,3.9388,3.9388,3.9388,3.9388,3.9388,3.9388,3.9445,3.961,3.961,4.0249,4.1666,4.1766,4.273,4.4932,4.5139,4.5582,4.6317,4.6503,4.6591,4.6544,4.6591,4.6532,4.6413,4.6413,4.6549,4.6786,4.6667,4.6993,4.7617,4.7617,4.8058,4.876,4.9269,4.9526,4.9726,5.038,5.0623,5.0643,5.0762,5.0802,5.0802,5.0802,5.0802,5.0802,5.0802,5.0802,5.0867,5.11,5.1187,5.1318,5.1909,5.1535,5.1084,5.1406,5.1532,5.143,5.0837,5.0712,5.0712,5.0712,5.0805,5.0916,5.0932,5.1074,5.1223,5.1339,5.1342,5.1342,5.1342,5.1364,5.1366,5.1366,5.1366,5.1366,5.1406,5.1365,5.1343,5.1366,5.1247,5.1228,5.1342,5.1248,5.1166,5.1109,5.1112,5.1108,5.1106,5.1106,5.1106,5.1106,5.1106,5.1121,1.9033,2.2095,2.515,2.609,2.8372,3.0727,3.2298,3.3511,3.5003,3.732,3.8671,3.9388,3.9388,3.9388,3.9454,3.9508,3.9448,3.9418,3.9508,3.9448,3.9388,3.9388,3.9388,3.9388,3.9388,3.9388,3.9702,4.0466,4.0535,4.0959,4.1915,4.1947,4.2364,4.3297,4.4101,4.4475,4.4378,4.5363,4.5773,4.5588,4.5757,4.55,4.4902,4.4902,4.5585,4.6752,4.6126,4.6252,4.6944,4.6944,4.7335,4.7934,4.8041,4.844,4.9102,4.9722,4.9923,5.0007,5.0602,5.0802,5.0802,5.0802,5.0802,5.0802,5.0802,5.0802,5.0718,5.0358,5.0276,5.0228,4.9969,4.9821,4.9759,4.9802,5.0095,5.0405,5.0663,5.0712,5.0712,5.0712,5.0805,5.0939,5.1042,5.1094,5.1122,5.1139,5.1139,5.1139,5.1139,5.1196,5.1234,5.1234,5.1234,5.127,5.1386,5.1233,5.116,5.121,5.1164,5.1117,5.1139,5.1117,5.1109,5.1105,5.1152,5.1154,5.1105,5.1105,5.1105,5.1105,5.1105,5.1097,1.6854,1.9579,2.2266,2.3735,2.5786,2.7804,2.9145,3.1216,3.3227,3.442,3.6248,3.7965,3.9177,3.8907,3.8708,3.9301,3.9388,3.9388,3.9388,3.887,3.8509,3.8509,3.8172,3.8099,3.8465,3.9133,3.986,4.0625,4.1147,4.1804,4.2676,4.2724,4.3086,4.3872,4.431,4.4477,4.4337,4.4833,4.5041,4.4942,4.5024,4.4891,4.4615,4.4615,4.4953,4.5563,4.5213,4.5263,4.5579,4.5579,4.5745,4.6028,4.6383,4.6691,4.7074,4.7672,4.8129,4.8497,4.8787,4.9131,4.9407,4.9407,4.9407,4.9407,4.9407,4.9407,4.9354,4.9159,4.9086,4.9102,4.9137,4.9155,4.9218,4.9445,4.965,4.9813,4.9987,5.0369,5.0712,5.0712,5.0758,5.0819,5.0959,5.0985,5.1016,5.1098,5.1089,5.1089,5.1089,5.112,5.1133,5.1133,5.1133,5.1167,5.1224,5.1152,5.1117,5.1148,5.1122,5.1089,5.1089,5.1089,5.1053,5.0991,5.1093,5.1128,5.1089,5.1089,5.1089,5.1089,5.1089,5.1089,1.507,1.7128,1.9238,2.1463,2.3434,2.5154,2.6538,2.9078,3.1213,3.1617,3.3442,3.5586,3.7742,3.771,3.7663,3.8457,3.8583,3.8583,3.8583,3.7904,3.7381,3.7381,3.6954,3.6859,3.748,3.8577,3.9671,4.0716,4.1565,4.2512,4.3575,4.3621,4.3948,4.457,4.4615,4.4615,4.4615,4.4615,4.4615,4.4615,4.4615,4.4615,4.4598,4.4355,4.4384,4.4615,4.4615,4.4615,4.4615,4.4615,4.4615,4.4654,4.5089,4.5267,4.5346,4.594,4.6478,4.6932,4.7088,4.7554,4.8055,4.7858,4.8055,4.8267,4.8114,4.8172,4.8306,4.8306,4.8306,4.8364,4.8675,4.8744,4.883,4.9108,4.9265,4.9371,4.9475,4.9962,5.0421,5.0534,5.0453,5.0457,5.0668,5.0711,5.0723,5.0835,5.0933,5.0997,5.0997,5.1033,5.1056,5.1056,5.1056,5.1053,5.1108,5.1045,5.1016,5.1056,5.1022,5.0997,5.0997,5.0997,5.094,5.0851,5.0952,5.0997,5.0997,5.0997,5.0997,5.0997,5.0997,5.0997,1.3474,1.4712,1.6304,1.8709,2.1,2.318,2.5216,2.6933,2.8573,3.0086,3.0953,3.2104,3.4277,3.5546,3.6316,3.6369,3.6369,3.6369,3.6369,3.633,3.6277,3.6277,3.6249,3.6378,3.6788,3.7611,3.8906,4.0832,4.1729,4.2875,4.4435,4.4542,4.4542,4.4615,4.4615,4.4615,4.4615,4.4615,4.4615,4.4615,4.4615,4.4615,4.457,4.3739,4.3814,4.4615,4.4615,4.4615,4.4615,4.4615,4.4615,4.4598,4.4626,4.4654,4.472,4.532,4.5571,4.5681,4.624,4.6887,4.7342,4.671,4.7324,4.8191,4.7614,4.7856,4.8306,4.8306,4.8306,4.8306,4.8325,4.8344,4.8344,4.8364,4.8639,4.9046,4.9416,4.9532,4.9678,5.0056,4.9813,4.9692,5.0061,5.014,5.0152,5.0145,5.0485,5.0731,5.0731,5.0827,5.0903,5.0903,5.0903,5.0953,5.1079,5.0883,5.0784,5.0889,5.0799,5.0731,5.0731,5.0731,5.0721,5.0712,5.0721,5.0731,5.0731,5.0731,5.0731,5.0731,5.0731,5.0731,1.2362,1.3353,1.4677,1.5999,1.8368,2.0705,2.2255,2.4818,2.704,2.7591,2.8766,2.9945,3.1021,3.3075,3.4885,3.5567,3.5698,3.5698,3.5698,3.5437,3.5251,3.5251,3.4875,3.5086,3.6294,3.7441,3.9043,4.147,4.2425,4.3398,4.4525,4.4615,4.4615,4.4615,4.4615,4.4615,4.4615,4.4035,4.3785,4.3756,4.3183,4.2923,4.2923,4.2614,4.2645,4.2923,4.2923,4.3575,4.4615,4.4615,4.4615,4.4615,4.4615,4.4615,4.4626,4.4841,4.5169,4.552,4.5757,4.6216,4.671,4.6478,4.671,4.7044,4.6824,4.7216,4.7736,4.7736,4.7997,4.8306,4.8306,4.8306,4.8306,4.8306,4.8402,4.855,4.8692,4.9142,4.9532,4.9692,4.9608,4.9566,4.9692,4.9719,4.9719,4.9719,4.9827,4.9936,4.9936,4.9979,5.0014,5.0014,5.0014,5.0011,5.0068,4.9985,4.9949,5.0002,4.9961,4.9936,4.9936,4.9936,4.9936,4.9936,4.9936,5.0183,5.0712,5.0712,5.0712,5.0712,5.0712,5.0712,1.1688,1.219,1.3132,1.4377,1.6032,1.7849,1.9826,2.218,2.4019,2.4159,2.5875,2.7392,2.7659,2.9981,3.225,3.3513,3.3595,3.3715,3.4259,3.4041,3.3929,3.4124,3.3783,3.3999,3.5236,3.6676,3.8551,4.0955,4.2255,4.3431,4.4525,4.4615,4.4615,4.4615,4.4615,4.4457,4.4167,4.3591,4.3139,4.2847,4.23,4.1997,4.1997,4.1707,4.1723,4.1997,4.1707,4.2379,4.3739,4.4035,4.4167,4.4196,4.4485,4.4615,4.4615,4.4615,4.4852,4.5205,4.5205,4.5597,4.6046,4.584,4.607,4.6359,4.6167,4.6728,4.7406,4.7406,4.7838,4.8306,4.8306,4.8306,4.8306,4.8306,4.8306,4.8306,4.8306,4.871,4.9142,4.9265,4.9187,4.9142,4.928,4.9295,4.9295,4.9295,4.9416,4.9489,4.9489,4.9489,4.9489,4.9489,4.9489,4.9489,4.9489,4.9489,4.9489,4.9489,4.9489,4.9489,4.9489,4.9489,4.9489,4.9489,4.9489,4.976,5.0302,5.0302,5.0302,5.0302,5.0302,5.0302,0.0,0.0,0.0,1.3734,1.4056,1.4735,1.8188,1.9148,1.9446,1.9999,2.2327,2.4245,2.4284,2.6167,2.8281,2.9973,2.9967,3.0314,3.1875,3.2089,3.2314,3.292,3.2982,3.317,3.3642,3.5256,3.7148,3.9239,4.1094,4.2858,4.448,4.4587,4.4615,4.4615,4.4587,4.4167,4.3306,4.3246,4.2816,4.1965,4.1933,4.1933,4.1901,4.1046,4.1113,4.1869,4.1013,4.1147,4.1997,4.2878,4.3276,4.3336,4.4224,4.4542,4.457,4.4598,4.4615,4.4615,4.4615,4.4971,4.5399,4.4786,4.5381,4.624,4.5648,4.6353,4.7342,4.7342,4.7777,4.8267,4.8267,4.8287,4.8306,4.8306,4.8306,4.8306,4.8306,4.8306,4.842,4.8813,4.8568,4.8421,4.883,4.888,4.888,4.888,4.9218,4.946,4.946,4.946,4.946,4.946,4.946,4.946,4.946,4.946,4.946,4.946,4.9445,4.9445,4.9445,4.9412,4.9412,4.9412,4.9412,4.9412,4.9412,4.9475,4.9489,4.9489,4.9489,4.9489,1.1146,0.0,0.0,0.0,0.0,0.0,1.5383,1.7282,1.8887,1.9666,2.0305,2.0933,2.1667,2.2815,2.4175,2.5733,2.7645,2.9097,2.9542,2.9922,3.0244,3.0395,3.0406,3.1116,3.2895,3.3517,3.5295,3.8908,4.0264,4.1693,4.3575,4.4253,4.4615,4.4615,4.4006,4.3532,4.3306,4.2062,4.1313,4.1046,4.0413,4.013,4.0095,3.9864,3.99,4.0095,3.9864,3.99,4.022,4.1739,4.2363,4.2458,4.3336,4.3651,4.3756,4.4355,4.4615,4.4615,4.4615,4.4692,4.4814,4.4654,4.4841,4.5062,4.4906,4.5399,4.6032,4.6032,4.6454,4.7044,4.7512,4.7957,4.8306,4.8306,4.8306,4.8306,4.8306,4.8306,4.8326,4.8439,4.8383,4.8344,4.8458,4.8477,4.8477,4.8477,4.8568,4.864,4.864,4.864,4.864,4.864,4.864,4.864,4.864,4.864,4.864,4.864,4.8217,4.7969,4.7969,4.7516,4.725,4.725,4.725,4.725,4.725,4.8764,4.9489,4.9489,4.9489,4.9341,1.0578,1.0177,1.0053,1.0028,0.0,0.0,1.3336,1.4789,1.6197,1.7628,1.8157,1.8651,1.9374,2.0458,2.1499,2.2409,2.4224,2.6254,2.8298,2.888,2.9137,2.9385,2.9863,3.0685,3.2005,3.3038,3.4738,3.7564,3.9077,4.0718,4.2725,4.3623,4.4096,4.4096,4.3589,4.3139,4.2754,4.1379,4.0535,4.015,3.9646,3.9388,3.9388,3.9388,3.9388,3.9388,3.9388,3.926,3.9047,4.0069,4.0708,4.1164,4.2297,4.2606,4.247,4.3639,4.4064,4.4109,4.4468,4.4615,4.4615,4.4615,4.4615,4.4615,4.4615,4.5025,4.5511,4.5511,4.594,4.6548,4.7216,4.7449,4.7638,4.8172,4.8113,4.7977,4.8248,4.8049,4.7901,4.8233,4.8306,4.8306,4.8306,4.8306,4.8306,4.8306,4.8306,4.8306,4.8306,4.8306,4.821,4.7957,4.7917,4.7818,4.7533,4.7512,4.7512,4.7512,4.7176,4.6977,4.6977,4.6618,4.6407,4.6407,4.6407,4.6248,4.5935,4.7171,4.759,4.7294,4.759,4.7629,0.9999,1.0318,1.0718,1.037,0.98,0.0,1.1998,1.2123,1.2415,1.4597,1.5861,1.669,1.7071,1.8574,1.9734,1.9693,2.0502,2.2658,2.7147,2.7813,2.8065,2.8685,2.9693,3.0518,3.0944,3.2887,3.4558,3.5675,3.7854,3.9958,4.192,4.2796,4.3259,4.3274,4.3053,4.2541,4.1757,4.0906,4.0063,3.9305,3.922,3.9184,3.9109,3.9109,3.9065,3.9041,3.9113,3.8856,3.8287,3.8287,3.8762,3.9588,4.1069,4.1278,4.091,4.2405,4.2922,4.3059,4.3915,4.4232,4.4249,4.4418,4.4479,4.4496,4.4581,4.4971,4.5381,4.5381,4.5815,4.6413,4.6914,4.6722,4.6641,4.7682,4.7583,4.7381,4.7935,4.7461,4.7168,4.7902,4.8031,4.8031,4.8031,4.8031,4.8048,4.8064,4.8063,4.8062,4.8094,4.8134,4.7977,4.7449,4.7449,4.7259,4.6664,4.6618,4.6594,4.6524,4.6454,4.633,4.6188,4.6116,4.6015,4.5951,4.5951,4.5587,4.4835,4.5062,4.4852,4.4236,4.4888,4.5166,1.0636,1.0674,1.0822,1.0822,1.0066,0.0,1.1335,1.0768,1.0404,1.2344,1.2767,1.292,1.3472,1.5804,1.7526,1.7246,1.9055,2.0992,2.2443,2.2895,2.348,2.4671,2.5013,2.6393,2.943,3.0158,3.17,3.4708,3.7537,3.9623,4.0858,4.1881,4.2444,4.2496,4.1271,4.0485,4.0316,3.9339,3.8747,3.8601,3.8282,3.7883,3.7463,3.736,3.707,3.6699,3.7451,3.7719,3.7599,3.7599,3.7702,3.796,3.8936,3.9246,3.9265,4.0252,4.0651,4.0772,4.1572,4.1863,4.2076,4.3244,4.3639,4.3758,4.4412,4.4665,4.4776,4.4776,4.5205,4.5567,4.5114,4.5602,4.614,4.5796,4.5966,4.6231,4.6342,4.6232,4.6177,4.6342,4.6379,4.6379,4.6379,4.6379,4.6413,4.6581,4.661,4.6642,4.6753,4.7237,4.753,4.7406,4.7838,4.8075,4.7937,4.7937,4.7718,4.7237,4.6687,4.591,4.4826,4.4259,4.3731,4.3099,4.3099,4.2723,4.2014,4.3629,4.4338,4.4201,4.4338,4.4409,1.0253,1.0889,1.1496,1.1156,1.0564,0.0,0.0,1.005,0.9855,1.1084,1.1653,1.2058,1.2493,1.3797,1.4759,1.4659,1.5468,1.6231,1.6539,1.939,2.1745,2.2591,2.3826,2.5595,2.8143,2.9534,3.1529,3.4485,3.5732,3.7231,3.9281,4.054,4.1333,4.1736,4.054,3.9916,3.9916,3.8573,3.7674,3.7208,3.7012,3.6521,3.5815,3.5713,3.5543,3.5356,3.6285,3.6511,3.6251,3.6756,3.6746,3.6555,3.7625,3.787,3.7757,3.8921,3.9345,3.947,4.0307,4.0619,4.0727,4.1453,4.1712,4.1853,4.2655,4.3171,4.3464,4.3464,4.3673,4.3906,4.385,4.4049,4.4331,4.4593,4.4628,4.4692,4.4983,4.4736,4.4447,4.4447,4.414,4.4219,4.5307,4.551,4.5551,4.5731,4.577,4.5905,4.6348,4.6687,4.6796,4.6495,4.671,4.6796,4.6495,4.6728,4.6659,4.6032,4.5982,4.5333,4.3974,4.3593,4.3064,4.2303,4.1931,4.1576,4.1204,4.1832,4.2152,4.2152,4.2534,4.2701,0.9842,1.1031,1.21,1.1549,1.1063,1.0591,0.0,0.0,0.0,0.9983,1.0874,1.1636,1.1927,1.2009,1.2127,1.2364,1.2003,1.1683,1.1683,1.6116,1.9709,2.051,2.256,2.4669,2.6687,2.8991,3.1309,3.3513,3.3238,3.4283,3.7346,3.8923,4.0117,4.0958,4.0018,3.9486,3.9486,3.7796,3.6546,3.5798,3.5553,3.4955,3.4128,3.4114,3.4046,3.3987,3.4951,3.5039,3.4601,3.5619,3.5689,3.535,3.6559,3.6746,3.6442,3.7619,3.8095,3.8209,3.9027,3.9333,3.9379,3.9704,3.9863,4.0142,4.0765,4.137,4.1886,4.2055,4.2082,4.2209,4.2763,4.2577,4.2475,4.3365,4.3278,4.3133,4.3625,4.3239,4.2774,4.2774,4.2118,4.219,4.4114,4.4451,4.4516,4.465,4.4682,4.4918,4.5526,4.5851,4.5835,4.5337,4.551,4.5485,4.4998,4.5381,4.5425,4.4814,4.5094,4.4664,4.3261,4.2776,4.2186,4.1456,4.0992,4.0759,4.0759,4.0307,4.0096,4.0113,4.0696,4.0984,1.0474,1.1315,1.1991,1.2131,1.1309,1.0477,1.0659,0.0,0.9123,0.8288,0.0,0.9647,0.9673,0.0,0.0,1.0921,1.095,1.093,1.093,1.2078,1.3897,1.6441,1.757,1.9909,2.4496,2.6438,2.8114,2.9886,3.0441,3.1962,3.4932,3.721,3.8976,4.0189,3.8809,3.8046,3.8046,3.6202,3.5218,3.5113,3.3919,3.3058,3.2475,3.2334,3.2042,3.1625,3.2585,3.2937,3.2952,3.3888,3.4235,3.4259,3.5296,3.5669,3.5624,3.5782,3.5877,3.5976,3.6739,3.6986,3.7201,3.8601,3.9477,4.0005,4.0112,4.0186,4.041,4.1115,4.1331,4.1338,4.1422,4.1773,4.1985,4.1406,4.1643,4.199,4.2076,4.1987,4.1934,4.1934,4.1292,4.1049,4.2026,4.2165,4.2233,4.2427,4.2471,4.2531,4.2748,4.3863,4.4597,4.4539,4.5586,4.6264,4.6192,4.6264,4.6039,4.5433,4.4845,4.3881,4.2465,4.0488,3.9045,3.8334,3.8854,3.9148,3.9148,3.979,4.0096,4.0096,4.0197,4.0231,1.0703,1.1458,1.2151,1.2271,1.1458,1.0654,1.076,0.9588,0.8313,0.7897,0.0,0.0,0.0,0.0,0.0,0.0,0.8765,0.843,0.843,0.8809,1.055,1.4479,1.5908,1.8381,2.3001,2.3873,2.494,2.6889,2.7226,2.8969,3.2691,3.4786,3.6764,3.8695,3.7674,3.6842,3.6307,3.5071,3.3881,3.2799,3.2225,3.1547,3.0791,3.074,3.0612,3.0457,3.1365,3.1779,3.1852,3.282,3.3206,3.3276,3.4259,3.4986,3.5504,3.5504,3.5504,3.5522,3.5863,3.5943,3.6084,3.6722,3.7421,3.8024,3.8024,3.8356,3.8787,3.914,3.9226,3.9247,3.9219,3.9721,4.0145,3.9808,3.9935,4.0116,4.0116,3.9783,3.9487,3.9487,3.922,3.9099,3.9419,3.9749,4.0178,4.0847,4.0535,4.0569,4.1444,4.2067,4.2772,4.367,4.4264,4.4807,4.5303,4.5673,4.5622,4.5025,4.3444,4.2095,4.1065,3.9247,3.8121,3.7822,3.8121,3.8246,3.8246,3.9032,3.9394,3.9394,3.9876,4.0096,1.1161,1.1622,1.2098,1.2265,1.1489,1.0627,1.0435,0.9241,0.8018,0.7506,0.755,0.0,0.0,0.0,0.7521,0.7873,0.0,0.6654,0.6695,0.6885,0.838,1.2191,1.4291,1.6929,2.0654,2.0386,2.0962,2.3334,2.3341,2.5221,2.9858,3.2175,3.4442,3.688,3.6705,3.6136,3.5222,3.4158,3.282,3.1217,3.0932,3.0444,2.9792,2.9792,2.9792,2.983,3.052,3.0833,3.0908,3.1829,3.2213,3.2357,3.3518,3.4461,3.5133,3.5392,3.5504,3.5504,3.5504,3.5504,3.5504,3.5504,3.5863,3.6306,3.6306,3.6707,3.7205,3.7397,3.7485,3.7515,3.7719,3.8206,3.8608,3.8608,3.8608,3.8608,3.8608,3.8177,3.7793,3.7793,3.7632,3.7544,3.7748,3.8132,3.8624,3.9367,3.9143,3.9244,4.0284,4.0749,4.1415,4.2505,4.3024,4.3562,4.4196,4.4872,4.4793,4.3721,4.2114,4.059,3.9198,3.8062,3.7383,3.7175,3.7368,3.7485,3.7485,3.8425,3.8908,3.8908,3.9731,4.0096,1.1924,1.1848,1.1555,1.2158,1.1345,1.0229,0.9509,0.9204,0.8554,0.6723,0.6965,0.7558,0.7749,0.7022,0.6683,0.7638,0.7085,0.0,0.0,0.6709,0.7272,0.8713,1.1792,1.4641,1.6789,1.5441,1.5708,1.8783,1.8528,2.0625,2.6083,2.9438,3.2309,3.473,3.5952,3.6136,3.5222,3.3502,3.2177,3.118,3.0279,2.983,2.9792,2.9792,2.9792,2.9792,2.983,2.9818,2.9934,3.0871,3.1254,3.1426,3.3276,3.4027,3.4177,3.5133,3.5504,3.5504,3.5504,3.5504,3.5504,3.5504,3.5504,3.5537,3.5537,3.5554,3.5733,3.6446,3.6646,3.6813,3.7602,3.7822,3.7851,3.7851,3.7851,3.7851,3.7851,3.7822,3.7793,3.7793,3.7174,3.6889,3.7661,3.7806,3.7835,3.7867,3.84,3.8818,3.8866,4.0064,4.0927,4.0974,4.2378,4.3306,4.3336,4.4121,4.3687,4.1439,4.125,3.9839,3.6846,3.6646,3.6306,3.5587,3.6275,3.6646,3.663,3.8157,3.8908,3.8908,3.9731,4.0096,1.1585,1.1577,1.1489,1.1917,1.12,1.0544,1.115,1.0033,0.8793,0.8382,0.7809,0.7253,0.6877,0.6528,0.6412,0.6756,0.6571,0.6388,0.0,0.6528,0.7126,0.8649,1.0559,1.2193,1.3198,1.2681,1.2942,1.4574,1.5885,1.8444,2.2601,2.6254,2.9449,3.215,3.3368,3.3502,3.2546,3.197,3.118,3.0279,2.9934,2.9792,2.9792,2.9792,2.9792,2.9792,2.9792,2.9792,2.983,3.0139,3.0279,3.0381,3.1646,3.2522,3.3276,3.4887,3.5504,3.5392,3.4725,3.4509,3.4394,3.3788,3.3581,3.3581,3.3581,3.3581,3.3636,3.3887,3.3941,3.4028,3.4301,3.4753,3.5145,3.5145,3.5145,3.5145,3.5145,3.472,3.4534,3.5168,3.4578,3.4244,3.5118,3.5295,3.5679,3.6843,3.7172,3.7407,3.7835,3.8062,3.8845,4.0573,4.0629,4.0851,4.1717,4.2038,4.1692,4.0418,4.0272,3.9125,3.6708,3.6576,3.6202,3.5504,3.575,3.5863,3.5863,3.6889,3.7379,3.7408,3.8701,3.9584,1.1362,1.1315,1.1343,1.1637,1.0987,1.048,1.1411,1.0122,0.8735,0.8741,0.8034,0.7141,0.6423,0.63,0.63,0.63,0.63,0.63,0.0,0.6422,0.6903,0.7924,0.8892,0.9809,1.0724,1.0246,1.0384,1.1502,1.2841,1.5272,1.898,2.2977,2.64,2.9174,3.1449,3.2141,3.1217,3.1217,3.0629,2.949,2.9691,2.9691,2.949,2.9691,2.9792,2.9792,2.9792,2.9792,2.9792,2.9792,2.9792,2.9895,3.0833,3.1573,3.2321,3.4259,3.4953,3.4839,3.3856,3.3484,3.338,3.282,3.2593,3.2593,3.2593,3.2593,3.2593,3.2593,3.2593,3.2593,3.2593,3.2996,3.3356,3.3356,3.3356,3.3356,3.3356,3.2961,3.2784,3.338,3.3031,3.2784,3.338,3.3484,3.3882,3.5005,3.58,3.6295,3.6347,3.6501,3.7244,3.8924,3.8895,3.9261,4.0543,4.065,4.0192,3.9184,3.9045,3.8161,3.6289,3.6172,3.5938,3.5519,3.5504,3.5504,3.5504,3.6259,3.6615,3.663,3.7898,3.8801]}]]